<?xml version="1.0" encoding="UTF-8" standalone="no" ?>
<gpx xmlns="http://www.topografix.com/GPX/1/1" xmlns:xsi="http://www.w3.org/2001/XMLSchema-instance" xsi:schemaLocation="http://www.topografix.com/GPX/1/1 http://www.topografix.com/GPX/1/1/gpx.xsd" version="1.1" creator="VisuGPX - https://www.visugpx.com">
  <metadata>
    <name>Ballade autour de Parthenay</name>
    <desc><![CDATA[Ballade autour de Parthenay]]></desc>
  </metadata>
  <trk>
    <name><![CDATA[002-2012/09/14-13:49:10]]></name>
    <trkseg>
      <trkpt lat="46.64078" lon="-0.26626">
        <ele>137</ele>
        <time>2012-09-14T11:49:10Z</time>
      </trkpt>
      <trkpt lat="46.64105" lon="-0.26631">
        <ele>137</ele>
        <time>2012-09-14T11:49:35Z</time>
      </trkpt>
      <trkpt lat="46.64111" lon="-0.26631">
        <ele>137</ele>
        <time>2012-09-14T11:49:41Z</time>
      </trkpt>
      <trkpt lat="46.64117" lon="-0.26632">
        <ele>137</ele>
        <time>2012-09-14T11:49:47Z</time>
      </trkpt>
      <trkpt lat="46.64124" lon="-0.2663">
        <ele>137</ele>
        <time>2012-09-14T11:49:52Z</time>
      </trkpt>
      <trkpt lat="46.64131" lon="-0.26628">
        <ele>137</ele>
        <time>2012-09-14T11:49:57Z</time>
      </trkpt>
      <trkpt lat="46.64138" lon="-0.26624">
        <ele>137</ele>
        <time>2012-09-14T11:50:03Z</time>
      </trkpt>
      <trkpt lat="46.64144" lon="-0.26621">
        <ele>137</ele>
        <time>2012-09-14T11:50:09Z</time>
      </trkpt>
      <trkpt lat="46.64148" lon="-0.26614">
        <ele>136</ele>
        <time>2012-09-14T11:50:15Z</time>
      </trkpt>
      <trkpt lat="46.64152" lon="-0.26607">
        <ele>136</ele>
        <time>2012-09-14T11:50:21Z</time>
      </trkpt>
      <trkpt lat="46.64156" lon="-0.26601">
        <ele>136</ele>
        <time>2012-09-14T11:50:27Z</time>
      </trkpt>
      <trkpt lat="46.64162" lon="-0.26595">
        <ele>136</ele>
        <time>2012-09-14T11:50:33Z</time>
      </trkpt>
      <trkpt lat="46.64167" lon="-0.26591">
        <ele>136</ele>
        <time>2012-09-14T11:50:38Z</time>
      </trkpt>
      <trkpt lat="46.64173" lon="-0.26588">
        <ele>136</ele>
        <time>2012-09-14T11:50:43Z</time>
      </trkpt>
      <trkpt lat="46.64179" lon="-0.26584">
        <ele>136</ele>
        <time>2012-09-14T11:50:48Z</time>
      </trkpt>
      <trkpt lat="46.64185" lon="-0.26581">
        <ele>135</ele>
        <time>2012-09-14T11:50:53Z</time>
      </trkpt>
      <trkpt lat="46.64192" lon="-0.26578">
        <ele>135</ele>
        <time>2012-09-14T11:50:58Z</time>
      </trkpt>
      <trkpt lat="46.64197" lon="-0.26575">
        <ele>135</ele>
        <time>2012-09-14T11:51:03Z</time>
      </trkpt>
      <trkpt lat="46.64205" lon="-0.26573">
        <ele>135</ele>
        <time>2012-09-14T11:51:08Z</time>
      </trkpt>
      <trkpt lat="46.64211" lon="-0.26573">
        <ele>135</ele>
        <time>2012-09-14T11:51:13Z</time>
      </trkpt>
      <trkpt lat="46.64218" lon="-0.26571">
        <ele>135</ele>
        <time>2012-09-14T11:51:18Z</time>
      </trkpt>
      <trkpt lat="46.64224" lon="-0.26569">
        <ele>135</ele>
        <time>2012-09-14T11:51:24Z</time>
      </trkpt>
      <trkpt lat="46.64229" lon="-0.26565">
        <ele>135</ele>
        <time>2012-09-14T11:51:30Z</time>
      </trkpt>
      <trkpt lat="46.64235" lon="-0.26561">
        <ele>135</ele>
        <time>2012-09-14T11:51:35Z</time>
      </trkpt>
      <trkpt lat="46.64239" lon="-0.26556">
        <ele>135</ele>
        <time>2012-09-14T11:51:40Z</time>
      </trkpt>
      <trkpt lat="46.64245" lon="-0.26552">
        <ele>135</ele>
        <time>2012-09-14T11:51:45Z</time>
      </trkpt>
      <trkpt lat="46.64252" lon="-0.2655">
        <ele>135</ele>
        <time>2012-09-14T11:51:50Z</time>
      </trkpt>
      <trkpt lat="46.64259" lon="-0.2655">
        <ele>135</ele>
        <time>2012-09-14T11:51:56Z</time>
      </trkpt>
      <trkpt lat="46.64264" lon="-0.26546">
        <ele>135</ele>
        <time>2012-09-14T11:52:01Z</time>
      </trkpt>
      <trkpt lat="46.6427" lon="-0.26543">
        <ele>135</ele>
        <time>2012-09-14T11:52:06Z</time>
      </trkpt>
      <trkpt lat="46.64275" lon="-0.26538">
        <ele>135</ele>
        <time>2012-09-14T11:52:11Z</time>
      </trkpt>
      <trkpt lat="46.6428" lon="-0.26531">
        <ele>134</ele>
        <time>2012-09-14T11:52:16Z</time>
      </trkpt>
      <trkpt lat="46.64285" lon="-0.26524">
        <ele>134</ele>
        <time>2012-09-14T11:52:22Z</time>
      </trkpt>
      <trkpt lat="46.64291" lon="-0.26518">
        <ele>134</ele>
        <time>2012-09-14T11:52:28Z</time>
      </trkpt>
      <trkpt lat="46.64296" lon="-0.26514">
        <ele>134</ele>
        <time>2012-09-14T11:52:33Z</time>
      </trkpt>
      <trkpt lat="46.64302" lon="-0.2651">
        <ele>134</ele>
        <time>2012-09-14T11:52:38Z</time>
      </trkpt>
      <trkpt lat="46.64308" lon="-0.26508">
        <ele>134</ele>
        <time>2012-09-14T11:52:43Z</time>
      </trkpt>
      <trkpt lat="46.64315" lon="-0.26508">
        <ele>134</ele>
        <time>2012-09-14T11:52:48Z</time>
      </trkpt>
      <trkpt lat="46.6432" lon="-0.26511">
        <ele>134</ele>
        <time>2012-09-14T11:52:53Z</time>
      </trkpt>
      <trkpt lat="46.64327" lon="-0.26516">
        <ele>134</ele>
        <time>2012-09-14T11:52:59Z</time>
      </trkpt>
      <trkpt lat="46.64333" lon="-0.26523">
        <ele>134</ele>
        <time>2012-09-14T11:53:05Z</time>
      </trkpt>
      <trkpt lat="46.64338" lon="-0.26531">
        <ele>136</ele>
        <time>2012-09-14T11:53:11Z</time>
      </trkpt>
      <trkpt lat="46.6434" lon="-0.26537">
        <ele>136</ele>
        <time>2012-09-14T11:53:16Z</time>
      </trkpt>
      <trkpt lat="46.64341" lon="-0.26546">
        <ele>136</ele>
        <time>2012-09-14T11:53:22Z</time>
      </trkpt>
      <trkpt lat="46.64339" lon="-0.2655">
        <ele>136</ele>
        <time>2012-09-14T11:53:27Z</time>
      </trkpt>
      <trkpt lat="46.64336" lon="-0.26557">
        <ele>136</ele>
        <time>2012-09-14T11:53:33Z</time>
      </trkpt>
      <trkpt lat="46.6433" lon="-0.26564">
        <ele>136</ele>
        <time>2012-09-14T11:53:39Z</time>
      </trkpt>
      <trkpt lat="46.64323" lon="-0.26568">
        <ele>136</ele>
        <time>2012-09-14T11:53:45Z</time>
      </trkpt>
      <trkpt lat="46.64318" lon="-0.26571">
        <ele>136</ele>
        <time>2012-09-14T11:53:50Z</time>
      </trkpt>
      <trkpt lat="46.64312" lon="-0.26577">
        <ele>136</ele>
        <time>2012-09-14T11:53:56Z</time>
      </trkpt>
      <trkpt lat="46.64311" lon="-0.26586">
        <ele>138</ele>
        <time>2012-09-14T11:54:02Z</time>
      </trkpt>
      <trkpt lat="46.64314" lon="-0.2659">
        <ele>138</ele>
        <time>2012-09-14T11:54:08Z</time>
      </trkpt>
      <trkpt lat="46.6432" lon="-0.26589">
        <ele>138</ele>
        <time>2012-09-14T11:54:14Z</time>
      </trkpt>
      <trkpt lat="46.64325" lon="-0.26583">
        <ele>136</ele>
        <time>2012-09-14T11:54:20Z</time>
      </trkpt>
      <trkpt lat="46.64331" lon="-0.26582">
        <ele>137</ele>
        <time>2012-09-14T11:54:25Z</time>
      </trkpt>
      <trkpt lat="46.64335" lon="-0.26587">
        <ele>138</ele>
        <time>2012-09-14T11:54:31Z</time>
      </trkpt>
      <trkpt lat="46.64336" lon="-0.26593">
        <ele>139</ele>
        <time>2012-09-14T11:54:36Z</time>
      </trkpt>
      <trkpt lat="46.64334" lon="-0.26599">
        <ele>139</ele>
        <time>2012-09-14T11:54:42Z</time>
      </trkpt>
      <trkpt lat="46.64333" lon="-0.26607">
        <ele>138</ele>
        <time>2012-09-14T11:54:47Z</time>
      </trkpt>
      <trkpt lat="46.64334" lon="-0.26614">
        <ele>140</ele>
        <time>2012-09-14T11:54:53Z</time>
      </trkpt>
      <trkpt lat="46.64337" lon="-0.26616">
        <ele>140</ele>
        <time>2012-09-14T11:54:59Z</time>
      </trkpt>
      <trkpt lat="46.64341" lon="-0.26616">
        <ele>140</ele>
        <time>2012-09-14T11:55:04Z</time>
      </trkpt>
      <trkpt lat="46.64347" lon="-0.26614">
        <ele>140</ele>
        <time>2012-09-14T11:55:09Z</time>
      </trkpt>
      <trkpt lat="46.64351" lon="-0.26609">
        <ele>140</ele>
        <time>2012-09-14T11:55:14Z</time>
      </trkpt>
      <trkpt lat="46.64353" lon="-0.26603">
        <ele>140</ele>
        <time>2012-09-14T11:55:19Z</time>
      </trkpt>
      <trkpt lat="46.64356" lon="-0.26597">
        <ele>140</ele>
        <time>2012-09-14T11:55:24Z</time>
      </trkpt>
      <trkpt lat="46.64358" lon="-0.26587">
        <ele>140</ele>
        <time>2012-09-14T11:55:29Z</time>
      </trkpt>
      <trkpt lat="46.64362" lon="-0.2658">
        <ele>137</ele>
        <time>2012-09-14T11:55:34Z</time>
      </trkpt>
      <trkpt lat="46.64367" lon="-0.26576">
        <ele>137</ele>
        <time>2012-09-14T11:55:39Z</time>
      </trkpt>
      <trkpt lat="46.64371" lon="-0.26573">
        <ele>137</ele>
        <time>2012-09-14T11:55:44Z</time>
      </trkpt>
      <trkpt lat="46.64378" lon="-0.26572">
        <ele>137</ele>
        <time>2012-09-14T11:55:50Z</time>
      </trkpt>
      <trkpt lat="46.64384" lon="-0.26572">
        <ele>137</ele>
        <time>2012-09-14T11:55:56Z</time>
      </trkpt>
      <trkpt lat="46.64389" lon="-0.26573">
        <ele>138</ele>
        <time>2012-09-14T11:56:01Z</time>
      </trkpt>
      <trkpt lat="46.64396" lon="-0.26574">
        <ele>138</ele>
        <time>2012-09-14T11:56:07Z</time>
      </trkpt>
      <trkpt lat="46.64402" lon="-0.26573">
        <ele>138</ele>
        <time>2012-09-14T11:56:12Z</time>
      </trkpt>
      <trkpt lat="46.64408" lon="-0.26576">
        <ele>139</ele>
        <time>2012-09-14T11:56:17Z</time>
      </trkpt>
      <trkpt lat="46.64415" lon="-0.26575">
        <ele>139</ele>
        <time>2012-09-14T11:56:22Z</time>
      </trkpt>
      <trkpt lat="46.64421" lon="-0.26573">
        <ele>140</ele>
        <time>2012-09-14T11:56:27Z</time>
      </trkpt>
      <trkpt lat="46.64427" lon="-0.26571">
        <ele>140</ele>
        <time>2012-09-14T11:56:32Z</time>
      </trkpt>
      <trkpt lat="46.64434" lon="-0.26568">
        <ele>140</ele>
        <time>2012-09-14T11:56:38Z</time>
      </trkpt>
      <trkpt lat="46.6444" lon="-0.26565">
        <ele>140</ele>
        <time>2012-09-14T11:56:44Z</time>
      </trkpt>
      <trkpt lat="46.64446" lon="-0.26559">
        <ele>140</ele>
        <time>2012-09-14T11:56:50Z</time>
      </trkpt>
      <trkpt lat="46.64452" lon="-0.26552">
        <ele>140</ele>
        <time>2012-09-14T11:56:55Z</time>
      </trkpt>
      <trkpt lat="46.64456" lon="-0.26545">
        <ele>140</ele>
        <time>2012-09-14T11:57:00Z</time>
      </trkpt>
      <trkpt lat="46.64455" lon="-0.26535">
        <ele>139</ele>
        <time>2012-09-14T11:57:05Z</time>
      </trkpt>
      <trkpt lat="46.64452" lon="-0.26527">
        <ele>139</ele>
        <time>2012-09-14T11:57:11Z</time>
      </trkpt>
      <trkpt lat="46.64446" lon="-0.26519">
        <ele>139</ele>
        <time>2012-09-14T11:57:17Z</time>
      </trkpt>
      <trkpt lat="46.64441" lon="-0.26513">
        <ele>138</ele>
        <time>2012-09-14T11:57:22Z</time>
      </trkpt>
      <trkpt lat="46.64437" lon="-0.26507">
        <ele>138</ele>
        <time>2012-09-14T11:57:27Z</time>
      </trkpt>
      <trkpt lat="46.64434" lon="-0.265">
        <ele>136</ele>
        <time>2012-09-14T11:57:32Z</time>
      </trkpt>
      <trkpt lat="46.64435" lon="-0.26491">
        <ele>136</ele>
        <time>2012-09-14T11:57:37Z</time>
      </trkpt>
      <trkpt lat="46.64436" lon="-0.26483">
        <ele>136</ele>
        <time>2012-09-14T11:57:42Z</time>
      </trkpt>
      <trkpt lat="46.64437" lon="-0.26474">
        <ele>136</ele>
        <time>2012-09-14T11:57:47Z</time>
      </trkpt>
      <trkpt lat="46.64437" lon="-0.26465">
        <ele>136</ele>
        <time>2012-09-14T11:57:52Z</time>
      </trkpt>
      <trkpt lat="46.64433" lon="-0.26455">
        <ele>136</ele>
        <time>2012-09-14T11:57:57Z</time>
      </trkpt>
      <trkpt lat="46.64429" lon="-0.26452">
        <ele>136</ele>
        <time>2012-09-14T11:58:02Z</time>
      </trkpt>
      <trkpt lat="46.64423" lon="-0.26448">
        <ele>136</ele>
        <time>2012-09-14T11:58:07Z</time>
      </trkpt>
      <trkpt lat="46.64416" lon="-0.26447">
        <ele>134</ele>
        <time>2012-09-14T11:58:12Z</time>
      </trkpt>
      <trkpt lat="46.64409" lon="-0.26446">
        <ele>134</ele>
        <time>2012-09-14T11:58:17Z</time>
      </trkpt>
      <trkpt lat="46.64405" lon="-0.26448">
        <ele>134</ele>
        <time>2012-09-14T11:58:22Z</time>
      </trkpt>
      <trkpt lat="46.64399" lon="-0.26451">
        <ele>134</ele>
        <time>2012-09-14T11:58:27Z</time>
      </trkpt>
      <trkpt lat="46.64393" lon="-0.26455">
        <ele>134</ele>
        <time>2012-09-14T11:58:32Z</time>
      </trkpt>
      <trkpt lat="46.64387" lon="-0.26458">
        <ele>134</ele>
        <time>2012-09-14T11:58:38Z</time>
      </trkpt>
      <trkpt lat="46.64381" lon="-0.26454">
        <ele>134</ele>
        <time>2012-09-14T11:58:44Z</time>
      </trkpt>
      <trkpt lat="46.64375" lon="-0.2645">
        <ele>134</ele>
        <time>2012-09-14T11:58:50Z</time>
      </trkpt>
      <trkpt lat="46.64372" lon="-0.26446">
        <ele>134</ele>
        <time>2012-09-14T11:58:55Z</time>
      </trkpt>
      <trkpt lat="46.6437" lon="-0.2644">
        <ele>134</ele>
        <time>2012-09-14T11:59:01Z</time>
      </trkpt>
      <trkpt lat="46.64369" lon="-0.26434">
        <ele>134</ele>
        <time>2012-09-14T11:59:07Z</time>
      </trkpt>
      <trkpt lat="46.64369" lon="-0.26427">
        <ele>134</ele>
        <time>2012-09-14T11:59:13Z</time>
      </trkpt>
      <trkpt lat="46.64369" lon="-0.26417">
        <ele>134</ele>
        <time>2012-09-14T11:59:18Z</time>
      </trkpt>
      <trkpt lat="46.64368" lon="-0.2641">
        <ele>134</ele>
        <time>2012-09-14T11:59:24Z</time>
      </trkpt>
      <trkpt lat="46.64368" lon="-0.26403">
        <ele>134</ele>
        <time>2012-09-14T11:59:30Z</time>
      </trkpt>
      <trkpt lat="46.64366" lon="-0.26394">
        <ele>134</ele>
        <time>2012-09-14T11:59:35Z</time>
      </trkpt>
      <trkpt lat="46.64366" lon="-0.26384">
        <ele>134</ele>
        <time>2012-09-14T11:59:40Z</time>
      </trkpt>
      <trkpt lat="46.64372" lon="-0.26376">
        <ele>134</ele>
        <time>2012-09-14T11:59:46Z</time>
      </trkpt>
      <trkpt lat="46.64379" lon="-0.26373">
        <ele>134</ele>
        <time>2012-09-14T11:59:52Z</time>
      </trkpt>
      <trkpt lat="46.64384" lon="-0.26371">
        <ele>134</ele>
        <time>2012-09-14T11:59:57Z</time>
      </trkpt>
      <trkpt lat="46.64389" lon="-0.26373">
        <ele>134</ele>
        <time>2012-09-14T12:00:02Z</time>
      </trkpt>
      <trkpt lat="46.64395" lon="-0.26373">
        <ele>134</ele>
        <time>2012-09-14T12:00:07Z</time>
      </trkpt>
      <trkpt lat="46.64402" lon="-0.26374">
        <ele>134</ele>
        <time>2012-09-14T12:00:12Z</time>
      </trkpt>
      <trkpt lat="46.6441" lon="-0.26374">
        <ele>134</ele>
        <time>2012-09-14T12:00:17Z</time>
      </trkpt>
      <trkpt lat="46.64418" lon="-0.26376">
        <ele>135</ele>
        <time>2012-09-14T12:00:23Z</time>
      </trkpt>
      <trkpt lat="46.64423" lon="-0.26377">
        <ele>135</ele>
        <time>2012-09-14T12:00:28Z</time>
      </trkpt>
      <trkpt lat="46.64429" lon="-0.26378">
        <ele>135</ele>
        <time>2012-09-14T12:00:33Z</time>
      </trkpt>
      <trkpt lat="46.64435" lon="-0.26378">
        <ele>135</ele>
        <time>2012-09-14T12:00:39Z</time>
      </trkpt>
      <trkpt lat="46.64439" lon="-0.26378">
        <ele>135</ele>
        <time>2012-09-14T12:00:44Z</time>
      </trkpt>
      <trkpt lat="46.64445" lon="-0.26378">
        <ele>135</ele>
        <time>2012-09-14T12:00:49Z</time>
      </trkpt>
      <trkpt lat="46.64451" lon="-0.26378">
        <ele>135</ele>
        <time>2012-09-14T12:00:54Z</time>
      </trkpt>
      <trkpt lat="46.64457" lon="-0.2638">
        <ele>135</ele>
        <time>2012-09-14T12:00:59Z</time>
      </trkpt>
      <trkpt lat="46.64462" lon="-0.26383">
        <ele>136</ele>
        <time>2012-09-14T12:01:04Z</time>
      </trkpt>
      <trkpt lat="46.64469" lon="-0.26382">
        <ele>136</ele>
        <time>2012-09-14T12:01:09Z</time>
      </trkpt>
      <trkpt lat="46.64476" lon="-0.2638">
        <ele>136</ele>
        <time>2012-09-14T12:01:14Z</time>
      </trkpt>
      <trkpt lat="46.64485" lon="-0.2638">
        <ele>136</ele>
        <time>2012-09-14T12:01:20Z</time>
      </trkpt>
      <trkpt lat="46.6449" lon="-0.26378">
        <ele>136</ele>
        <time>2012-09-14T12:01:25Z</time>
      </trkpt>
      <trkpt lat="46.64496" lon="-0.26374">
        <ele>136</ele>
        <time>2012-09-14T12:01:30Z</time>
      </trkpt>
      <trkpt lat="46.645" lon="-0.26368">
        <ele>137</ele>
        <time>2012-09-14T12:01:36Z</time>
      </trkpt>
      <trkpt lat="46.64504" lon="-0.26362">
        <ele>137</ele>
        <time>2012-09-14T12:01:41Z</time>
      </trkpt>
      <trkpt lat="46.64509" lon="-0.26357">
        <ele>137</ele>
        <time>2012-09-14T12:01:46Z</time>
      </trkpt>
      <trkpt lat="46.64514" lon="-0.26351">
        <ele>137</ele>
        <time>2012-09-14T12:01:51Z</time>
      </trkpt>
      <trkpt lat="46.64519" lon="-0.26345">
        <ele>137</ele>
        <time>2012-09-14T12:01:56Z</time>
      </trkpt>
      <trkpt lat="46.64522" lon="-0.26338">
        <ele>137</ele>
        <time>2012-09-14T12:02:01Z</time>
      </trkpt>
      <trkpt lat="46.64524" lon="-0.26331">
        <ele>137</ele>
        <time>2012-09-14T12:02:06Z</time>
      </trkpt>
      <trkpt lat="46.64525" lon="-0.26322">
        <ele>137</ele>
        <time>2012-09-14T12:02:11Z</time>
      </trkpt>
      <trkpt lat="46.64525" lon="-0.26314">
        <ele>137</ele>
        <time>2012-09-14T12:02:16Z</time>
      </trkpt>
      <trkpt lat="46.64527" lon="-0.26306">
        <ele>138</ele>
        <time>2012-09-14T12:02:21Z</time>
      </trkpt>
      <trkpt lat="46.64531" lon="-0.26297">
        <ele>138</ele>
        <time>2012-09-14T12:02:26Z</time>
      </trkpt>
      <trkpt lat="46.64533" lon="-0.26288">
        <ele>138</ele>
        <time>2012-09-14T12:02:31Z</time>
      </trkpt>
      <trkpt lat="46.64535" lon="-0.2628">
        <ele>138</ele>
        <time>2012-09-14T12:02:36Z</time>
      </trkpt>
      <trkpt lat="46.64538" lon="-0.26273">
        <ele>138</ele>
        <time>2012-09-14T12:02:41Z</time>
      </trkpt>
      <trkpt lat="46.64541" lon="-0.26264">
        <ele>138</ele>
        <time>2012-09-14T12:02:46Z</time>
      </trkpt>
      <trkpt lat="46.64542" lon="-0.26256">
        <ele>138</ele>
        <time>2012-09-14T12:02:51Z</time>
      </trkpt>
      <trkpt lat="46.64541" lon="-0.26245">
        <ele>140</ele>
        <time>2012-09-14T12:02:56Z</time>
      </trkpt>
      <trkpt lat="46.64541" lon="-0.26234">
        <ele>140</ele>
        <time>2012-09-14T12:03:01Z</time>
      </trkpt>
      <trkpt lat="46.64538" lon="-0.26225">
        <ele>140</ele>
        <time>2012-09-14T12:03:06Z</time>
      </trkpt>
      <trkpt lat="46.64538" lon="-0.26217">
        <ele>140</ele>
        <time>2012-09-14T12:03:11Z</time>
      </trkpt>
      <trkpt lat="46.64538" lon="-0.26206">
        <ele>140</ele>
        <time>2012-09-14T12:03:17Z</time>
      </trkpt>
      <trkpt lat="46.64539" lon="-0.26196">
        <ele>140</ele>
        <time>2012-09-14T12:03:23Z</time>
      </trkpt>
      <trkpt lat="46.6454" lon="-0.26187">
        <ele>140</ele>
        <time>2012-09-14T12:03:28Z</time>
      </trkpt>
      <trkpt lat="46.64541" lon="-0.26179">
        <ele>140</ele>
        <time>2012-09-14T12:03:33Z</time>
      </trkpt>
      <trkpt lat="46.64542" lon="-0.26171">
        <ele>140</ele>
        <time>2012-09-14T12:03:38Z</time>
      </trkpt>
      <trkpt lat="46.64542" lon="-0.26162">
        <ele>142</ele>
        <time>2012-09-14T12:03:43Z</time>
      </trkpt>
      <trkpt lat="46.64543" lon="-0.26153">
        <ele>142</ele>
        <time>2012-09-14T12:03:48Z</time>
      </trkpt>
      <trkpt lat="46.64544" lon="-0.26144">
        <ele>142</ele>
        <time>2012-09-14T12:03:53Z</time>
      </trkpt>
      <trkpt lat="46.64544" lon="-0.26134">
        <ele>142</ele>
        <time>2012-09-14T12:03:58Z</time>
      </trkpt>
      <trkpt lat="46.64544" lon="-0.26126">
        <ele>142</ele>
        <time>2012-09-14T12:04:03Z</time>
      </trkpt>
      <trkpt lat="46.64544" lon="-0.26118">
        <ele>142</ele>
        <time>2012-09-14T12:04:08Z</time>
      </trkpt>
      <trkpt lat="46.64545" lon="-0.26108">
        <ele>142</ele>
        <time>2012-09-14T12:04:13Z</time>
      </trkpt>
      <trkpt lat="46.64547" lon="-0.261">
        <ele>142</ele>
        <time>2012-09-14T12:04:18Z</time>
      </trkpt>
      <trkpt lat="46.64548" lon="-0.26091">
        <ele>142</ele>
        <time>2012-09-14T12:04:23Z</time>
      </trkpt>
      <trkpt lat="46.64551" lon="-0.26084">
        <ele>142</ele>
        <time>2012-09-14T12:04:28Z</time>
      </trkpt>
      <trkpt lat="46.64552" lon="-0.26075">
        <ele>143</ele>
        <time>2012-09-14T12:04:33Z</time>
      </trkpt>
      <trkpt lat="46.64556" lon="-0.26065">
        <ele>143</ele>
        <time>2012-09-14T12:04:38Z</time>
      </trkpt>
      <trkpt lat="46.64557" lon="-0.26055">
        <ele>143</ele>
        <time>2012-09-14T12:04:43Z</time>
      </trkpt>
      <trkpt lat="46.64558" lon="-0.26045">
        <ele>143</ele>
        <time>2012-09-14T12:04:48Z</time>
      </trkpt>
      <trkpt lat="46.6456" lon="-0.26035">
        <ele>143</ele>
        <time>2012-09-14T12:04:53Z</time>
      </trkpt>
      <trkpt lat="46.64561" lon="-0.26027">
        <ele>143</ele>
        <time>2012-09-14T12:04:58Z</time>
      </trkpt>
      <trkpt lat="46.64562" lon="-0.26019">
        <ele>143</ele>
        <time>2012-09-14T12:05:03Z</time>
      </trkpt>
      <trkpt lat="46.64563" lon="-0.2601">
        <ele>143</ele>
        <time>2012-09-14T12:05:08Z</time>
      </trkpt>
      <trkpt lat="46.64563" lon="-0.26">
        <ele>142</ele>
        <time>2012-09-14T12:05:13Z</time>
      </trkpt>
      <trkpt lat="46.64562" lon="-0.25992">
        <ele>143</ele>
        <time>2012-09-14T12:05:18Z</time>
      </trkpt>
      <trkpt lat="46.64561" lon="-0.25984">
        <ele>143</ele>
        <time>2012-09-14T12:05:23Z</time>
      </trkpt>
      <trkpt lat="46.6456" lon="-0.25976">
        <ele>143</ele>
        <time>2012-09-14T12:05:28Z</time>
      </trkpt>
      <trkpt lat="46.64559" lon="-0.25968">
        <ele>144</ele>
        <time>2012-09-14T12:05:33Z</time>
      </trkpt>
      <trkpt lat="46.64557" lon="-0.2596">
        <ele>144</ele>
        <time>2012-09-14T12:05:38Z</time>
      </trkpt>
      <trkpt lat="46.64555" lon="-0.25951">
        <ele>144</ele>
        <time>2012-09-14T12:05:43Z</time>
      </trkpt>
      <trkpt lat="46.64554" lon="-0.25942">
        <ele>144</ele>
        <time>2012-09-14T12:05:48Z</time>
      </trkpt>
      <trkpt lat="46.64553" lon="-0.25933">
        <ele>144</ele>
        <time>2012-09-14T12:05:53Z</time>
      </trkpt>
      <trkpt lat="46.64553" lon="-0.25923">
        <ele>144</ele>
        <time>2012-09-14T12:05:58Z</time>
      </trkpt>
      <trkpt lat="46.64553" lon="-0.25913">
        <ele>145</ele>
        <time>2012-09-14T12:06:03Z</time>
      </trkpt>
      <trkpt lat="46.64553" lon="-0.25904">
        <ele>145</ele>
        <time>2012-09-14T12:06:08Z</time>
      </trkpt>
      <trkpt lat="46.64554" lon="-0.25895">
        <ele>145</ele>
        <time>2012-09-14T12:06:13Z</time>
      </trkpt>
      <trkpt lat="46.64556" lon="-0.25886">
        <ele>145</ele>
        <time>2012-09-14T12:06:19Z</time>
      </trkpt>
      <trkpt lat="46.64557" lon="-0.25876">
        <ele>145</ele>
        <time>2012-09-14T12:06:24Z</time>
      </trkpt>
      <trkpt lat="46.64559" lon="-0.25866">
        <ele>145</ele>
        <time>2012-09-14T12:06:29Z</time>
      </trkpt>
      <trkpt lat="46.64561" lon="-0.25857">
        <ele>145</ele>
        <time>2012-09-14T12:06:34Z</time>
      </trkpt>
      <trkpt lat="46.64563" lon="-0.25848">
        <ele>145</ele>
        <time>2012-09-14T12:06:39Z</time>
      </trkpt>
      <trkpt lat="46.64566" lon="-0.25841">
        <ele>145</ele>
        <time>2012-09-14T12:06:44Z</time>
      </trkpt>
      <trkpt lat="46.64568" lon="-0.25832">
        <ele>145</ele>
        <time>2012-09-14T12:06:49Z</time>
      </trkpt>
      <trkpt lat="46.6457" lon="-0.25824">
        <ele>145</ele>
        <time>2012-09-14T12:06:54Z</time>
      </trkpt>
      <trkpt lat="46.64574" lon="-0.25815">
        <ele>145</ele>
        <time>2012-09-14T12:06:59Z</time>
      </trkpt>
      <trkpt lat="46.64575" lon="-0.25806">
        <ele>145</ele>
        <time>2012-09-14T12:07:04Z</time>
      </trkpt>
      <trkpt lat="46.64578" lon="-0.25797">
        <ele>145</ele>
        <time>2012-09-14T12:07:09Z</time>
      </trkpt>
      <trkpt lat="46.64581" lon="-0.25788">
        <ele>145</ele>
        <time>2012-09-14T12:07:14Z</time>
      </trkpt>
      <trkpt lat="46.64582" lon="-0.25779">
        <ele>145</ele>
        <time>2012-09-14T12:07:19Z</time>
      </trkpt>
      <trkpt lat="46.64584" lon="-0.2577">
        <ele>139</ele>
        <time>2012-09-14T12:07:24Z</time>
      </trkpt>
      <trkpt lat="46.64585" lon="-0.25761">
        <ele>140</ele>
        <time>2012-09-14T12:07:29Z</time>
      </trkpt>
      <trkpt lat="46.64587" lon="-0.25752">
        <ele>140</ele>
        <time>2012-09-14T12:07:34Z</time>
      </trkpt>
      <trkpt lat="46.64587" lon="-0.25744">
        <ele>140</ele>
        <time>2012-09-14T12:07:39Z</time>
      </trkpt>
      <trkpt lat="46.64589" lon="-0.25734">
        <ele>139</ele>
        <time>2012-09-14T12:07:44Z</time>
      </trkpt>
      <trkpt lat="46.6459" lon="-0.25725">
        <ele>139</ele>
        <time>2012-09-14T12:07:49Z</time>
      </trkpt>
      <trkpt lat="46.64594" lon="-0.25716">
        <ele>139</ele>
        <time>2012-09-14T12:07:54Z</time>
      </trkpt>
      <trkpt lat="46.64596" lon="-0.25707">
        <ele>139</ele>
        <time>2012-09-14T12:07:59Z</time>
      </trkpt>
      <trkpt lat="46.64597" lon="-0.25698">
        <ele>139</ele>
        <time>2012-09-14T12:08:04Z</time>
      </trkpt>
      <trkpt lat="46.64597" lon="-0.25689">
        <ele>139</ele>
        <time>2012-09-14T12:08:09Z</time>
      </trkpt>
      <trkpt lat="46.64598" lon="-0.25679">
        <ele>140</ele>
        <time>2012-09-14T12:08:14Z</time>
      </trkpt>
      <trkpt lat="46.64599" lon="-0.25669">
        <ele>141</ele>
        <time>2012-09-14T12:08:19Z</time>
      </trkpt>
      <trkpt lat="46.64599" lon="-0.2566">
        <ele>142</ele>
        <time>2012-09-14T12:08:24Z</time>
      </trkpt>
      <trkpt lat="46.64599" lon="-0.25652">
        <ele>141</ele>
        <time>2012-09-14T12:08:29Z</time>
      </trkpt>
      <trkpt lat="46.646" lon="-0.25644">
        <ele>141</ele>
        <time>2012-09-14T12:08:34Z</time>
      </trkpt>
      <trkpt lat="46.64601" lon="-0.25636">
        <ele>141</ele>
        <time>2012-09-14T12:08:39Z</time>
      </trkpt>
      <trkpt lat="46.64603" lon="-0.25627">
        <ele>141</ele>
        <time>2012-09-14T12:08:44Z</time>
      </trkpt>
      <trkpt lat="46.64605" lon="-0.25619">
        <ele>141</ele>
        <time>2012-09-14T12:08:49Z</time>
      </trkpt>
      <trkpt lat="46.64607" lon="-0.25611">
        <ele>141</ele>
        <time>2012-09-14T12:08:54Z</time>
      </trkpt>
      <trkpt lat="46.64609" lon="-0.25603">
        <ele>142</ele>
        <time>2012-09-14T12:08:59Z</time>
      </trkpt>
      <trkpt lat="46.64612" lon="-0.25595">
        <ele>142</ele>
        <time>2012-09-14T12:09:04Z</time>
      </trkpt>
      <trkpt lat="46.64615" lon="-0.25587">
        <ele>141</ele>
        <time>2012-09-14T12:09:09Z</time>
      </trkpt>
      <trkpt lat="46.64618" lon="-0.25579">
        <ele>145</ele>
        <time>2012-09-14T12:09:14Z</time>
      </trkpt>
      <trkpt lat="46.64621" lon="-0.25571">
        <ele>144</ele>
        <time>2012-09-14T12:09:19Z</time>
      </trkpt>
      <trkpt lat="46.64623" lon="-0.25562">
        <ele>144</ele>
        <time>2012-09-14T12:09:24Z</time>
      </trkpt>
      <trkpt lat="46.64627" lon="-0.25555">
        <ele>144</ele>
        <time>2012-09-14T12:09:29Z</time>
      </trkpt>
      <trkpt lat="46.6463" lon="-0.25553">
        <ele>144</ele>
        <time>2012-09-14T12:09:34Z</time>
      </trkpt>
      <trkpt lat="46.64633" lon="-0.25547">
        <ele>144</ele>
        <time>2012-09-14T12:09:40Z</time>
      </trkpt>
      <trkpt lat="46.64636" lon="-0.2554">
        <ele>144</ele>
        <time>2012-09-14T12:09:46Z</time>
      </trkpt>
      <trkpt lat="46.64639" lon="-0.25534">
        <ele>144</ele>
        <time>2012-09-14T12:09:52Z</time>
      </trkpt>
      <trkpt lat="46.64645" lon="-0.25524">
        <ele>144</ele>
        <time>2012-09-14T12:09:57Z</time>
      </trkpt>
      <trkpt lat="46.64647" lon="-0.25519">
        <ele>144</ele>
        <time>2012-09-14T12:10:02Z</time>
      </trkpt>
      <trkpt lat="46.64652" lon="-0.25512">
        <ele>144</ele>
        <time>2012-09-14T12:10:07Z</time>
      </trkpt>
      <trkpt lat="46.64656" lon="-0.25503">
        <ele>143</ele>
        <time>2012-09-14T12:10:13Z</time>
      </trkpt>
      <trkpt lat="46.64661" lon="-0.25496">
        <ele>145</ele>
        <time>2012-09-14T12:10:19Z</time>
      </trkpt>
      <trkpt lat="46.64663" lon="-0.2549">
        <ele>146</ele>
        <time>2012-09-14T12:10:24Z</time>
      </trkpt>
      <trkpt lat="46.64666" lon="-0.25481">
        <ele>148</ele>
        <time>2012-09-14T12:10:29Z</time>
      </trkpt>
      <trkpt lat="46.64669" lon="-0.25474">
        <ele>142</ele>
        <time>2012-09-14T12:10:34Z</time>
      </trkpt>
      <trkpt lat="46.64671" lon="-0.25467">
        <ele>142</ele>
        <time>2012-09-14T12:10:39Z</time>
      </trkpt>
      <trkpt lat="46.64675" lon="-0.25458">
        <ele>143</ele>
        <time>2012-09-14T12:10:45Z</time>
      </trkpt>
      <trkpt lat="46.64678" lon="-0.25451">
        <ele>143</ele>
        <time>2012-09-14T12:10:50Z</time>
      </trkpt>
      <trkpt lat="46.64682" lon="-0.25444">
        <ele>144</ele>
        <time>2012-09-14T12:10:56Z</time>
      </trkpt>
      <trkpt lat="46.64684" lon="-0.25437">
        <ele>145</ele>
        <time>2012-09-14T12:11:01Z</time>
      </trkpt>
      <trkpt lat="46.64689" lon="-0.2543">
        <ele>145</ele>
        <time>2012-09-14T12:11:07Z</time>
      </trkpt>
      <trkpt lat="46.64691" lon="-0.25423">
        <ele>145</ele>
        <time>2012-09-14T12:11:12Z</time>
      </trkpt>
      <trkpt lat="46.64696" lon="-0.25414">
        <ele>148</ele>
        <time>2012-09-14T12:11:18Z</time>
      </trkpt>
      <trkpt lat="46.64701" lon="-0.25407">
        <ele>147</ele>
        <time>2012-09-14T12:11:24Z</time>
      </trkpt>
      <trkpt lat="46.64704" lon="-0.254">
        <ele>147</ele>
        <time>2012-09-14T12:11:30Z</time>
      </trkpt>
      <trkpt lat="46.64709" lon="-0.25391">
        <ele>146</ele>
        <time>2012-09-14T12:11:36Z</time>
      </trkpt>
      <trkpt lat="46.64713" lon="-0.25384">
        <ele>146</ele>
        <time>2012-09-14T12:11:41Z</time>
      </trkpt>
      <trkpt lat="46.64718" lon="-0.25378">
        <ele>146</ele>
        <time>2012-09-14T12:11:47Z</time>
      </trkpt>
      <trkpt lat="46.64724" lon="-0.25373">
        <ele>146</ele>
        <time>2012-09-14T12:11:53Z</time>
      </trkpt>
      <trkpt lat="46.64729" lon="-0.25369">
        <ele>145</ele>
        <time>2012-09-14T12:11:58Z</time>
      </trkpt>
      <trkpt lat="46.64735" lon="-0.25366">
        <ele>145</ele>
        <time>2012-09-14T12:12:04Z</time>
      </trkpt>
      <trkpt lat="46.64741" lon="-0.25365">
        <ele>145</ele>
        <time>2012-09-14T12:12:11Z</time>
      </trkpt>
      <trkpt lat="46.64747" lon="-0.25364">
        <ele>144</ele>
        <time>2012-09-14T12:12:16Z</time>
      </trkpt>
      <trkpt lat="46.64753" lon="-0.25363">
        <ele>139</ele>
        <time>2012-09-14T12:12:22Z</time>
      </trkpt>
      <trkpt lat="46.64758" lon="-0.25365">
        <ele>139</ele>
        <time>2012-09-14T12:12:27Z</time>
      </trkpt>
      <trkpt lat="46.64763" lon="-0.25369">
        <ele>138</ele>
        <time>2012-09-14T12:12:33Z</time>
      </trkpt>
      <trkpt lat="46.64769" lon="-0.25374">
        <ele>138</ele>
        <time>2012-09-14T12:12:39Z</time>
      </trkpt>
      <trkpt lat="46.64771" lon="-0.25376">
        <ele>138</ele>
        <time>2012-09-14T12:12:45Z</time>
      </trkpt>
      <trkpt lat="46.64778" lon="-0.2538">
        <ele>138</ele>
        <time>2012-09-14T12:12:51Z</time>
      </trkpt>
      <trkpt lat="46.64783" lon="-0.25384">
        <ele>138</ele>
        <time>2012-09-14T12:12:56Z</time>
      </trkpt>
      <trkpt lat="46.64786" lon="-0.25387">
        <ele>137</ele>
        <time>2012-09-14T12:13:03Z</time>
      </trkpt>
      <trkpt lat="46.64787" lon="-0.2539">
        <ele>137</ele>
        <time>2012-09-14T12:13:09Z</time>
      </trkpt>
      <trkpt lat="46.64792" lon="-0.2539">
        <ele>137</ele>
        <time>2012-09-14T12:13:15Z</time>
      </trkpt>
      <trkpt lat="46.64796" lon="-0.25393">
        <ele>137</ele>
        <time>2012-09-14T12:13:21Z</time>
      </trkpt>
      <trkpt lat="46.64801" lon="-0.25397">
        <ele>137</ele>
        <time>2012-09-14T12:13:27Z</time>
      </trkpt>
      <trkpt lat="46.64806" lon="-0.25401">
        <ele>137</ele>
        <time>2012-09-14T12:13:33Z</time>
      </trkpt>
      <trkpt lat="46.64811" lon="-0.25405">
        <ele>137</ele>
        <time>2012-09-14T12:13:38Z</time>
      </trkpt>
      <trkpt lat="46.6482" lon="-0.25404">
        <ele>137</ele>
        <time>2012-09-14T12:13:46Z</time>
      </trkpt>
      <trkpt lat="46.64827" lon="-0.25397">
        <ele>137</ele>
        <time>2012-09-14T12:13:52Z</time>
      </trkpt>
      <trkpt lat="46.64832" lon="-0.25392">
        <ele>137</ele>
        <time>2012-09-14T12:13:58Z</time>
      </trkpt>
      <trkpt lat="46.64838" lon="-0.25392">
        <ele>136</ele>
        <time>2012-09-14T12:14:03Z</time>
      </trkpt>
      <trkpt lat="46.6484" lon="-0.25384">
        <ele>136</ele>
        <time>2012-09-14T12:14:08Z</time>
      </trkpt>
      <trkpt lat="46.64842" lon="-0.25375">
        <ele>136</ele>
        <time>2012-09-14T12:14:13Z</time>
      </trkpt>
      <trkpt lat="46.64842" lon="-0.25367">
        <ele>136</ele>
        <time>2012-09-14T12:14:18Z</time>
      </trkpt>
      <trkpt lat="46.64841" lon="-0.25359">
        <ele>136</ele>
        <time>2012-09-14T12:14:24Z</time>
      </trkpt>
      <trkpt lat="46.64843" lon="-0.25346">
        <ele>137</ele>
        <time>2012-09-14T12:14:31Z</time>
      </trkpt>
      <trkpt lat="46.64842" lon="-0.25346">
        <ele>137</ele>
        <time>2012-09-14T12:14:38Z</time>
      </trkpt>
      <trkpt lat="46.6484" lon="-0.25345">
        <ele>137</ele>
        <time>2012-09-14T12:14:45Z</time>
      </trkpt>
      <trkpt lat="46.64841" lon="-0.25338">
        <ele>137</ele>
        <time>2012-09-14T12:14:51Z</time>
      </trkpt>
      <trkpt lat="46.64841" lon="-0.25331">
        <ele>140</ele>
        <time>2012-09-14T12:14:57Z</time>
      </trkpt>
      <trkpt lat="46.64841" lon="-0.25323">
        <ele>141</ele>
        <time>2012-09-14T12:15:03Z</time>
      </trkpt>
      <trkpt lat="46.64841" lon="-0.25316">
        <ele>142</ele>
        <time>2012-09-14T12:15:09Z</time>
      </trkpt>
      <trkpt lat="46.64841" lon="-0.25313">
        <ele>142</ele>
        <time>2012-09-14T12:15:15Z</time>
      </trkpt>
      <trkpt lat="46.64842" lon="-0.25309">
        <ele>143</ele>
        <time>2012-09-14T12:15:21Z</time>
      </trkpt>
      <trkpt lat="46.64846" lon="-0.25303">
        <ele>144</ele>
        <time>2012-09-14T12:15:26Z</time>
      </trkpt>
      <trkpt lat="46.64851" lon="-0.253">
        <ele>144</ele>
        <time>2012-09-14T12:15:32Z</time>
      </trkpt>
      <trkpt lat="46.64856" lon="-0.25298">
        <ele>144</ele>
        <time>2012-09-14T12:15:38Z</time>
      </trkpt>
      <trkpt lat="46.64861" lon="-0.25294">
        <ele>145</ele>
        <time>2012-09-14T12:15:43Z</time>
      </trkpt>
      <trkpt lat="46.64865" lon="-0.25287">
        <ele>145</ele>
        <time>2012-09-14T12:15:48Z</time>
      </trkpt>
      <trkpt lat="46.6486" lon="-0.25282">
        <ele>146</ele>
        <time>2012-09-14T12:15:53Z</time>
      </trkpt>
      <trkpt lat="46.64852" lon="-0.2528">
        <ele>147</ele>
        <time>2012-09-14T12:15:58Z</time>
      </trkpt>
      <trkpt lat="46.64847" lon="-0.25278">
        <ele>147</ele>
        <time>2012-09-14T12:16:03Z</time>
      </trkpt>
      <trkpt lat="46.64841" lon="-0.25279">
        <ele>148</ele>
        <time>2012-09-14T12:16:08Z</time>
      </trkpt>
      <trkpt lat="46.64836" lon="-0.25281">
        <ele>147</ele>
        <time>2012-09-14T12:16:13Z</time>
      </trkpt>
      <trkpt lat="46.64831" lon="-0.25285">
        <ele>150</ele>
        <time>2012-09-14T12:16:18Z</time>
      </trkpt>
      <trkpt lat="46.64825" lon="-0.25288">
        <ele>149</ele>
        <time>2012-09-14T12:16:24Z</time>
      </trkpt>
      <trkpt lat="46.64819" lon="-0.2529">
        <ele>149</ele>
        <time>2012-09-14T12:16:30Z</time>
      </trkpt>
      <trkpt lat="46.64813" lon="-0.25293">
        <ele>148</ele>
        <time>2012-09-14T12:16:36Z</time>
      </trkpt>
      <trkpt lat="46.64813" lon="-0.25284">
        <ele>150</ele>
        <time>2012-09-14T12:16:48Z</time>
      </trkpt>
      <trkpt lat="46.64819" lon="-0.25283">
        <ele>150</ele>
        <time>2012-09-14T12:16:53Z</time>
      </trkpt>
      <trkpt lat="46.64821" lon="-0.25288">
        <ele>149</ele>
        <time>2012-09-14T12:17:01Z</time>
      </trkpt>
      <trkpt lat="46.64821" lon="-0.25282">
        <ele>150</ele>
        <time>2012-09-14T12:17:07Z</time>
      </trkpt>
      <trkpt lat="46.64821" lon="-0.25285">
        <ele>150</ele>
        <time>2012-09-14T12:17:12Z</time>
      </trkpt>
      <trkpt lat="46.64826" lon="-0.25286">
        <ele>149</ele>
        <time>2012-09-14T12:17:17Z</time>
      </trkpt>
      <trkpt lat="46.6483" lon="-0.25281">
        <ele>150</ele>
        <time>2012-09-14T12:17:24Z</time>
      </trkpt>
      <trkpt lat="46.64831" lon="-0.25277">
        <ele>151</ele>
        <time>2012-09-14T12:17:29Z</time>
      </trkpt>
      <trkpt lat="46.6483" lon="-0.25272">
        <ele>152</ele>
        <time>2012-09-14T12:17:34Z</time>
      </trkpt>
      <trkpt lat="46.64829" lon="-0.25271">
        <ele>152</ele>
        <time>2012-09-14T12:17:39Z</time>
      </trkpt>
      <trkpt lat="46.64824" lon="-0.25271">
        <ele>152</ele>
        <time>2012-09-14T12:17:44Z</time>
      </trkpt>
      <trkpt lat="46.64824" lon="-0.25268">
        <ele>152</ele>
        <time>2012-09-14T12:17:49Z</time>
      </trkpt>
      <trkpt lat="46.64826" lon="-0.25265">
        <ele>153</ele>
        <time>2012-09-14T12:17:54Z</time>
      </trkpt>
      <trkpt lat="46.64831" lon="-0.25264">
        <ele>153</ele>
        <time>2012-09-14T12:18:03Z</time>
      </trkpt>
      <trkpt lat="46.64833" lon="-0.25263">
        <ele>154</ele>
        <time>2012-09-14T12:18:08Z</time>
      </trkpt>
      <trkpt lat="46.64836" lon="-0.2526">
        <ele>153</ele>
        <time>2012-09-14T12:18:15Z</time>
      </trkpt>
      <trkpt lat="46.64836" lon="-0.25259">
        <ele>153</ele>
        <time>2012-09-14T12:18:20Z</time>
      </trkpt>
      <trkpt lat="46.64838" lon="-0.25253">
        <ele>155</ele>
        <time>2012-09-14T12:18:27Z</time>
      </trkpt>
      <trkpt lat="46.64834" lon="-0.25244">
        <ele>157</ele>
        <time>2012-09-14T12:18:50Z</time>
      </trkpt>
      <trkpt lat="46.64833" lon="-0.25255">
        <ele>156</ele>
        <time>2012-09-14T12:18:56Z</time>
      </trkpt>
      <trkpt lat="46.64834" lon="-0.2525">
        <ele>157</ele>
        <time>2012-09-14T12:19:01Z</time>
      </trkpt>
      <trkpt lat="46.64837" lon="-0.25247">
        <ele>157</ele>
        <time>2012-09-14T12:19:07Z</time>
      </trkpt>
      <trkpt lat="46.64846" lon="-0.25246">
        <ele>158</ele>
        <time>2012-09-14T12:19:15Z</time>
      </trkpt>
      <trkpt lat="46.64848" lon="-0.25236">
        <ele>158</ele>
        <time>2012-09-14T12:19:21Z</time>
      </trkpt>
      <trkpt lat="46.64847" lon="-0.25229">
        <ele>158</ele>
        <time>2012-09-14T12:19:26Z</time>
      </trkpt>
      <trkpt lat="46.6485" lon="-0.25221">
        <ele>159</ele>
        <time>2012-09-14T12:19:34Z</time>
      </trkpt>
      <trkpt lat="46.64848" lon="-0.25215">
        <ele>159</ele>
        <time>2012-09-14T12:19:41Z</time>
      </trkpt>
      <trkpt lat="46.64851" lon="-0.25213">
        <ele>159</ele>
        <time>2012-09-14T12:19:46Z</time>
      </trkpt>
      <trkpt lat="46.64853" lon="-0.25209">
        <ele>160</ele>
        <time>2012-09-14T12:19:52Z</time>
      </trkpt>
      <trkpt lat="46.64848" lon="-0.25196">
        <ele>161</ele>
        <time>2012-09-14T12:19:57Z</time>
      </trkpt>
      <trkpt lat="46.64849" lon="-0.2519">
        <ele>161</ele>
        <time>2012-09-14T12:20:04Z</time>
      </trkpt>
      <trkpt lat="46.64854" lon="-0.25193">
        <ele>161</ele>
        <time>2012-09-14T12:20:09Z</time>
      </trkpt>
      <trkpt lat="46.64861" lon="-0.25189">
        <ele>161</ele>
        <time>2012-09-14T12:20:14Z</time>
      </trkpt>
      <trkpt lat="46.64866" lon="-0.25191">
        <ele>160</ele>
        <time>2012-09-14T12:20:19Z</time>
      </trkpt>
      <trkpt lat="46.64873" lon="-0.25191">
        <ele>160</ele>
        <time>2012-09-14T12:20:24Z</time>
      </trkpt>
      <trkpt lat="46.6488" lon="-0.2519">
        <ele>160</ele>
        <time>2012-09-14T12:20:29Z</time>
      </trkpt>
      <trkpt lat="46.64886" lon="-0.25191">
        <ele>160</ele>
        <time>2012-09-14T12:20:34Z</time>
      </trkpt>
      <trkpt lat="46.64891" lon="-0.25191">
        <ele>159</ele>
        <time>2012-09-14T12:20:39Z</time>
      </trkpt>
      <trkpt lat="46.64899" lon="-0.25192">
        <ele>159</ele>
        <time>2012-09-14T12:20:45Z</time>
      </trkpt>
      <trkpt lat="46.64901" lon="-0.25189">
        <ele>160</ele>
        <time>2012-09-14T12:20:50Z</time>
      </trkpt>
      <trkpt lat="46.64904" lon="-0.25188">
        <ele>160</ele>
        <time>2012-09-14T12:20:55Z</time>
      </trkpt>
      <trkpt lat="46.64908" lon="-0.25189">
        <ele>160</ele>
        <time>2012-09-14T12:21:00Z</time>
      </trkpt>
      <trkpt lat="46.64879" lon="-0.252">
        <ele>159</ele>
        <time>2012-09-14T12:21:06Z</time>
      </trkpt>
      <trkpt lat="46.64872" lon="-0.25204">
        <ele>159</ele>
        <time>2012-09-14T12:21:13Z</time>
      </trkpt>
      <trkpt lat="46.64869" lon="-0.25212">
        <ele>159</ele>
        <time>2012-09-14T12:21:19Z</time>
      </trkpt>
      <trkpt lat="46.64866" lon="-0.25217">
        <ele>159</ele>
        <time>2012-09-14T12:21:25Z</time>
      </trkpt>
      <trkpt lat="46.64867" lon="-0.25213">
        <ele>159</ele>
        <time>2012-09-14T12:21:32Z</time>
      </trkpt>
      <trkpt lat="46.64869" lon="-0.2521">
        <ele>159</ele>
        <time>2012-09-14T12:21:38Z</time>
      </trkpt>
      <trkpt lat="46.64871" lon="-0.2521">
        <ele>159</ele>
        <time>2012-09-14T12:21:47Z</time>
      </trkpt>
      <trkpt lat="46.6487" lon="-0.25215">
        <ele>158</ele>
        <time>2012-09-14T12:21:55Z</time>
      </trkpt>
      <trkpt lat="46.64875" lon="-0.25202">
        <ele>159</ele>
        <time>2012-09-14T12:22:01Z</time>
      </trkpt>
      <trkpt lat="46.64872" lon="-0.25195">
        <ele>160</ele>
        <time>2012-09-14T12:22:06Z</time>
      </trkpt>
      <trkpt lat="46.64866" lon="-0.25193">
        <ele>160</ele>
        <time>2012-09-14T12:22:14Z</time>
      </trkpt>
      <trkpt lat="46.64864" lon="-0.25181">
        <ele>161</ele>
        <time>2012-09-14T12:22:19Z</time>
      </trkpt>
      <trkpt lat="46.6486" lon="-0.25177">
        <ele>162</ele>
        <time>2012-09-14T12:22:26Z</time>
      </trkpt>
      <trkpt lat="46.64852" lon="-0.25176">
        <ele>163</ele>
        <time>2012-09-14T12:22:31Z</time>
      </trkpt>
      <trkpt lat="46.64844" lon="-0.25174">
        <ele>164</ele>
        <time>2012-09-14T12:22:36Z</time>
      </trkpt>
      <trkpt lat="46.64837" lon="-0.25168">
        <ele>166</ele>
        <time>2012-09-14T12:22:42Z</time>
      </trkpt>
      <trkpt lat="46.6483" lon="-0.25164">
        <ele>167</ele>
        <time>2012-09-14T12:22:47Z</time>
      </trkpt>
      <trkpt lat="46.64828" lon="-0.2516">
        <ele>167</ele>
        <time>2012-09-14T12:22:52Z</time>
      </trkpt>
      <trkpt lat="46.64828" lon="-0.25152">
        <ele>167</ele>
        <time>2012-09-14T12:22:57Z</time>
      </trkpt>
      <trkpt lat="46.64825" lon="-0.25146">
        <ele>167</ele>
        <time>2012-09-14T12:23:02Z</time>
      </trkpt>
      <trkpt lat="46.64821" lon="-0.25139">
        <ele>167</ele>
        <time>2012-09-14T12:23:08Z</time>
      </trkpt>
      <trkpt lat="46.6482" lon="-0.25128">
        <ele>166</ele>
        <time>2012-09-14T12:23:14Z</time>
      </trkpt>
      <trkpt lat="46.6482" lon="-0.25118">
        <ele>166</ele>
        <time>2012-09-14T12:23:19Z</time>
      </trkpt>
      <trkpt lat="46.64817" lon="-0.25107">
        <ele>166</ele>
        <time>2012-09-14T12:23:25Z</time>
      </trkpt>
      <trkpt lat="46.64818" lon="-0.25098">
        <ele>165</ele>
        <time>2012-09-14T12:23:30Z</time>
      </trkpt>
      <trkpt lat="46.64818" lon="-0.25088">
        <ele>165</ele>
        <time>2012-09-14T12:23:35Z</time>
      </trkpt>
      <trkpt lat="46.64817" lon="-0.2508">
        <ele>165</ele>
        <time>2012-09-14T12:23:40Z</time>
      </trkpt>
      <trkpt lat="46.64816" lon="-0.25072">
        <ele>165</ele>
        <time>2012-09-14T12:23:45Z</time>
      </trkpt>
      <trkpt lat="46.64814" lon="-0.25066">
        <ele>166</ele>
        <time>2012-09-14T12:23:51Z</time>
      </trkpt>
      <trkpt lat="46.64815" lon="-0.25063">
        <ele>166</ele>
        <time>2012-09-14T12:23:57Z</time>
      </trkpt>
      <trkpt lat="46.64818" lon="-0.25059">
        <ele>166</ele>
        <time>2012-09-14T12:24:03Z</time>
      </trkpt>
      <trkpt lat="46.64822" lon="-0.25052">
        <ele>166</ele>
        <time>2012-09-14T12:24:08Z</time>
      </trkpt>
      <trkpt lat="46.64825" lon="-0.25045">
        <ele>166</ele>
        <time>2012-09-14T12:24:13Z</time>
      </trkpt>
      <trkpt lat="46.64826" lon="-0.25035">
        <ele>166</ele>
        <time>2012-09-14T12:24:18Z</time>
      </trkpt>
      <trkpt lat="46.6483" lon="-0.25024">
        <ele>166</ele>
        <time>2012-09-14T12:24:24Z</time>
      </trkpt>
      <trkpt lat="46.64834" lon="-0.25017">
        <ele>162</ele>
        <time>2012-09-14T12:24:30Z</time>
      </trkpt>
      <trkpt lat="46.64838" lon="-0.25012">
        <ele>162</ele>
        <time>2012-09-14T12:24:36Z</time>
      </trkpt>
      <trkpt lat="46.64845" lon="-0.25007">
        <ele>162</ele>
        <time>2012-09-14T12:24:42Z</time>
      </trkpt>
      <trkpt lat="46.64853" lon="-0.25006">
        <ele>161</ele>
        <time>2012-09-14T12:24:47Z</time>
      </trkpt>
      <trkpt lat="46.64861" lon="-0.25012">
        <ele>161</ele>
        <time>2012-09-14T12:24:53Z</time>
      </trkpt>
      <trkpt lat="46.64867" lon="-0.25023">
        <ele>160</ele>
        <time>2012-09-14T12:24:59Z</time>
      </trkpt>
      <trkpt lat="46.6487" lon="-0.2503">
        <ele>160</ele>
        <time>2012-09-14T12:25:05Z</time>
      </trkpt>
      <trkpt lat="46.64875" lon="-0.25036">
        <ele>160</ele>
        <time>2012-09-14T12:25:10Z</time>
      </trkpt>
      <trkpt lat="46.6488" lon="-0.2504">
        <ele>160</ele>
        <time>2012-09-14T12:25:16Z</time>
      </trkpt>
      <trkpt lat="46.64882" lon="-0.25043">
        <ele>159</ele>
        <time>2012-09-14T12:25:22Z</time>
      </trkpt>
      <trkpt lat="46.64888" lon="-0.25042">
        <ele>159</ele>
        <time>2012-09-14T12:25:27Z</time>
      </trkpt>
      <trkpt lat="46.64894" lon="-0.2504">
        <ele>159</ele>
        <time>2012-09-14T12:25:33Z</time>
      </trkpt>
      <trkpt lat="46.64899" lon="-0.25038">
        <ele>159</ele>
        <time>2012-09-14T12:25:39Z</time>
      </trkpt>
      <trkpt lat="46.64905" lon="-0.25036">
        <ele>158</ele>
        <time>2012-09-14T12:25:45Z</time>
      </trkpt>
      <trkpt lat="46.6491" lon="-0.25033">
        <ele>158</ele>
        <time>2012-09-14T12:25:50Z</time>
      </trkpt>
      <trkpt lat="46.64915" lon="-0.25035">
        <ele>158</ele>
        <time>2012-09-14T12:25:56Z</time>
      </trkpt>
      <trkpt lat="46.64921" lon="-0.25033">
        <ele>155</ele>
        <time>2012-09-14T12:26:02Z</time>
      </trkpt>
      <trkpt lat="46.64929" lon="-0.25031">
        <ele>155</ele>
        <time>2012-09-14T12:26:07Z</time>
      </trkpt>
      <trkpt lat="46.64935" lon="-0.25032">
        <ele>155</ele>
        <time>2012-09-14T12:26:13Z</time>
      </trkpt>
      <trkpt lat="46.64939" lon="-0.2503">
        <ele>155</ele>
        <time>2012-09-14T12:26:18Z</time>
      </trkpt>
      <trkpt lat="46.64944" lon="-0.25032">
        <ele>155</ele>
        <time>2012-09-14T12:26:24Z</time>
      </trkpt>
      <trkpt lat="46.6495" lon="-0.25028">
        <ele>154</ele>
        <time>2012-09-14T12:26:29Z</time>
      </trkpt>
      <trkpt lat="46.64955" lon="-0.25026">
        <ele>154</ele>
        <time>2012-09-14T12:26:34Z</time>
      </trkpt>
      <trkpt lat="46.64956" lon="-0.25028">
        <ele>154</ele>
        <time>2012-09-14T12:26:39Z</time>
      </trkpt>
      <trkpt lat="46.64957" lon="-0.25031">
        <ele>154</ele>
        <time>2012-09-14T12:26:45Z</time>
      </trkpt>
      <trkpt lat="46.64963" lon="-0.25028">
        <ele>154</ele>
        <time>2012-09-14T12:26:51Z</time>
      </trkpt>
      <trkpt lat="46.64968" lon="-0.25027">
        <ele>154</ele>
        <time>2012-09-14T12:26:57Z</time>
      </trkpt>
      <trkpt lat="46.64975" lon="-0.25022">
        <ele>153</ele>
        <time>2012-09-14T12:27:03Z</time>
      </trkpt>
      <trkpt lat="46.64979" lon="-0.25017">
        <ele>153</ele>
        <time>2012-09-14T12:27:09Z</time>
      </trkpt>
      <trkpt lat="46.64987" lon="-0.25018">
        <ele>153</ele>
        <time>2012-09-14T12:27:17Z</time>
      </trkpt>
      <trkpt lat="46.64991" lon="-0.25018">
        <ele>152</ele>
        <time>2012-09-14T12:27:24Z</time>
      </trkpt>
      <trkpt lat="46.64996" lon="-0.25017">
        <ele>152</ele>
        <time>2012-09-14T12:27:30Z</time>
      </trkpt>
      <trkpt lat="46.65001" lon="-0.25014">
        <ele>150</ele>
        <time>2012-09-14T12:27:35Z</time>
      </trkpt>
      <trkpt lat="46.65007" lon="-0.25011">
        <ele>150</ele>
        <time>2012-09-14T12:27:40Z</time>
      </trkpt>
      <trkpt lat="46.6501" lon="-0.25011">
        <ele>150</ele>
        <time>2012-09-14T12:27:45Z</time>
      </trkpt>
      <trkpt lat="46.65014" lon="-0.25009">
        <ele>150</ele>
        <time>2012-09-14T12:27:56Z</time>
      </trkpt>
      <trkpt lat="46.65015" lon="-0.25012">
        <ele>150</ele>
        <time>2012-09-14T12:28:02Z</time>
      </trkpt>
      <trkpt lat="46.65025" lon="-0.25007">
        <ele>150</ele>
        <time>2012-09-14T12:28:08Z</time>
      </trkpt>
      <trkpt lat="46.65028" lon="-0.25007">
        <ele>150</ele>
        <time>2012-09-14T12:28:13Z</time>
      </trkpt>
      <trkpt lat="46.65029" lon="-0.25006">
        <ele>150</ele>
        <time>2012-09-14T12:28:18Z</time>
      </trkpt>
      <trkpt lat="46.65042" lon="-0.25002">
        <ele>150</ele>
        <time>2012-09-14T12:28:26Z</time>
      </trkpt>
      <trkpt lat="46.65049" lon="-0.24999">
        <ele>148</ele>
        <time>2012-09-14T12:28:31Z</time>
      </trkpt>
      <trkpt lat="46.65053" lon="-0.24998">
        <ele>148</ele>
        <time>2012-09-14T12:28:38Z</time>
      </trkpt>
      <trkpt lat="46.65056" lon="-0.24996">
        <ele>148</ele>
        <time>2012-09-14T12:28:45Z</time>
      </trkpt>
      <trkpt lat="46.65061" lon="-0.24998">
        <ele>148</ele>
        <time>2012-09-14T12:28:51Z</time>
      </trkpt>
      <trkpt lat="46.65068" lon="-0.24996">
        <ele>147</ele>
        <time>2012-09-14T12:28:57Z</time>
      </trkpt>
      <trkpt lat="46.65071" lon="-0.24996">
        <ele>147</ele>
        <time>2012-09-14T12:29:02Z</time>
      </trkpt>
      <trkpt lat="46.65076" lon="-0.24998">
        <ele>146</ele>
        <time>2012-09-14T12:29:08Z</time>
      </trkpt>
      <trkpt lat="46.65077" lon="-0.24997">
        <ele>146</ele>
        <time>2012-09-14T12:29:14Z</time>
      </trkpt>
      <trkpt lat="46.65078" lon="-0.24994">
        <ele>146</ele>
        <time>2012-09-14T12:29:20Z</time>
      </trkpt>
      <trkpt lat="46.65081" lon="-0.24994">
        <ele>146</ele>
        <time>2012-09-14T12:29:26Z</time>
      </trkpt>
      <trkpt lat="46.65085" lon="-0.2499">
        <ele>144</ele>
        <time>2012-09-14T12:29:32Z</time>
      </trkpt>
      <trkpt lat="46.65091" lon="-0.24984">
        <ele>144</ele>
        <time>2012-09-14T12:29:38Z</time>
      </trkpt>
      <trkpt lat="46.65094" lon="-0.24978">
        <ele>143</ele>
        <time>2012-09-14T12:29:43Z</time>
      </trkpt>
      <trkpt lat="46.65098" lon="-0.24973">
        <ele>143</ele>
        <time>2012-09-14T12:29:49Z</time>
      </trkpt>
      <trkpt lat="46.65101" lon="-0.24973">
        <ele>143</ele>
        <time>2012-09-14T12:29:57Z</time>
      </trkpt>
      <trkpt lat="46.65104" lon="-0.24973">
        <ele>143</ele>
        <time>2012-09-14T12:30:04Z</time>
      </trkpt>
      <trkpt lat="46.65107" lon="-0.24971">
        <ele>143</ele>
        <time>2012-09-14T12:30:09Z</time>
      </trkpt>
      <trkpt lat="46.65108" lon="-0.2497">
        <ele>143</ele>
        <time>2012-09-14T12:30:15Z</time>
      </trkpt>
      <trkpt lat="46.65111" lon="-0.24967">
        <ele>142</ele>
        <time>2012-09-14T12:30:21Z</time>
      </trkpt>
      <trkpt lat="46.65115" lon="-0.24967">
        <ele>142</ele>
        <time>2012-09-14T12:30:28Z</time>
      </trkpt>
      <trkpt lat="46.65118" lon="-0.24968">
        <ele>142</ele>
        <time>2012-09-14T12:30:34Z</time>
      </trkpt>
      <trkpt lat="46.65121" lon="-0.24964">
        <ele>142</ele>
        <time>2012-09-14T12:30:39Z</time>
      </trkpt>
      <trkpt lat="46.65126" lon="-0.2496">
        <ele>142</ele>
        <time>2012-09-14T12:30:45Z</time>
      </trkpt>
      <trkpt lat="46.65131" lon="-0.2496">
        <ele>141</ele>
        <time>2012-09-14T12:30:51Z</time>
      </trkpt>
      <trkpt lat="46.65136" lon="-0.2496">
        <ele>141</ele>
        <time>2012-09-14T12:30:58Z</time>
      </trkpt>
      <trkpt lat="46.65139" lon="-0.24959">
        <ele>141</ele>
        <time>2012-09-14T12:31:03Z</time>
      </trkpt>
      <trkpt lat="46.65146" lon="-0.24959">
        <ele>140</ele>
        <time>2012-09-14T12:31:08Z</time>
      </trkpt>
      <trkpt lat="46.65152" lon="-0.24962">
        <ele>140</ele>
        <time>2012-09-14T12:31:14Z</time>
      </trkpt>
      <trkpt lat="46.65155" lon="-0.24961">
        <ele>140</ele>
        <time>2012-09-14T12:31:19Z</time>
      </trkpt>
      <trkpt lat="46.65161" lon="-0.24963">
        <ele>140</ele>
        <time>2012-09-14T12:31:25Z</time>
      </trkpt>
      <trkpt lat="46.65165" lon="-0.24959">
        <ele>140</ele>
        <time>2012-09-14T12:31:31Z</time>
      </trkpt>
      <trkpt lat="46.65169" lon="-0.2496">
        <ele>134</ele>
        <time>2012-09-14T12:31:36Z</time>
      </trkpt>
      <trkpt lat="46.65177" lon="-0.24959">
        <ele>134</ele>
        <time>2012-09-14T12:31:42Z</time>
      </trkpt>
      <trkpt lat="46.65183" lon="-0.24957">
        <ele>134</ele>
        <time>2012-09-14T12:31:48Z</time>
      </trkpt>
      <trkpt lat="46.65187" lon="-0.24951">
        <ele>134</ele>
        <time>2012-09-14T12:31:53Z</time>
      </trkpt>
      <trkpt lat="46.6519" lon="-0.24953">
        <ele>134</ele>
        <time>2012-09-14T12:31:58Z</time>
      </trkpt>
      <trkpt lat="46.65192" lon="-0.2495">
        <ele>134</ele>
        <time>2012-09-14T12:32:03Z</time>
      </trkpt>
      <trkpt lat="46.65198" lon="-0.24949">
        <ele>134</ele>
        <time>2012-09-14T12:32:08Z</time>
      </trkpt>
      <trkpt lat="46.65204" lon="-0.24945">
        <ele>134</ele>
        <time>2012-09-14T12:32:14Z</time>
      </trkpt>
      <trkpt lat="46.65209" lon="-0.24938">
        <ele>134</ele>
        <time>2012-09-14T12:32:20Z</time>
      </trkpt>
      <trkpt lat="46.65212" lon="-0.24936">
        <ele>133</ele>
        <time>2012-09-14T12:32:26Z</time>
      </trkpt>
      <trkpt lat="46.6522" lon="-0.24936">
        <ele>133</ele>
        <time>2012-09-14T12:32:32Z</time>
      </trkpt>
      <trkpt lat="46.65222" lon="-0.24935">
        <ele>133</ele>
        <time>2012-09-14T12:32:37Z</time>
      </trkpt>
      <trkpt lat="46.65231" lon="-0.24935">
        <ele>133</ele>
        <time>2012-09-14T12:32:43Z</time>
      </trkpt>
      <trkpt lat="46.65232" lon="-0.24934">
        <ele>133</ele>
        <time>2012-09-14T12:32:48Z</time>
      </trkpt>
      <trkpt lat="46.65242" lon="-0.24933">
        <ele>132</ele>
        <time>2012-09-14T12:32:58Z</time>
      </trkpt>
      <trkpt lat="46.6524" lon="-0.24924">
        <ele>132</ele>
        <time>2012-09-14T12:33:08Z</time>
      </trkpt>
      <trkpt lat="46.65251" lon="-0.24926">
        <ele>132</ele>
        <time>2012-09-14T12:33:19Z</time>
      </trkpt>
      <trkpt lat="46.65257" lon="-0.24925">
        <ele>132</ele>
        <time>2012-09-14T12:33:25Z</time>
      </trkpt>
      <trkpt lat="46.65262" lon="-0.24923">
        <ele>133</ele>
        <time>2012-09-14T12:33:31Z</time>
      </trkpt>
      <trkpt lat="46.65267" lon="-0.24919">
        <ele>133</ele>
        <time>2012-09-14T12:33:36Z</time>
      </trkpt>
      <trkpt lat="46.65272" lon="-0.24918">
        <ele>133</ele>
        <time>2012-09-14T12:33:42Z</time>
      </trkpt>
      <trkpt lat="46.65278" lon="-0.24917">
        <ele>134</ele>
        <time>2012-09-14T12:33:47Z</time>
      </trkpt>
      <trkpt lat="46.65285" lon="-0.24914">
        <ele>134</ele>
        <time>2012-09-14T12:33:53Z</time>
      </trkpt>
      <trkpt lat="46.65288" lon="-0.24911">
        <ele>135</ele>
        <time>2012-09-14T12:34:00Z</time>
      </trkpt>
      <trkpt lat="46.65291" lon="-0.24914">
        <ele>135</ele>
        <time>2012-09-14T12:34:05Z</time>
      </trkpt>
      <trkpt lat="46.65297" lon="-0.24919">
        <ele>135</ele>
        <time>2012-09-14T12:34:11Z</time>
      </trkpt>
      <trkpt lat="46.65298" lon="-0.24925">
        <ele>135</ele>
        <time>2012-09-14T12:34:16Z</time>
      </trkpt>
      <trkpt lat="46.65297" lon="-0.24932">
        <ele>135</ele>
        <time>2012-09-14T12:34:21Z</time>
      </trkpt>
      <trkpt lat="46.65301" lon="-0.24938">
        <ele>136</ele>
        <time>2012-09-14T12:34:26Z</time>
      </trkpt>
      <trkpt lat="46.65304" lon="-0.24944">
        <ele>136</ele>
        <time>2012-09-14T12:34:31Z</time>
      </trkpt>
      <trkpt lat="46.65308" lon="-0.24951">
        <ele>136</ele>
        <time>2012-09-14T12:34:37Z</time>
      </trkpt>
      <trkpt lat="46.65311" lon="-0.24958">
        <ele>136</ele>
        <time>2012-09-14T12:34:42Z</time>
      </trkpt>
      <trkpt lat="46.65316" lon="-0.2496">
        <ele>136</ele>
        <time>2012-09-14T12:34:48Z</time>
      </trkpt>
      <trkpt lat="46.65321" lon="-0.24955">
        <ele>136</ele>
        <time>2012-09-14T12:34:54Z</time>
      </trkpt>
      <trkpt lat="46.65327" lon="-0.24951">
        <ele>136</ele>
        <time>2012-09-14T12:34:59Z</time>
      </trkpt>
      <trkpt lat="46.65332" lon="-0.24947">
        <ele>137</ele>
        <time>2012-09-14T12:35:04Z</time>
      </trkpt>
      <trkpt lat="46.65339" lon="-0.24946">
        <ele>141</ele>
        <time>2012-09-14T12:35:09Z</time>
      </trkpt>
      <trkpt lat="46.65343" lon="-0.24951">
        <ele>141</ele>
        <time>2012-09-14T12:35:14Z</time>
      </trkpt>
      <trkpt lat="46.65349" lon="-0.24956">
        <ele>141</ele>
        <time>2012-09-14T12:35:20Z</time>
      </trkpt>
      <trkpt lat="46.65353" lon="-0.24958">
        <ele>141</ele>
        <time>2012-09-14T12:35:26Z</time>
      </trkpt>
      <trkpt lat="46.65357" lon="-0.24965">
        <ele>142</ele>
        <time>2012-09-14T12:35:32Z</time>
      </trkpt>
      <trkpt lat="46.65363" lon="-0.24967">
        <ele>142</ele>
        <time>2012-09-14T12:35:38Z</time>
      </trkpt>
      <trkpt lat="46.65368" lon="-0.24962">
        <ele>142</ele>
        <time>2012-09-14T12:35:44Z</time>
      </trkpt>
      <trkpt lat="46.65371" lon="-0.24953">
        <ele>142</ele>
        <time>2012-09-14T12:35:49Z</time>
      </trkpt>
      <trkpt lat="46.65374" lon="-0.24946">
        <ele>142</ele>
        <time>2012-09-14T12:35:54Z</time>
      </trkpt>
      <trkpt lat="46.65378" lon="-0.24937">
        <ele>142</ele>
        <time>2012-09-14T12:36:00Z</time>
      </trkpt>
      <trkpt lat="46.65383" lon="-0.24929">
        <ele>142</ele>
        <time>2012-09-14T12:36:06Z</time>
      </trkpt>
      <trkpt lat="46.65387" lon="-0.24924">
        <ele>142</ele>
        <time>2012-09-14T12:36:11Z</time>
      </trkpt>
      <trkpt lat="46.65392" lon="-0.24916">
        <ele>141</ele>
        <time>2012-09-14T12:36:16Z</time>
      </trkpt>
      <trkpt lat="46.65396" lon="-0.24909">
        <ele>141</ele>
        <time>2012-09-14T12:36:21Z</time>
      </trkpt>
      <trkpt lat="46.65401" lon="-0.24902">
        <ele>141</ele>
        <time>2012-09-14T12:36:27Z</time>
      </trkpt>
      <trkpt lat="46.65405" lon="-0.24895">
        <ele>141</ele>
        <time>2012-09-14T12:36:33Z</time>
      </trkpt>
      <trkpt lat="46.65409" lon="-0.24889">
        <ele>141</ele>
        <time>2012-09-14T12:36:38Z</time>
      </trkpt>
      <trkpt lat="46.65416" lon="-0.24882">
        <ele>141</ele>
        <time>2012-09-14T12:36:44Z</time>
      </trkpt>
      <trkpt lat="46.65421" lon="-0.24875">
        <ele>142</ele>
        <time>2012-09-14T12:36:50Z</time>
      </trkpt>
      <trkpt lat="46.65425" lon="-0.24868">
        <ele>142</ele>
        <time>2012-09-14T12:36:56Z</time>
      </trkpt>
      <trkpt lat="46.6543" lon="-0.24863">
        <ele>142</ele>
        <time>2012-09-14T12:37:01Z</time>
      </trkpt>
      <trkpt lat="46.65434" lon="-0.24857">
        <ele>142</ele>
        <time>2012-09-14T12:37:07Z</time>
      </trkpt>
      <trkpt lat="46.6544" lon="-0.24851">
        <ele>142</ele>
        <time>2012-09-14T12:37:13Z</time>
      </trkpt>
      <trkpt lat="46.65444" lon="-0.24844">
        <ele>142</ele>
        <time>2012-09-14T12:37:18Z</time>
      </trkpt>
      <trkpt lat="46.65448" lon="-0.24839">
        <ele>142</ele>
        <time>2012-09-14T12:37:23Z</time>
      </trkpt>
      <trkpt lat="46.65452" lon="-0.2483">
        <ele>140</ele>
        <time>2012-09-14T12:37:28Z</time>
      </trkpt>
      <trkpt lat="46.65456" lon="-0.24825">
        <ele>140</ele>
        <time>2012-09-14T12:37:35Z</time>
      </trkpt>
      <trkpt lat="46.65455" lon="-0.24823">
        <ele>140</ele>
        <time>2012-09-14T12:37:41Z</time>
      </trkpt>
      <trkpt lat="46.65459" lon="-0.24818">
        <ele>140</ele>
        <time>2012-09-14T12:37:49Z</time>
      </trkpt>
      <trkpt lat="46.65463" lon="-0.24821">
        <ele>140</ele>
        <time>2012-09-14T12:37:56Z</time>
      </trkpt>
      <trkpt lat="46.65465" lon="-0.24814">
        <ele>140</ele>
        <time>2012-09-14T12:38:03Z</time>
      </trkpt>
      <trkpt lat="46.65463" lon="-0.24807">
        <ele>139</ele>
        <time>2012-09-14T12:38:08Z</time>
      </trkpt>
      <trkpt lat="46.65462" lon="-0.24799">
        <ele>139</ele>
        <time>2012-09-14T12:38:14Z</time>
      </trkpt>
      <trkpt lat="46.65466" lon="-0.24792">
        <ele>139</ele>
        <time>2012-09-14T12:38:19Z</time>
      </trkpt>
      <trkpt lat="46.65469" lon="-0.24785">
        <ele>139</ele>
        <time>2012-09-14T12:38:24Z</time>
      </trkpt>
      <trkpt lat="46.65472" lon="-0.24779">
        <ele>139</ele>
        <time>2012-09-14T12:38:29Z</time>
      </trkpt>
      <trkpt lat="46.65473" lon="-0.24774">
        <ele>139</ele>
        <time>2012-09-14T12:38:34Z</time>
      </trkpt>
      <trkpt lat="46.65476" lon="-0.24766">
        <ele>139</ele>
        <time>2012-09-14T12:38:39Z</time>
      </trkpt>
      <trkpt lat="46.65478" lon="-0.24757">
        <ele>138</ele>
        <time>2012-09-14T12:38:45Z</time>
      </trkpt>
      <trkpt lat="46.65478" lon="-0.2475">
        <ele>136</ele>
        <time>2012-09-14T12:38:50Z</time>
      </trkpt>
      <trkpt lat="46.65481" lon="-0.24741">
        <ele>136</ele>
        <time>2012-09-14T12:38:55Z</time>
      </trkpt>
      <trkpt lat="46.65481" lon="-0.24732">
        <ele>136</ele>
        <time>2012-09-14T12:39:00Z</time>
      </trkpt>
      <trkpt lat="46.65484" lon="-0.24724">
        <ele>136</ele>
        <time>2012-09-14T12:39:05Z</time>
      </trkpt>
      <trkpt lat="46.65486" lon="-0.24715">
        <ele>136</ele>
        <time>2012-09-14T12:39:11Z</time>
      </trkpt>
      <trkpt lat="46.65489" lon="-0.24709">
        <ele>136</ele>
        <time>2012-09-14T12:39:16Z</time>
      </trkpt>
      <trkpt lat="46.65495" lon="-0.24703">
        <ele>135</ele>
        <time>2012-09-14T12:39:21Z</time>
      </trkpt>
      <trkpt lat="46.65499" lon="-0.24695">
        <ele>135</ele>
        <time>2012-09-14T12:39:26Z</time>
      </trkpt>
      <trkpt lat="46.65503" lon="-0.24686">
        <ele>137</ele>
        <time>2012-09-14T12:39:32Z</time>
      </trkpt>
      <trkpt lat="46.65507" lon="-0.24679">
        <ele>137</ele>
        <time>2012-09-14T12:39:38Z</time>
      </trkpt>
      <trkpt lat="46.65511" lon="-0.24675">
        <ele>137</ele>
        <time>2012-09-14T12:39:43Z</time>
      </trkpt>
      <trkpt lat="46.65518" lon="-0.24669">
        <ele>137</ele>
        <time>2012-09-14T12:39:49Z</time>
      </trkpt>
      <trkpt lat="46.65524" lon="-0.24665">
        <ele>137</ele>
        <time>2012-09-14T12:39:55Z</time>
      </trkpt>
      <trkpt lat="46.65528" lon="-0.24662">
        <ele>137</ele>
        <time>2012-09-14T12:40:00Z</time>
      </trkpt>
      <trkpt lat="46.65533" lon="-0.24657">
        <ele>138</ele>
        <time>2012-09-14T12:40:06Z</time>
      </trkpt>
      <trkpt lat="46.65539" lon="-0.24653">
        <ele>138</ele>
        <time>2012-09-14T12:40:11Z</time>
      </trkpt>
      <trkpt lat="46.65545" lon="-0.2465">
        <ele>138</ele>
        <time>2012-09-14T12:40:16Z</time>
      </trkpt>
      <trkpt lat="46.65552" lon="-0.24643">
        <ele>139</ele>
        <time>2012-09-14T12:40:22Z</time>
      </trkpt>
      <trkpt lat="46.65559" lon="-0.24636">
        <ele>139</ele>
        <time>2012-09-14T12:40:27Z</time>
      </trkpt>
      <trkpt lat="46.65562" lon="-0.24628">
        <ele>138</ele>
        <time>2012-09-14T12:40:32Z</time>
      </trkpt>
      <trkpt lat="46.65568" lon="-0.24619">
        <ele>138</ele>
        <time>2012-09-14T12:40:37Z</time>
      </trkpt>
      <trkpt lat="46.65575" lon="-0.24606">
        <ele>138</ele>
        <time>2012-09-14T12:40:42Z</time>
      </trkpt>
      <trkpt lat="46.65579" lon="-0.24597">
        <ele>137</ele>
        <time>2012-09-14T12:40:47Z</time>
      </trkpt>
      <trkpt lat="46.65586" lon="-0.24593">
        <ele>139</ele>
        <time>2012-09-14T12:40:52Z</time>
      </trkpt>
      <trkpt lat="46.65584" lon="-0.24591">
        <ele>138</ele>
        <time>2012-09-14T12:40:59Z</time>
      </trkpt>
      <trkpt lat="46.65581" lon="-0.24586">
        <ele>136</ele>
        <time>2012-09-14T12:41:06Z</time>
      </trkpt>
      <trkpt lat="46.65581" lon="-0.24579">
        <ele>136</ele>
        <time>2012-09-14T12:41:12Z</time>
      </trkpt>
      <trkpt lat="46.65581" lon="-0.24573">
        <ele>137</ele>
        <time>2012-09-14T12:41:18Z</time>
      </trkpt>
      <trkpt lat="46.6558" lon="-0.24564">
        <ele>137</ele>
        <time>2012-09-14T12:41:27Z</time>
      </trkpt>
      <trkpt lat="46.65578" lon="-0.24561">
        <ele>137</ele>
        <time>2012-09-14T12:41:33Z</time>
      </trkpt>
      <trkpt lat="46.65574" lon="-0.2456">
        <ele>137</ele>
        <time>2012-09-14T12:41:40Z</time>
      </trkpt>
      <trkpt lat="46.65571" lon="-0.24558">
        <ele>138</ele>
        <time>2012-09-14T12:41:49Z</time>
      </trkpt>
      <trkpt lat="46.65568" lon="-0.24555">
        <ele>138</ele>
        <time>2012-09-14T12:41:55Z</time>
      </trkpt>
      <trkpt lat="46.65568" lon="-0.24558">
        <ele>138</ele>
        <time>2012-09-14T12:42:15Z</time>
      </trkpt>
      <trkpt lat="46.65575" lon="-0.24559">
        <ele>137</ele>
        <time>2012-09-14T12:42:24Z</time>
      </trkpt>
      <trkpt lat="46.65573" lon="-0.24562">
        <ele>137</ele>
        <time>2012-09-14T12:42:30Z</time>
      </trkpt>
      <trkpt lat="46.65582" lon="-0.24572">
        <ele>137</ele>
        <time>2012-09-14T12:42:36Z</time>
      </trkpt>
      <trkpt lat="46.65591" lon="-0.2457">
        <ele>137</ele>
        <time>2012-09-14T12:42:41Z</time>
      </trkpt>
      <trkpt lat="46.65598" lon="-0.24563">
        <ele>138</ele>
        <time>2012-09-14T12:42:46Z</time>
      </trkpt>
      <trkpt lat="46.65601" lon="-0.24556">
        <ele>138</ele>
        <time>2012-09-14T12:42:51Z</time>
      </trkpt>
      <trkpt lat="46.65604" lon="-0.24548">
        <ele>138</ele>
        <time>2012-09-14T12:42:56Z</time>
      </trkpt>
      <trkpt lat="46.65608" lon="-0.24538">
        <ele>138</ele>
        <time>2012-09-14T12:43:01Z</time>
      </trkpt>
      <trkpt lat="46.65615" lon="-0.24532">
        <ele>138</ele>
        <time>2012-09-14T12:43:07Z</time>
      </trkpt>
      <trkpt lat="46.65618" lon="-0.24525">
        <ele>138</ele>
        <time>2012-09-14T12:43:12Z</time>
      </trkpt>
      <trkpt lat="46.65621" lon="-0.24515">
        <ele>138</ele>
        <time>2012-09-14T12:43:17Z</time>
      </trkpt>
      <trkpt lat="46.65625" lon="-0.24505">
        <ele>138</ele>
        <time>2012-09-14T12:43:22Z</time>
      </trkpt>
      <trkpt lat="46.65627" lon="-0.24497">
        <ele>136</ele>
        <time>2012-09-14T12:43:27Z</time>
      </trkpt>
      <trkpt lat="46.6563" lon="-0.24489">
        <ele>136</ele>
        <time>2012-09-14T12:43:32Z</time>
      </trkpt>
      <trkpt lat="46.65633" lon="-0.24478">
        <ele>136</ele>
        <time>2012-09-14T12:43:37Z</time>
      </trkpt>
      <trkpt lat="46.65637" lon="-0.24469">
        <ele>135</ele>
        <time>2012-09-14T12:43:42Z</time>
      </trkpt>
      <trkpt lat="46.65642" lon="-0.24462">
        <ele>135</ele>
        <time>2012-09-14T12:43:47Z</time>
      </trkpt>
      <trkpt lat="46.65648" lon="-0.24453">
        <ele>135</ele>
        <time>2012-09-14T12:43:53Z</time>
      </trkpt>
      <trkpt lat="46.65652" lon="-0.24446">
        <ele>135</ele>
        <time>2012-09-14T12:43:58Z</time>
      </trkpt>
      <trkpt lat="46.65656" lon="-0.2444">
        <ele>134</ele>
        <time>2012-09-14T12:44:03Z</time>
      </trkpt>
      <trkpt lat="46.6566" lon="-0.24433">
        <ele>133</ele>
        <time>2012-09-14T12:44:08Z</time>
      </trkpt>
      <trkpt lat="46.65665" lon="-0.24428">
        <ele>133</ele>
        <time>2012-09-14T12:44:13Z</time>
      </trkpt>
      <trkpt lat="46.65671" lon="-0.24427">
        <ele>134</ele>
        <time>2012-09-14T12:44:18Z</time>
      </trkpt>
      <trkpt lat="46.65677" lon="-0.24425">
        <ele>135</ele>
        <time>2012-09-14T12:44:23Z</time>
      </trkpt>
      <trkpt lat="46.65683" lon="-0.24421">
        <ele>135</ele>
        <time>2012-09-14T12:44:29Z</time>
      </trkpt>
      <trkpt lat="46.65687" lon="-0.24415">
        <ele>134</ele>
        <time>2012-09-14T12:44:35Z</time>
      </trkpt>
      <trkpt lat="46.65691" lon="-0.24409">
        <ele>135</ele>
        <time>2012-09-14T12:44:40Z</time>
      </trkpt>
      <trkpt lat="46.65695" lon="-0.24401">
        <ele>135</ele>
        <time>2012-09-14T12:44:45Z</time>
      </trkpt>
      <trkpt lat="46.65699" lon="-0.24394">
        <ele>135</ele>
        <time>2012-09-14T12:44:50Z</time>
      </trkpt>
      <trkpt lat="46.65702" lon="-0.24387">
        <ele>136</ele>
        <time>2012-09-14T12:44:56Z</time>
      </trkpt>
      <trkpt lat="46.65705" lon="-0.2438">
        <ele>136</ele>
        <time>2012-09-14T12:45:01Z</time>
      </trkpt>
      <trkpt lat="46.65709" lon="-0.24372">
        <ele>136</ele>
        <time>2012-09-14T12:45:06Z</time>
      </trkpt>
      <trkpt lat="46.65711" lon="-0.24368">
        <ele>136</ele>
        <time>2012-09-14T12:45:12Z</time>
      </trkpt>
      <trkpt lat="46.65714" lon="-0.2436">
        <ele>136</ele>
        <time>2012-09-14T12:45:18Z</time>
      </trkpt>
      <trkpt lat="46.65717" lon="-0.24354">
        <ele>136</ele>
        <time>2012-09-14T12:45:23Z</time>
      </trkpt>
      <trkpt lat="46.6572" lon="-0.24345">
        <ele>136</ele>
        <time>2012-09-14T12:45:29Z</time>
      </trkpt>
      <trkpt lat="46.65725" lon="-0.24338">
        <ele>137</ele>
        <time>2012-09-14T12:45:35Z</time>
      </trkpt>
      <trkpt lat="46.65726" lon="-0.24334">
        <ele>137</ele>
        <time>2012-09-14T12:45:40Z</time>
      </trkpt>
      <trkpt lat="46.65729" lon="-0.24328">
        <ele>136</ele>
        <time>2012-09-14T12:45:46Z</time>
      </trkpt>
      <trkpt lat="46.65732" lon="-0.24321">
        <ele>136</ele>
        <time>2012-09-14T12:45:51Z</time>
      </trkpt>
      <trkpt lat="46.65735" lon="-0.24313">
        <ele>136</ele>
        <time>2012-09-14T12:45:56Z</time>
      </trkpt>
      <trkpt lat="46.65737" lon="-0.24305">
        <ele>136</ele>
        <time>2012-09-14T12:46:01Z</time>
      </trkpt>
      <trkpt lat="46.65738" lon="-0.24296">
        <ele>136</ele>
        <time>2012-09-14T12:46:06Z</time>
      </trkpt>
      <trkpt lat="46.65739" lon="-0.24289">
        <ele>136</ele>
        <time>2012-09-14T12:46:11Z</time>
      </trkpt>
      <trkpt lat="46.65742" lon="-0.24282">
        <ele>136</ele>
        <time>2012-09-14T12:46:17Z</time>
      </trkpt>
      <trkpt lat="46.65743" lon="-0.24274">
        <ele>136</ele>
        <time>2012-09-14T12:46:22Z</time>
      </trkpt>
      <trkpt lat="46.65745" lon="-0.24267">
        <ele>136</ele>
        <time>2012-09-14T12:46:27Z</time>
      </trkpt>
      <trkpt lat="46.65749" lon="-0.24261">
        <ele>136</ele>
        <time>2012-09-14T12:46:32Z</time>
      </trkpt>
      <trkpt lat="46.65753" lon="-0.24251">
        <ele>137</ele>
        <time>2012-09-14T12:46:38Z</time>
      </trkpt>
      <trkpt lat="46.65753" lon="-0.24245">
        <ele>137</ele>
        <time>2012-09-14T12:46:43Z</time>
      </trkpt>
      <trkpt lat="46.65752" lon="-0.24237">
        <ele>138</ele>
        <time>2012-09-14T12:46:48Z</time>
      </trkpt>
      <trkpt lat="46.65749" lon="-0.2423">
        <ele>135</ele>
        <time>2012-09-14T12:46:53Z</time>
      </trkpt>
      <trkpt lat="46.6575" lon="-0.24222">
        <ele>134</ele>
        <time>2012-09-14T12:46:58Z</time>
      </trkpt>
      <trkpt lat="46.65752" lon="-0.24212">
        <ele>139</ele>
        <time>2012-09-14T12:47:04Z</time>
      </trkpt>
      <trkpt lat="46.65753" lon="-0.24205">
        <ele>139</ele>
        <time>2012-09-14T12:47:09Z</time>
      </trkpt>
      <trkpt lat="46.65755" lon="-0.24199">
        <ele>139</ele>
        <time>2012-09-14T12:47:14Z</time>
      </trkpt>
      <trkpt lat="46.65761" lon="-0.24194">
        <ele>139</ele>
        <time>2012-09-14T12:47:19Z</time>
      </trkpt>
      <trkpt lat="46.65765" lon="-0.24188">
        <ele>139</ele>
        <time>2012-09-14T12:47:25Z</time>
      </trkpt>
      <trkpt lat="46.65767" lon="-0.2418">
        <ele>139</ele>
        <time>2012-09-14T12:47:30Z</time>
      </trkpt>
      <trkpt lat="46.65769" lon="-0.24172">
        <ele>138</ele>
        <time>2012-09-14T12:47:35Z</time>
      </trkpt>
      <trkpt lat="46.6577" lon="-0.24163">
        <ele>138</ele>
        <time>2012-09-14T12:47:40Z</time>
      </trkpt>
      <trkpt lat="46.65772" lon="-0.24155">
        <ele>138</ele>
        <time>2012-09-14T12:47:45Z</time>
      </trkpt>
      <trkpt lat="46.65773" lon="-0.24147">
        <ele>138</ele>
        <time>2012-09-14T12:47:50Z</time>
      </trkpt>
      <trkpt lat="46.65774" lon="-0.24139">
        <ele>138</ele>
        <time>2012-09-14T12:47:55Z</time>
      </trkpt>
      <trkpt lat="46.65775" lon="-0.2413">
        <ele>139</ele>
        <time>2012-09-14T12:48:00Z</time>
      </trkpt>
      <trkpt lat="46.65776" lon="-0.2412">
        <ele>139</ele>
        <time>2012-09-14T12:48:05Z</time>
      </trkpt>
      <trkpt lat="46.65777" lon="-0.24111">
        <ele>138</ele>
        <time>2012-09-14T12:48:10Z</time>
      </trkpt>
      <trkpt lat="46.65778" lon="-0.24099">
        <ele>138</ele>
        <time>2012-09-14T12:48:16Z</time>
      </trkpt>
      <trkpt lat="46.65778" lon="-0.24089">
        <ele>138</ele>
        <time>2012-09-14T12:48:21Z</time>
      </trkpt>
      <trkpt lat="46.65778" lon="-0.24079">
        <ele>137</ele>
        <time>2012-09-14T12:48:26Z</time>
      </trkpt>
      <trkpt lat="46.65777" lon="-0.24069">
        <ele>137</ele>
        <time>2012-09-14T12:48:31Z</time>
      </trkpt>
      <trkpt lat="46.65777" lon="-0.24059">
        <ele>137</ele>
        <time>2012-09-14T12:48:36Z</time>
      </trkpt>
      <trkpt lat="46.65779" lon="-0.24049">
        <ele>137</ele>
        <time>2012-09-14T12:48:41Z</time>
      </trkpt>
      <trkpt lat="46.6578" lon="-0.24039">
        <ele>137</ele>
        <time>2012-09-14T12:48:46Z</time>
      </trkpt>
      <trkpt lat="46.65782" lon="-0.24029">
        <ele>137</ele>
        <time>2012-09-14T12:48:51Z</time>
      </trkpt>
      <trkpt lat="46.65783" lon="-0.2402">
        <ele>136</ele>
        <time>2012-09-14T12:48:56Z</time>
      </trkpt>
      <trkpt lat="46.65784" lon="-0.2401">
        <ele>136</ele>
        <time>2012-09-14T12:49:01Z</time>
      </trkpt>
      <trkpt lat="46.65786" lon="-0.24">
        <ele>136</ele>
        <time>2012-09-14T12:49:06Z</time>
      </trkpt>
      <trkpt lat="46.65788" lon="-0.23992">
        <ele>135</ele>
        <time>2012-09-14T12:49:11Z</time>
      </trkpt>
      <trkpt lat="46.65789" lon="-0.23984">
        <ele>135</ele>
        <time>2012-09-14T12:49:16Z</time>
      </trkpt>
      <trkpt lat="46.65787" lon="-0.23978">
        <ele>135</ele>
        <time>2012-09-14T12:49:21Z</time>
      </trkpt>
      <trkpt lat="46.65779" lon="-0.2398">
        <ele>134</ele>
        <time>2012-09-14T12:49:26Z</time>
      </trkpt>
      <trkpt lat="46.65776" lon="-0.23988">
        <ele>134</ele>
        <time>2012-09-14T12:49:32Z</time>
      </trkpt>
      <trkpt lat="46.65773" lon="-0.23996">
        <ele>134</ele>
        <time>2012-09-14T12:49:37Z</time>
      </trkpt>
      <trkpt lat="46.6577" lon="-0.24004">
        <ele>135</ele>
        <time>2012-09-14T12:49:42Z</time>
      </trkpt>
      <trkpt lat="46.65767" lon="-0.24012">
        <ele>135</ele>
        <time>2012-09-14T12:49:47Z</time>
      </trkpt>
      <trkpt lat="46.65767" lon="-0.24017">
        <ele>135</ele>
        <time>2012-09-14T12:49:55Z</time>
      </trkpt>
      <trkpt lat="46.65766" lon="-0.24021">
        <ele>135</ele>
        <time>2012-09-14T12:50:02Z</time>
      </trkpt>
      <trkpt lat="46.65763" lon="-0.24021">
        <ele>135</ele>
        <time>2012-09-14T12:50:08Z</time>
      </trkpt>
      <trkpt lat="46.65764" lon="-0.24031">
        <ele>136</ele>
        <time>2012-09-14T12:50:13Z</time>
      </trkpt>
      <trkpt lat="46.65764" lon="-0.24037">
        <ele>136</ele>
        <time>2012-09-14T12:50:19Z</time>
      </trkpt>
      <trkpt lat="46.65764" lon="-0.24045">
        <ele>136</ele>
        <time>2012-09-14T12:50:25Z</time>
      </trkpt>
      <trkpt lat="46.65766" lon="-0.24053">
        <ele>136</ele>
        <time>2012-09-14T12:50:30Z</time>
      </trkpt>
      <trkpt lat="46.65766" lon="-0.2406">
        <ele>136</ele>
        <time>2012-09-14T12:50:36Z</time>
      </trkpt>
      <trkpt lat="46.65766" lon="-0.24066">
        <ele>136</ele>
        <time>2012-09-14T12:50:41Z</time>
      </trkpt>
      <trkpt lat="46.65765" lon="-0.24074">
        <ele>135</ele>
        <time>2012-09-14T12:50:46Z</time>
      </trkpt>
      <trkpt lat="46.65765" lon="-0.24082">
        <ele>135</ele>
        <time>2012-09-14T12:50:51Z</time>
      </trkpt>
      <trkpt lat="46.65767" lon="-0.24088">
        <ele>136</ele>
        <time>2012-09-14T12:50:57Z</time>
      </trkpt>
      <trkpt lat="46.65769" lon="-0.24095">
        <ele>137</ele>
        <time>2012-09-14T12:51:03Z</time>
      </trkpt>
      <trkpt lat="46.65769" lon="-0.24102">
        <ele>137</ele>
        <time>2012-09-14T12:51:09Z</time>
      </trkpt>
      <trkpt lat="46.65767" lon="-0.2411">
        <ele>138</ele>
        <time>2012-09-14T12:51:15Z</time>
      </trkpt>
      <trkpt lat="46.65766" lon="-0.24117">
        <ele>138</ele>
        <time>2012-09-14T12:51:20Z</time>
      </trkpt>
      <trkpt lat="46.65763" lon="-0.24122">
        <ele>138</ele>
        <time>2012-09-14T12:51:26Z</time>
      </trkpt>
      <trkpt lat="46.65758" lon="-0.24124">
        <ele>138</ele>
        <time>2012-09-14T12:51:31Z</time>
      </trkpt>
      <trkpt lat="46.65754" lon="-0.24126">
        <ele>137</ele>
        <time>2012-09-14T12:51:37Z</time>
      </trkpt>
      <trkpt lat="46.65749" lon="-0.24127">
        <ele>132</ele>
        <time>2012-09-14T12:51:42Z</time>
      </trkpt>
      <trkpt lat="46.65745" lon="-0.24124">
        <ele>132</ele>
        <time>2012-09-14T12:51:48Z</time>
      </trkpt>
      <trkpt lat="46.65743" lon="-0.24117">
        <ele>132</ele>
        <time>2012-09-14T12:51:53Z</time>
      </trkpt>
      <trkpt lat="46.65743" lon="-0.2411">
        <ele>132</ele>
        <time>2012-09-14T12:51:58Z</time>
      </trkpt>
      <trkpt lat="46.65744" lon="-0.24102">
        <ele>132</ele>
        <time>2012-09-14T12:52:03Z</time>
      </trkpt>
      <trkpt lat="46.65746" lon="-0.24094">
        <ele>133</ele>
        <time>2012-09-14T12:52:08Z</time>
      </trkpt>
      <trkpt lat="46.65747" lon="-0.24085">
        <ele>133</ele>
        <time>2012-09-14T12:52:13Z</time>
      </trkpt>
      <trkpt lat="46.65748" lon="-0.24076">
        <ele>133</ele>
        <time>2012-09-14T12:52:18Z</time>
      </trkpt>
      <trkpt lat="46.65749" lon="-0.24068">
        <ele>132</ele>
        <time>2012-09-14T12:52:23Z</time>
      </trkpt>
      <trkpt lat="46.65752" lon="-0.2406">
        <ele>135</ele>
        <time>2012-09-14T12:52:28Z</time>
      </trkpt>
      <trkpt lat="46.65753" lon="-0.24051">
        <ele>136</ele>
        <time>2012-09-14T12:52:33Z</time>
      </trkpt>
      <trkpt lat="46.65753" lon="-0.24042">
        <ele>135</ele>
        <time>2012-09-14T12:52:38Z</time>
      </trkpt>
      <trkpt lat="46.65752" lon="-0.24033">
        <ele>135</ele>
        <time>2012-09-14T12:52:43Z</time>
      </trkpt>
      <trkpt lat="46.65752" lon="-0.24024">
        <ele>135</ele>
        <time>2012-09-14T12:52:48Z</time>
      </trkpt>
      <trkpt lat="46.65752" lon="-0.24018">
        <ele>134</ele>
        <time>2012-09-14T12:52:53Z</time>
      </trkpt>
      <trkpt lat="46.6575" lon="-0.2401">
        <ele>133</ele>
        <time>2012-09-14T12:52:59Z</time>
      </trkpt>
      <trkpt lat="46.65747" lon="-0.24003">
        <ele>131</ele>
        <time>2012-09-14T12:53:04Z</time>
      </trkpt>
      <trkpt lat="46.65744" lon="-0.23997">
        <ele>131</ele>
        <time>2012-09-14T12:53:09Z</time>
      </trkpt>
      <trkpt lat="46.65741" lon="-0.23989">
        <ele>132</ele>
        <time>2012-09-14T12:53:14Z</time>
      </trkpt>
      <trkpt lat="46.65738" lon="-0.23982">
        <ele>132</ele>
        <time>2012-09-14T12:53:19Z</time>
      </trkpt>
      <trkpt lat="46.65736" lon="-0.2398">
        <ele>132</ele>
        <time>2012-09-14T12:53:24Z</time>
      </trkpt>
      <trkpt lat="46.65735" lon="-0.2397">
        <ele>132</ele>
        <time>2012-09-14T12:53:29Z</time>
      </trkpt>
      <trkpt lat="46.65736" lon="-0.23956">
        <ele>132</ele>
        <time>2012-09-14T12:53:34Z</time>
      </trkpt>
      <trkpt lat="46.65742" lon="-0.23951">
        <ele>132</ele>
        <time>2012-09-14T12:53:39Z</time>
      </trkpt>
      <trkpt lat="46.65747" lon="-0.23946">
        <ele>132</ele>
        <time>2012-09-14T12:53:44Z</time>
      </trkpt>
      <trkpt lat="46.6575" lon="-0.2394">
        <ele>132</ele>
        <time>2012-09-14T12:53:49Z</time>
      </trkpt>
      <trkpt lat="46.65749" lon="-0.23935">
        <ele>131</ele>
        <time>2012-09-14T12:53:54Z</time>
      </trkpt>
      <trkpt lat="46.65743" lon="-0.23935">
        <ele>132</ele>
        <time>2012-09-14T12:53:59Z</time>
      </trkpt>
      <trkpt lat="46.65739" lon="-0.23934">
        <ele>132</ele>
        <time>2012-09-14T12:54:04Z</time>
      </trkpt>
      <trkpt lat="46.65733" lon="-0.23933">
        <ele>132</ele>
        <time>2012-09-14T12:54:10Z</time>
      </trkpt>
      <trkpt lat="46.65728" lon="-0.23931">
        <ele>132</ele>
        <time>2012-09-14T12:54:16Z</time>
      </trkpt>
      <trkpt lat="46.65721" lon="-0.2393">
        <ele>132</ele>
        <time>2012-09-14T12:54:21Z</time>
      </trkpt>
      <trkpt lat="46.65716" lon="-0.23928">
        <ele>133</ele>
        <time>2012-09-14T12:54:26Z</time>
      </trkpt>
      <trkpt lat="46.65708" lon="-0.23922">
        <ele>133</ele>
        <time>2012-09-14T12:54:31Z</time>
      </trkpt>
      <trkpt lat="46.65704" lon="-0.23918">
        <ele>134</ele>
        <time>2012-09-14T12:54:36Z</time>
      </trkpt>
      <trkpt lat="46.65699" lon="-0.23914">
        <ele>136</ele>
        <time>2012-09-14T12:54:41Z</time>
      </trkpt>
      <trkpt lat="46.65694" lon="-0.23911">
        <ele>137</ele>
        <time>2012-09-14T12:54:46Z</time>
      </trkpt>
      <trkpt lat="46.65687" lon="-0.23908">
        <ele>137</ele>
        <time>2012-09-14T12:54:51Z</time>
      </trkpt>
      <trkpt lat="46.65684" lon="-0.23903">
        <ele>137</ele>
        <time>2012-09-14T12:54:57Z</time>
      </trkpt>
      <trkpt lat="46.65683" lon="-0.23899">
        <ele>137</ele>
        <time>2012-09-14T12:55:04Z</time>
      </trkpt>
      <trkpt lat="46.65686" lon="-0.2389">
        <ele>137</ele>
        <time>2012-09-14T12:55:12Z</time>
      </trkpt>
      <trkpt lat="46.65684" lon="-0.23879">
        <ele>138</ele>
        <time>2012-09-14T12:55:19Z</time>
      </trkpt>
      <trkpt lat="46.65684" lon="-0.23873">
        <ele>138</ele>
        <time>2012-09-14T12:55:24Z</time>
      </trkpt>
      <trkpt lat="46.6569" lon="-0.23858">
        <ele>139</ele>
        <time>2012-09-14T12:55:37Z</time>
      </trkpt>
      <trkpt lat="46.65688" lon="-0.23849">
        <ele>140</ele>
        <time>2012-09-14T12:55:43Z</time>
      </trkpt>
      <trkpt lat="46.65685" lon="-0.23844">
        <ele>141</ele>
        <time>2012-09-14T12:55:48Z</time>
      </trkpt>
      <trkpt lat="46.65683" lon="-0.23835">
        <ele>142</ele>
        <time>2012-09-14T12:55:54Z</time>
      </trkpt>
      <trkpt lat="46.65678" lon="-0.23829">
        <ele>145</ele>
        <time>2012-09-14T12:56:00Z</time>
      </trkpt>
      <trkpt lat="46.65678" lon="-0.23824">
        <ele>145</ele>
        <time>2012-09-14T12:56:06Z</time>
      </trkpt>
      <trkpt lat="46.65677" lon="-0.23818">
        <ele>145</ele>
        <time>2012-09-14T12:56:12Z</time>
      </trkpt>
      <trkpt lat="46.65678" lon="-0.23813">
        <ele>145</ele>
        <time>2012-09-14T12:56:17Z</time>
      </trkpt>
      <trkpt lat="46.65678" lon="-0.23805">
        <ele>145</ele>
        <time>2012-09-14T12:56:23Z</time>
      </trkpt>
      <trkpt lat="46.65677" lon="-0.23799">
        <ele>145</ele>
        <time>2012-09-14T12:56:29Z</time>
      </trkpt>
      <trkpt lat="46.65677" lon="-0.23795">
        <ele>145</ele>
        <time>2012-09-14T12:56:34Z</time>
      </trkpt>
      <trkpt lat="46.65677" lon="-0.23788">
        <ele>146</ele>
        <time>2012-09-14T12:56:39Z</time>
      </trkpt>
      <trkpt lat="46.65677" lon="-0.23781">
        <ele>146</ele>
        <time>2012-09-14T12:56:44Z</time>
      </trkpt>
      <trkpt lat="46.65678" lon="-0.23774">
        <ele>147</ele>
        <time>2012-09-14T12:56:50Z</time>
      </trkpt>
      <trkpt lat="46.65678" lon="-0.23768">
        <ele>148</ele>
        <time>2012-09-14T12:56:56Z</time>
      </trkpt>
      <trkpt lat="46.6568" lon="-0.23761">
        <ele>149</ele>
        <time>2012-09-14T12:57:02Z</time>
      </trkpt>
      <trkpt lat="46.65682" lon="-0.23754">
        <ele>149</ele>
        <time>2012-09-14T12:57:07Z</time>
      </trkpt>
      <trkpt lat="46.65684" lon="-0.23747">
        <ele>151</ele>
        <time>2012-09-14T12:57:12Z</time>
      </trkpt>
      <trkpt lat="46.65689" lon="-0.23738">
        <ele>151</ele>
        <time>2012-09-14T12:57:17Z</time>
      </trkpt>
      <trkpt lat="46.65691" lon="-0.23732">
        <ele>150</ele>
        <time>2012-09-14T12:57:23Z</time>
      </trkpt>
      <trkpt lat="46.65693" lon="-0.23724">
        <ele>150</ele>
        <time>2012-09-14T12:57:29Z</time>
      </trkpt>
      <trkpt lat="46.65694" lon="-0.23716">
        <ele>150</ele>
        <time>2012-09-14T12:57:34Z</time>
      </trkpt>
      <trkpt lat="46.65694" lon="-0.23708">
        <ele>150</ele>
        <time>2012-09-14T12:57:39Z</time>
      </trkpt>
      <trkpt lat="46.65696" lon="-0.23698">
        <ele>150</ele>
        <time>2012-09-14T12:57:45Z</time>
      </trkpt>
      <trkpt lat="46.65699" lon="-0.2369">
        <ele>150</ele>
        <time>2012-09-14T12:57:50Z</time>
      </trkpt>
      <trkpt lat="46.65701" lon="-0.23681">
        <ele>150</ele>
        <time>2012-09-14T12:57:55Z</time>
      </trkpt>
      <trkpt lat="46.65702" lon="-0.23672">
        <ele>150</ele>
        <time>2012-09-14T12:58:01Z</time>
      </trkpt>
      <trkpt lat="46.65703" lon="-0.23663">
        <ele>152</ele>
        <time>2012-09-14T12:58:06Z</time>
      </trkpt>
      <trkpt lat="46.65706" lon="-0.23654">
        <ele>152</ele>
        <time>2012-09-14T12:58:11Z</time>
      </trkpt>
      <trkpt lat="46.65705" lon="-0.23646">
        <ele>152</ele>
        <time>2012-09-14T12:58:17Z</time>
      </trkpt>
      <trkpt lat="46.65703" lon="-0.23644">
        <ele>152</ele>
        <time>2012-09-14T12:58:22Z</time>
      </trkpt>
      <trkpt lat="46.65709" lon="-0.23637">
        <ele>151</ele>
        <time>2012-09-14T12:58:27Z</time>
      </trkpt>
      <trkpt lat="46.6571" lon="-0.23634">
        <ele>151</ele>
        <time>2012-09-14T12:58:32Z</time>
      </trkpt>
      <trkpt lat="46.6571" lon="-0.2363">
        <ele>151</ele>
        <time>2012-09-14T12:58:39Z</time>
      </trkpt>
      <trkpt lat="46.65714" lon="-0.2362">
        <ele>151</ele>
        <time>2012-09-14T12:58:49Z</time>
      </trkpt>
      <trkpt lat="46.65714" lon="-0.23612">
        <ele>151</ele>
        <time>2012-09-14T12:58:55Z</time>
      </trkpt>
      <trkpt lat="46.65712" lon="-0.23604">
        <ele>151</ele>
        <time>2012-09-14T12:59:01Z</time>
      </trkpt>
      <trkpt lat="46.65715" lon="-0.23597">
        <ele>150</ele>
        <time>2012-09-14T12:59:06Z</time>
      </trkpt>
      <trkpt lat="46.65717" lon="-0.2359">
        <ele>150</ele>
        <time>2012-09-14T12:59:11Z</time>
      </trkpt>
      <trkpt lat="46.6572" lon="-0.23585">
        <ele>150</ele>
        <time>2012-09-14T12:59:16Z</time>
      </trkpt>
      <trkpt lat="46.65719" lon="-0.23577">
        <ele>150</ele>
        <time>2012-09-14T12:59:22Z</time>
      </trkpt>
      <trkpt lat="46.65718" lon="-0.2357">
        <ele>150</ele>
        <time>2012-09-14T12:59:27Z</time>
      </trkpt>
      <trkpt lat="46.65718" lon="-0.23562">
        <ele>150</ele>
        <time>2012-09-14T12:59:33Z</time>
      </trkpt>
      <trkpt lat="46.65718" lon="-0.23555">
        <ele>150</ele>
        <time>2012-09-14T12:59:38Z</time>
      </trkpt>
      <trkpt lat="46.65715" lon="-0.23547">
        <ele>151</ele>
        <time>2012-09-14T12:59:44Z</time>
      </trkpt>
      <trkpt lat="46.65714" lon="-0.23539">
        <ele>151</ele>
        <time>2012-09-14T12:59:50Z</time>
      </trkpt>
      <trkpt lat="46.65714" lon="-0.2353">
        <ele>151</ele>
        <time>2012-09-14T12:59:55Z</time>
      </trkpt>
      <trkpt lat="46.65714" lon="-0.23521">
        <ele>151</ele>
        <time>2012-09-14T13:00:00Z</time>
      </trkpt>
      <trkpt lat="46.65717" lon="-0.23513">
        <ele>150</ele>
        <time>2012-09-14T13:00:05Z</time>
      </trkpt>
      <trkpt lat="46.65719" lon="-0.23504">
        <ele>149</ele>
        <time>2012-09-14T13:00:10Z</time>
      </trkpt>
      <trkpt lat="46.65716" lon="-0.23496">
        <ele>150</ele>
        <time>2012-09-14T13:00:15Z</time>
      </trkpt>
      <trkpt lat="46.65711" lon="-0.2349">
        <ele>151</ele>
        <time>2012-09-14T13:00:20Z</time>
      </trkpt>
      <trkpt lat="46.65708" lon="-0.23481">
        <ele>152</ele>
        <time>2012-09-14T13:00:27Z</time>
      </trkpt>
      <trkpt lat="46.65705" lon="-0.23474">
        <ele>152</ele>
        <time>2012-09-14T13:00:32Z</time>
      </trkpt>
      <trkpt lat="46.65699" lon="-0.23466">
        <ele>153</ele>
        <time>2012-09-14T13:00:37Z</time>
      </trkpt>
      <trkpt lat="46.65695" lon="-0.23456">
        <ele>153</ele>
        <time>2012-09-14T13:00:42Z</time>
      </trkpt>
      <trkpt lat="46.65695" lon="-0.23446">
        <ele>154</ele>
        <time>2012-09-14T13:00:48Z</time>
      </trkpt>
      <trkpt lat="46.65691" lon="-0.23439">
        <ele>155</ele>
        <time>2012-09-14T13:00:54Z</time>
      </trkpt>
      <trkpt lat="46.65688" lon="-0.23434">
        <ele>155</ele>
        <time>2012-09-14T13:01:00Z</time>
      </trkpt>
      <trkpt lat="46.65683" lon="-0.2343">
        <ele>157</ele>
        <time>2012-09-14T13:01:05Z</time>
      </trkpt>
      <trkpt lat="46.6568" lon="-0.23423">
        <ele>158</ele>
        <time>2012-09-14T13:01:12Z</time>
      </trkpt>
      <trkpt lat="46.65677" lon="-0.23416">
        <ele>159</ele>
        <time>2012-09-14T13:01:19Z</time>
      </trkpt>
      <trkpt lat="46.65674" lon="-0.2341">
        <ele>159</ele>
        <time>2012-09-14T13:01:26Z</time>
      </trkpt>
      <trkpt lat="46.65672" lon="-0.23404">
        <ele>158</ele>
        <time>2012-09-14T13:01:32Z</time>
      </trkpt>
      <trkpt lat="46.65671" lon="-0.23399">
        <ele>157</ele>
        <time>2012-09-14T13:01:37Z</time>
      </trkpt>
      <trkpt lat="46.65669" lon="-0.23391">
        <ele>156</ele>
        <time>2012-09-14T13:01:44Z</time>
      </trkpt>
      <trkpt lat="46.65669" lon="-0.23383">
        <ele>155</ele>
        <time>2012-09-14T13:01:49Z</time>
      </trkpt>
      <trkpt lat="46.65669" lon="-0.23374">
        <ele>155</ele>
        <time>2012-09-14T13:01:54Z</time>
      </trkpt>
      <trkpt lat="46.65669" lon="-0.23365">
        <ele>155</ele>
        <time>2012-09-14T13:01:59Z</time>
      </trkpt>
      <trkpt lat="46.65665" lon="-0.23357">
        <ele>162</ele>
        <time>2012-09-14T13:02:05Z</time>
      </trkpt>
      <trkpt lat="46.65662" lon="-0.23349">
        <ele>162</ele>
        <time>2012-09-14T13:02:10Z</time>
      </trkpt>
      <trkpt lat="46.65661" lon="-0.2334">
        <ele>162</ele>
        <time>2012-09-14T13:02:16Z</time>
      </trkpt>
      <trkpt lat="46.65659" lon="-0.23333">
        <ele>160</ele>
        <time>2012-09-14T13:02:21Z</time>
      </trkpt>
      <trkpt lat="46.65658" lon="-0.23325">
        <ele>160</ele>
        <time>2012-09-14T13:02:26Z</time>
      </trkpt>
      <trkpt lat="46.65655" lon="-0.23315">
        <ele>158</ele>
        <time>2012-09-14T13:02:31Z</time>
      </trkpt>
      <trkpt lat="46.65651" lon="-0.23306">
        <ele>157</ele>
        <time>2012-09-14T13:02:37Z</time>
      </trkpt>
      <trkpt lat="46.65649" lon="-0.23298">
        <ele>157</ele>
        <time>2012-09-14T13:02:42Z</time>
      </trkpt>
      <trkpt lat="46.65648" lon="-0.2329">
        <ele>156</ele>
        <time>2012-09-14T13:02:47Z</time>
      </trkpt>
      <trkpt lat="46.65642" lon="-0.23288">
        <ele>156</ele>
        <time>2012-09-14T13:02:53Z</time>
      </trkpt>
      <trkpt lat="46.65636" lon="-0.2329">
        <ele>156</ele>
        <time>2012-09-14T13:02:58Z</time>
      </trkpt>
      <trkpt lat="46.6563" lon="-0.23293">
        <ele>156</ele>
        <time>2012-09-14T13:03:03Z</time>
      </trkpt>
      <trkpt lat="46.65624" lon="-0.23295">
        <ele>156</ele>
        <time>2012-09-14T13:03:09Z</time>
      </trkpt>
      <trkpt lat="46.65618" lon="-0.23298">
        <ele>156</ele>
        <time>2012-09-14T13:03:14Z</time>
      </trkpt>
      <trkpt lat="46.6561" lon="-0.23301">
        <ele>157</ele>
        <time>2012-09-14T13:03:20Z</time>
      </trkpt>
      <trkpt lat="46.65604" lon="-0.23304">
        <ele>157</ele>
        <time>2012-09-14T13:03:25Z</time>
      </trkpt>
      <trkpt lat="46.65598" lon="-0.23306">
        <ele>157</ele>
        <time>2012-09-14T13:03:30Z</time>
      </trkpt>
      <trkpt lat="46.65591" lon="-0.23304">
        <ele>157</ele>
        <time>2012-09-14T13:03:35Z</time>
      </trkpt>
      <trkpt lat="46.65584" lon="-0.23302">
        <ele>157</ele>
        <time>2012-09-14T13:03:41Z</time>
      </trkpt>
      <trkpt lat="46.65577" lon="-0.23302">
        <ele>155</ele>
        <time>2012-09-14T13:03:47Z</time>
      </trkpt>
      <trkpt lat="46.65569" lon="-0.23307">
        <ele>155</ele>
        <time>2012-09-14T13:03:54Z</time>
      </trkpt>
      <trkpt lat="46.65561" lon="-0.23314">
        <ele>155</ele>
        <time>2012-09-14T13:04:01Z</time>
      </trkpt>
      <trkpt lat="46.65555" lon="-0.23317">
        <ele>155</ele>
        <time>2012-09-14T13:04:06Z</time>
      </trkpt>
      <trkpt lat="46.65548" lon="-0.23318">
        <ele>155</ele>
        <time>2012-09-14T13:04:12Z</time>
      </trkpt>
      <trkpt lat="46.65542" lon="-0.2332">
        <ele>154</ele>
        <time>2012-09-14T13:04:17Z</time>
      </trkpt>
      <trkpt lat="46.65536" lon="-0.23324">
        <ele>154</ele>
        <time>2012-09-14T13:04:22Z</time>
      </trkpt>
      <trkpt lat="46.6553" lon="-0.23329">
        <ele>154</ele>
        <time>2012-09-14T13:04:28Z</time>
      </trkpt>
      <trkpt lat="46.65528" lon="-0.23337">
        <ele>156</ele>
        <time>2012-09-14T13:04:33Z</time>
      </trkpt>
      <trkpt lat="46.65522" lon="-0.23345">
        <ele>156</ele>
        <time>2012-09-14T13:04:39Z</time>
      </trkpt>
      <trkpt lat="46.65515" lon="-0.23352">
        <ele>155</ele>
        <time>2012-09-14T13:04:46Z</time>
      </trkpt>
      <trkpt lat="46.6551" lon="-0.23359">
        <ele>156</ele>
        <time>2012-09-14T13:04:51Z</time>
      </trkpt>
      <trkpt lat="46.65505" lon="-0.23362">
        <ele>156</ele>
        <time>2012-09-14T13:04:57Z</time>
      </trkpt>
      <trkpt lat="46.65499" lon="-0.2336">
        <ele>154</ele>
        <time>2012-09-14T13:05:02Z</time>
      </trkpt>
      <trkpt lat="46.65495" lon="-0.23365">
        <ele>154</ele>
        <time>2012-09-14T13:05:07Z</time>
      </trkpt>
      <trkpt lat="46.65493" lon="-0.23374">
        <ele>154</ele>
        <time>2012-09-14T13:05:12Z</time>
      </trkpt>
      <trkpt lat="46.65491" lon="-0.23381">
        <ele>154</ele>
        <time>2012-09-14T13:05:17Z</time>
      </trkpt>
      <trkpt lat="46.65487" lon="-0.23389">
        <ele>155</ele>
        <time>2012-09-14T13:05:23Z</time>
      </trkpt>
      <trkpt lat="46.65481" lon="-0.23392">
        <ele>155</ele>
        <time>2012-09-14T13:05:28Z</time>
      </trkpt>
      <trkpt lat="46.65476" lon="-0.23391">
        <ele>155</ele>
        <time>2012-09-14T13:05:33Z</time>
      </trkpt>
      <trkpt lat="46.65469" lon="-0.23395">
        <ele>154</ele>
        <time>2012-09-14T13:05:39Z</time>
      </trkpt>
      <trkpt lat="46.65464" lon="-0.234">
        <ele>154</ele>
        <time>2012-09-14T13:05:44Z</time>
      </trkpt>
      <trkpt lat="46.65461" lon="-0.23408">
        <ele>154</ele>
        <time>2012-09-14T13:05:50Z</time>
      </trkpt>
      <trkpt lat="46.65456" lon="-0.23415">
        <ele>154</ele>
        <time>2012-09-14T13:05:55Z</time>
      </trkpt>
      <trkpt lat="46.65454" lon="-0.23422">
        <ele>155</ele>
        <time>2012-09-14T13:06:00Z</time>
      </trkpt>
      <trkpt lat="46.6545" lon="-0.23428">
        <ele>155</ele>
        <time>2012-09-14T13:06:05Z</time>
      </trkpt>
      <trkpt lat="46.65447" lon="-0.23435">
        <ele>155</ele>
        <time>2012-09-14T13:06:10Z</time>
      </trkpt>
      <trkpt lat="46.65446" lon="-0.23444">
        <ele>155</ele>
        <time>2012-09-14T13:06:16Z</time>
      </trkpt>
      <trkpt lat="46.65448" lon="-0.23451">
        <ele>155</ele>
        <time>2012-09-14T13:06:21Z</time>
      </trkpt>
      <trkpt lat="46.65449" lon="-0.23459">
        <ele>156</ele>
        <time>2012-09-14T13:06:27Z</time>
      </trkpt>
      <trkpt lat="46.65444" lon="-0.23465">
        <ele>156</ele>
        <time>2012-09-14T13:06:33Z</time>
      </trkpt>
      <trkpt lat="46.65437" lon="-0.23468">
        <ele>155</ele>
        <time>2012-09-14T13:06:38Z</time>
      </trkpt>
      <trkpt lat="46.65431" lon="-0.2347">
        <ele>155</ele>
        <time>2012-09-14T13:06:43Z</time>
      </trkpt>
      <trkpt lat="46.65424" lon="-0.23469">
        <ele>155</ele>
        <time>2012-09-14T13:06:49Z</time>
      </trkpt>
      <trkpt lat="46.65418" lon="-0.23465">
        <ele>155</ele>
        <time>2012-09-14T13:06:55Z</time>
      </trkpt>
      <trkpt lat="46.65414" lon="-0.23463">
        <ele>153</ele>
        <time>2012-09-14T13:07:02Z</time>
      </trkpt>
      <trkpt lat="46.65411" lon="-0.2347">
        <ele>153</ele>
        <time>2012-09-14T13:07:09Z</time>
      </trkpt>
      <trkpt lat="46.65411" lon="-0.2348">
        <ele>154</ele>
        <time>2012-09-14T13:07:14Z</time>
      </trkpt>
      <trkpt lat="46.65413" lon="-0.23491">
        <ele>154</ele>
        <time>2012-09-14T13:07:20Z</time>
      </trkpt>
      <trkpt lat="46.65414" lon="-0.235">
        <ele>155</ele>
        <time>2012-09-14T13:07:25Z</time>
      </trkpt>
      <trkpt lat="46.65414" lon="-0.23509">
        <ele>155</ele>
        <time>2012-09-14T13:07:30Z</time>
      </trkpt>
      <trkpt lat="46.65414" lon="-0.23517">
        <ele>154</ele>
        <time>2012-09-14T13:07:35Z</time>
      </trkpt>
      <trkpt lat="46.65418" lon="-0.2352">
        <ele>156</ele>
        <time>2012-09-14T13:07:40Z</time>
      </trkpt>
      <trkpt lat="46.65423" lon="-0.23516">
        <ele>156</ele>
        <time>2012-09-14T13:07:45Z</time>
      </trkpt>
      <trkpt lat="46.65428" lon="-0.23513">
        <ele>156</ele>
        <time>2012-09-14T13:07:50Z</time>
      </trkpt>
      <trkpt lat="46.65434" lon="-0.23511">
        <ele>156</ele>
        <time>2012-09-14T13:07:55Z</time>
      </trkpt>
      <trkpt lat="46.65441" lon="-0.23509">
        <ele>156</ele>
        <time>2012-09-14T13:08:00Z</time>
      </trkpt>
      <trkpt lat="46.65447" lon="-0.23508">
        <ele>156</ele>
        <time>2012-09-14T13:08:06Z</time>
      </trkpt>
      <trkpt lat="46.65453" lon="-0.23506">
        <ele>156</ele>
        <time>2012-09-14T13:08:11Z</time>
      </trkpt>
      <trkpt lat="46.6546" lon="-0.23505">
        <ele>156</ele>
        <time>2012-09-14T13:08:16Z</time>
      </trkpt>
      <trkpt lat="46.65468" lon="-0.23507">
        <ele>157</ele>
        <time>2012-09-14T13:08:22Z</time>
      </trkpt>
      <trkpt lat="46.65474" lon="-0.2351">
        <ele>157</ele>
        <time>2012-09-14T13:08:27Z</time>
      </trkpt>
      <trkpt lat="46.65478" lon="-0.23517">
        <ele>157</ele>
        <time>2012-09-14T13:08:32Z</time>
      </trkpt>
      <trkpt lat="46.6548" lon="-0.23525">
        <ele>157</ele>
        <time>2012-09-14T13:08:37Z</time>
      </trkpt>
      <trkpt lat="46.65484" lon="-0.23532">
        <ele>157</ele>
        <time>2012-09-14T13:08:42Z</time>
      </trkpt>
      <trkpt lat="46.65487" lon="-0.23541">
        <ele>157</ele>
        <time>2012-09-14T13:08:47Z</time>
      </trkpt>
      <trkpt lat="46.6549" lon="-0.2355">
        <ele>157</ele>
        <time>2012-09-14T13:08:52Z</time>
      </trkpt>
      <trkpt lat="46.65494" lon="-0.23557">
        <ele>157</ele>
        <time>2012-09-14T13:08:57Z</time>
      </trkpt>
      <trkpt lat="46.65497" lon="-0.23566">
        <ele>157</ele>
        <time>2012-09-14T13:09:02Z</time>
      </trkpt>
      <trkpt lat="46.65502" lon="-0.23574">
        <ele>157</ele>
        <time>2012-09-14T13:09:08Z</time>
      </trkpt>
      <trkpt lat="46.65505" lon="-0.23582">
        <ele>157</ele>
        <time>2012-09-14T13:09:13Z</time>
      </trkpt>
      <trkpt lat="46.65508" lon="-0.23591">
        <ele>157</ele>
        <time>2012-09-14T13:09:18Z</time>
      </trkpt>
      <trkpt lat="46.6551" lon="-0.23601">
        <ele>157</ele>
        <time>2012-09-14T13:09:23Z</time>
      </trkpt>
      <trkpt lat="46.65513" lon="-0.2361">
        <ele>157</ele>
        <time>2012-09-14T13:09:28Z</time>
      </trkpt>
      <trkpt lat="46.65517" lon="-0.23618">
        <ele>157</ele>
        <time>2012-09-14T13:09:33Z</time>
      </trkpt>
      <trkpt lat="46.6552" lon="-0.23627">
        <ele>157</ele>
        <time>2012-09-14T13:09:38Z</time>
      </trkpt>
      <trkpt lat="46.65523" lon="-0.23635">
        <ele>157</ele>
        <time>2012-09-14T13:09:43Z</time>
      </trkpt>
      <trkpt lat="46.65527" lon="-0.23642">
        <ele>157</ele>
        <time>2012-09-14T13:09:48Z</time>
      </trkpt>
      <trkpt lat="46.65531" lon="-0.2365">
        <ele>157</ele>
        <time>2012-09-14T13:09:53Z</time>
      </trkpt>
      <trkpt lat="46.65535" lon="-0.23661">
        <ele>157</ele>
        <time>2012-09-14T13:10:00Z</time>
      </trkpt>
      <trkpt lat="46.65535" lon="-0.23671">
        <ele>156</ele>
        <time>2012-09-14T13:10:05Z</time>
      </trkpt>
      <trkpt lat="46.65541" lon="-0.23679">
        <ele>156</ele>
        <time>2012-09-14T13:10:11Z</time>
      </trkpt>
      <trkpt lat="46.65545" lon="-0.23687">
        <ele>157</ele>
        <time>2012-09-14T13:10:17Z</time>
      </trkpt>
      <trkpt lat="46.65551" lon="-0.23692">
        <ele>157</ele>
        <time>2012-09-14T13:10:23Z</time>
      </trkpt>
      <trkpt lat="46.65557" lon="-0.23696">
        <ele>157</ele>
        <time>2012-09-14T13:10:29Z</time>
      </trkpt>
      <trkpt lat="46.65563" lon="-0.23694">
        <ele>157</ele>
        <time>2012-09-14T13:10:35Z</time>
      </trkpt>
      <trkpt lat="46.65569" lon="-0.23691">
        <ele>157</ele>
        <time>2012-09-14T13:10:40Z</time>
      </trkpt>
      <trkpt lat="46.65574" lon="-0.23686">
        <ele>157</ele>
        <time>2012-09-14T13:10:46Z</time>
      </trkpt>
      <trkpt lat="46.6558" lon="-0.23683">
        <ele>158</ele>
        <time>2012-09-14T13:10:51Z</time>
      </trkpt>
      <trkpt lat="46.65587" lon="-0.2368">
        <ele>158</ele>
        <time>2012-09-14T13:10:56Z</time>
      </trkpt>
      <trkpt lat="46.65594" lon="-0.23676">
        <ele>158</ele>
        <time>2012-09-14T13:11:02Z</time>
      </trkpt>
      <trkpt lat="46.65601" lon="-0.23672">
        <ele>158</ele>
        <time>2012-09-14T13:11:08Z</time>
      </trkpt>
      <trkpt lat="46.65607" lon="-0.23669">
        <ele>158</ele>
        <time>2012-09-14T13:11:13Z</time>
      </trkpt>
      <trkpt lat="46.65612" lon="-0.23667">
        <ele>158</ele>
        <time>2012-09-14T13:11:18Z</time>
      </trkpt>
      <trkpt lat="46.65619" lon="-0.23665">
        <ele>159</ele>
        <time>2012-09-14T13:11:23Z</time>
      </trkpt>
      <trkpt lat="46.65624" lon="-0.23663">
        <ele>159</ele>
        <time>2012-09-14T13:11:28Z</time>
      </trkpt>
      <trkpt lat="46.65631" lon="-0.2366">
        <ele>159</ele>
        <time>2012-09-14T13:11:33Z</time>
      </trkpt>
      <trkpt lat="46.65637" lon="-0.23657">
        <ele>159</ele>
        <time>2012-09-14T13:11:38Z</time>
      </trkpt>
      <trkpt lat="46.65644" lon="-0.23654">
        <ele>159</ele>
        <time>2012-09-14T13:11:43Z</time>
      </trkpt>
      <trkpt lat="46.65651" lon="-0.23651">
        <ele>159</ele>
        <time>2012-09-14T13:11:48Z</time>
      </trkpt>
      <trkpt lat="46.65657" lon="-0.23648">
        <ele>159</ele>
        <time>2012-09-14T13:11:53Z</time>
      </trkpt>
      <trkpt lat="46.65663" lon="-0.23645">
        <ele>159</ele>
        <time>2012-09-14T13:11:58Z</time>
      </trkpt>
      <trkpt lat="46.65669" lon="-0.23642">
        <ele>155</ele>
        <time>2012-09-14T13:12:03Z</time>
      </trkpt>
      <trkpt lat="46.65676" lon="-0.2364">
        <ele>154</ele>
        <time>2012-09-14T13:12:08Z</time>
      </trkpt>
      <trkpt lat="46.65681" lon="-0.23639">
        <ele>154</ele>
        <time>2012-09-14T13:12:14Z</time>
      </trkpt>
      <trkpt lat="46.65687" lon="-0.23636">
        <ele>153</ele>
        <time>2012-09-14T13:12:19Z</time>
      </trkpt>
      <trkpt lat="46.65691" lon="-0.23631">
        <ele>153</ele>
        <time>2012-09-14T13:12:27Z</time>
      </trkpt>
      <trkpt lat="46.65693" lon="-0.23629">
        <ele>153</ele>
        <time>2012-09-14T13:12:35Z</time>
      </trkpt>
      <trkpt lat="46.657" lon="-0.2362">
        <ele>152</ele>
        <time>2012-09-14T13:12:40Z</time>
      </trkpt>
      <trkpt lat="46.65702" lon="-0.23614">
        <ele>152</ele>
        <time>2012-09-14T13:12:45Z</time>
      </trkpt>
      <trkpt lat="46.65703" lon="-0.23607">
        <ele>152</ele>
        <time>2012-09-14T13:12:51Z</time>
      </trkpt>
      <trkpt lat="46.65705" lon="-0.23602">
        <ele>152</ele>
        <time>2012-09-14T13:12:56Z</time>
      </trkpt>
      <trkpt lat="46.65709" lon="-0.23601">
        <ele>151</ele>
        <time>2012-09-14T13:13:01Z</time>
      </trkpt>
      <trkpt lat="46.65713" lon="-0.23598">
        <ele>151</ele>
        <time>2012-09-14T13:13:07Z</time>
      </trkpt>
      <trkpt lat="46.65717" lon="-0.23595">
        <ele>150</ele>
        <time>2012-09-14T13:13:13Z</time>
      </trkpt>
      <trkpt lat="46.65722" lon="-0.23591">
        <ele>149</ele>
        <time>2012-09-14T13:13:18Z</time>
      </trkpt>
      <trkpt lat="46.65725" lon="-0.23598">
        <ele>149</ele>
        <time>2012-09-14T13:13:24Z</time>
      </trkpt>
      <trkpt lat="46.65728" lon="-0.23602">
        <ele>149</ele>
        <time>2012-09-14T13:13:29Z</time>
      </trkpt>
      <trkpt lat="46.65732" lon="-0.2361">
        <ele>149</ele>
        <time>2012-09-14T13:13:35Z</time>
      </trkpt>
      <trkpt lat="46.65734" lon="-0.23614">
        <ele>149</ele>
        <time>2012-09-14T13:13:40Z</time>
      </trkpt>
      <trkpt lat="46.65734" lon="-0.23623">
        <ele>149</ele>
        <time>2012-09-14T13:13:45Z</time>
      </trkpt>
      <trkpt lat="46.65737" lon="-0.23629">
        <ele>149</ele>
        <time>2012-09-14T13:13:51Z</time>
      </trkpt>
      <trkpt lat="46.65742" lon="-0.23637">
        <ele>148</ele>
        <time>2012-09-14T13:13:56Z</time>
      </trkpt>
      <trkpt lat="46.65744" lon="-0.23644">
        <ele>148</ele>
        <time>2012-09-14T13:14:01Z</time>
      </trkpt>
      <trkpt lat="46.65745" lon="-0.23653">
        <ele>146</ele>
        <time>2012-09-14T13:14:07Z</time>
      </trkpt>
      <trkpt lat="46.65747" lon="-0.23661">
        <ele>145</ele>
        <time>2012-09-14T13:14:12Z</time>
      </trkpt>
      <trkpt lat="46.65748" lon="-0.2367">
        <ele>144</ele>
        <time>2012-09-14T13:14:17Z</time>
      </trkpt>
      <trkpt lat="46.65751" lon="-0.2368">
        <ele>141</ele>
        <time>2012-09-14T13:14:22Z</time>
      </trkpt>
      <trkpt lat="46.65751" lon="-0.23689">
        <ele>140</ele>
        <time>2012-09-14T13:14:27Z</time>
      </trkpt>
      <trkpt lat="46.65752" lon="-0.23696">
        <ele>139</ele>
        <time>2012-09-14T13:14:32Z</time>
      </trkpt>
      <trkpt lat="46.65749" lon="-0.23704">
        <ele>146</ele>
        <time>2012-09-14T13:14:37Z</time>
      </trkpt>
      <trkpt lat="46.65746" lon="-0.23712">
        <ele>146</ele>
        <time>2012-09-14T13:14:42Z</time>
      </trkpt>
      <trkpt lat="46.65745" lon="-0.23718">
        <ele>145</ele>
        <time>2012-09-14T13:14:47Z</time>
      </trkpt>
      <trkpt lat="46.65742" lon="-0.23726">
        <ele>144</ele>
        <time>2012-09-14T13:14:52Z</time>
      </trkpt>
      <trkpt lat="46.6574" lon="-0.23736">
        <ele>143</ele>
        <time>2012-09-14T13:14:58Z</time>
      </trkpt>
      <trkpt lat="46.65736" lon="-0.23745">
        <ele>143</ele>
        <time>2012-09-14T13:15:03Z</time>
      </trkpt>
      <trkpt lat="46.65732" lon="-0.23756">
        <ele>141</ele>
        <time>2012-09-14T13:15:09Z</time>
      </trkpt>
      <trkpt lat="46.65729" lon="-0.23768">
        <ele>141</ele>
        <time>2012-09-14T13:15:14Z</time>
      </trkpt>
      <trkpt lat="46.65726" lon="-0.23779">
        <ele>142</ele>
        <time>2012-09-14T13:15:19Z</time>
      </trkpt>
      <trkpt lat="46.65722" lon="-0.23787">
        <ele>142</ele>
        <time>2012-09-14T13:15:24Z</time>
      </trkpt>
      <trkpt lat="46.65722" lon="-0.23793">
        <ele>141</ele>
        <time>2012-09-14T13:15:29Z</time>
      </trkpt>
      <trkpt lat="46.6572" lon="-0.23803">
        <ele>141</ele>
        <time>2012-09-14T13:15:34Z</time>
      </trkpt>
      <trkpt lat="46.65719" lon="-0.23812">
        <ele>141</ele>
        <time>2012-09-14T13:15:39Z</time>
      </trkpt>
      <trkpt lat="46.65716" lon="-0.23821">
        <ele>141</ele>
        <time>2012-09-14T13:15:45Z</time>
      </trkpt>
      <trkpt lat="46.65714" lon="-0.23828">
        <ele>141</ele>
        <time>2012-09-14T13:15:51Z</time>
      </trkpt>
      <trkpt lat="46.65711" lon="-0.23836">
        <ele>137</ele>
        <time>2012-09-14T13:15:56Z</time>
      </trkpt>
      <trkpt lat="46.65708" lon="-0.23842">
        <ele>137</ele>
        <time>2012-09-14T13:16:01Z</time>
      </trkpt>
      <trkpt lat="46.65704" lon="-0.2385">
        <ele>138</ele>
        <time>2012-09-14T13:16:07Z</time>
      </trkpt>
      <trkpt lat="46.657" lon="-0.23858">
        <ele>138</ele>
        <time>2012-09-14T13:16:12Z</time>
      </trkpt>
      <trkpt lat="46.65698" lon="-0.23866">
        <ele>138</ele>
        <time>2012-09-14T13:16:17Z</time>
      </trkpt>
      <trkpt lat="46.65695" lon="-0.23875">
        <ele>137</ele>
        <time>2012-09-14T13:16:23Z</time>
      </trkpt>
      <trkpt lat="46.65692" lon="-0.23883">
        <ele>137</ele>
        <time>2012-09-14T13:16:29Z</time>
      </trkpt>
      <trkpt lat="46.65691" lon="-0.23888">
        <ele>137</ele>
        <time>2012-09-14T13:16:34Z</time>
      </trkpt>
      <trkpt lat="46.65688" lon="-0.23896">
        <ele>137</ele>
        <time>2012-09-14T13:16:39Z</time>
      </trkpt>
      <trkpt lat="46.65688" lon="-0.23902">
        <ele>137</ele>
        <time>2012-09-14T13:16:44Z</time>
      </trkpt>
      <trkpt lat="46.65691" lon="-0.23909">
        <ele>137</ele>
        <time>2012-09-14T13:16:50Z</time>
      </trkpt>
      <trkpt lat="46.65697" lon="-0.23912">
        <ele>136</ele>
        <time>2012-09-14T13:16:55Z</time>
      </trkpt>
      <trkpt lat="46.65703" lon="-0.23917">
        <ele>134</ele>
        <time>2012-09-14T13:17:01Z</time>
      </trkpt>
      <trkpt lat="46.65709" lon="-0.23923">
        <ele>133</ele>
        <time>2012-09-14T13:17:06Z</time>
      </trkpt>
      <trkpt lat="46.65713" lon="-0.23928">
        <ele>133</ele>
        <time>2012-09-14T13:17:12Z</time>
      </trkpt>
      <trkpt lat="46.65716" lon="-0.23932">
        <ele>133</ele>
        <time>2012-09-14T13:17:17Z</time>
      </trkpt>
      <trkpt lat="46.65723" lon="-0.23934">
        <ele>132</ele>
        <time>2012-09-14T13:17:23Z</time>
      </trkpt>
      <trkpt lat="46.65728" lon="-0.23934">
        <ele>132</ele>
        <time>2012-09-14T13:17:28Z</time>
      </trkpt>
      <trkpt lat="46.65735" lon="-0.23934">
        <ele>132</ele>
        <time>2012-09-14T13:17:33Z</time>
      </trkpt>
      <trkpt lat="46.65742" lon="-0.23935">
        <ele>132</ele>
        <time>2012-09-14T13:17:38Z</time>
      </trkpt>
      <trkpt lat="46.65748" lon="-0.23936">
        <ele>131</ele>
        <time>2012-09-14T13:17:43Z</time>
      </trkpt>
      <trkpt lat="46.65751" lon="-0.2394">
        <ele>133</ele>
        <time>2012-09-14T13:17:48Z</time>
      </trkpt>
      <trkpt lat="46.65749" lon="-0.23945">
        <ele>132</ele>
        <time>2012-09-14T13:17:54Z</time>
      </trkpt>
      <trkpt lat="46.65745" lon="-0.23952">
        <ele>132</ele>
        <time>2012-09-14T13:18:00Z</time>
      </trkpt>
      <trkpt lat="46.65741" lon="-0.23958">
        <ele>132</ele>
        <time>2012-09-14T13:18:05Z</time>
      </trkpt>
      <trkpt lat="46.65738" lon="-0.23961">
        <ele>132</ele>
        <time>2012-09-14T13:18:10Z</time>
      </trkpt>
      <trkpt lat="46.65739" lon="-0.23975">
        <ele>132</ele>
        <time>2012-09-14T13:18:16Z</time>
      </trkpt>
      <trkpt lat="46.65741" lon="-0.23987">
        <ele>132</ele>
        <time>2012-09-14T13:18:21Z</time>
      </trkpt>
      <trkpt lat="46.65743" lon="-0.23996">
        <ele>131</ele>
        <time>2012-09-14T13:18:26Z</time>
      </trkpt>
      <trkpt lat="46.65747" lon="-0.24004">
        <ele>131</ele>
        <time>2012-09-14T13:18:32Z</time>
      </trkpt>
      <trkpt lat="46.6575" lon="-0.2401">
        <ele>131</ele>
        <time>2012-09-14T13:18:37Z</time>
      </trkpt>
      <trkpt lat="46.65755" lon="-0.24014">
        <ele>134</ele>
        <time>2012-09-14T13:18:43Z</time>
      </trkpt>
      <trkpt lat="46.6576" lon="-0.24013">
        <ele>134</ele>
        <time>2012-09-14T13:18:48Z</time>
      </trkpt>
      <trkpt lat="46.65765" lon="-0.24008">
        <ele>134</ele>
        <time>2012-09-14T13:18:53Z</time>
      </trkpt>
      <trkpt lat="46.65768" lon="-0.24003">
        <ele>134</ele>
        <time>2012-09-14T13:18:59Z</time>
      </trkpt>
      <trkpt lat="46.65773" lon="-0.23998">
        <ele>134</ele>
        <time>2012-09-14T13:19:05Z</time>
      </trkpt>
      <trkpt lat="46.65776" lon="-0.23991">
        <ele>134</ele>
        <time>2012-09-14T13:19:11Z</time>
      </trkpt>
      <trkpt lat="46.65776" lon="-0.23984">
        <ele>134</ele>
        <time>2012-09-14T13:19:17Z</time>
      </trkpt>
      <trkpt lat="46.65772" lon="-0.23982">
        <ele>134</ele>
        <time>2012-09-14T13:19:22Z</time>
      </trkpt>
      <trkpt lat="46.65766" lon="-0.23981">
        <ele>133</ele>
        <time>2012-09-14T13:19:27Z</time>
      </trkpt>
      <trkpt lat="46.65759" lon="-0.2398">
        <ele>133</ele>
        <time>2012-09-14T13:19:32Z</time>
      </trkpt>
      <trkpt lat="46.65753" lon="-0.23979">
        <ele>133</ele>
        <time>2012-09-14T13:19:37Z</time>
      </trkpt>
      <trkpt lat="46.65747" lon="-0.23977">
        <ele>132</ele>
        <time>2012-09-14T13:19:42Z</time>
      </trkpt>
      <trkpt lat="46.65742" lon="-0.23977">
        <ele>132</ele>
        <time>2012-09-14T13:19:47Z</time>
      </trkpt>
      <trkpt lat="46.65737" lon="-0.23977">
        <ele>132</ele>
        <time>2012-09-14T13:19:52Z</time>
      </trkpt>
      <trkpt lat="46.65731" lon="-0.23977">
        <ele>132</ele>
        <time>2012-09-14T13:19:57Z</time>
      </trkpt>
      <trkpt lat="46.65725" lon="-0.23976">
        <ele>132</ele>
        <time>2012-09-14T13:20:02Z</time>
      </trkpt>
      <trkpt lat="46.65719" lon="-0.23976">
        <ele>132</ele>
        <time>2012-09-14T13:20:07Z</time>
      </trkpt>
      <trkpt lat="46.65713" lon="-0.23976">
        <ele>132</ele>
        <time>2012-09-14T13:20:12Z</time>
      </trkpt>
      <trkpt lat="46.65708" lon="-0.23975">
        <ele>133</ele>
        <time>2012-09-14T13:20:17Z</time>
      </trkpt>
      <trkpt lat="46.65702" lon="-0.23977">
        <ele>133</ele>
        <time>2012-09-14T13:20:23Z</time>
      </trkpt>
      <trkpt lat="46.65703" lon="-0.23984">
        <ele>132</ele>
        <time>2012-09-14T13:20:28Z</time>
      </trkpt>
      <trkpt lat="46.65703" lon="-0.23993">
        <ele>132</ele>
        <time>2012-09-14T13:20:33Z</time>
      </trkpt>
      <trkpt lat="46.65702" lon="-0.24003">
        <ele>131</ele>
        <time>2012-09-14T13:20:38Z</time>
      </trkpt>
      <trkpt lat="46.657" lon="-0.24013">
        <ele>131</ele>
        <time>2012-09-14T13:20:43Z</time>
      </trkpt>
      <trkpt lat="46.65699" lon="-0.24024">
        <ele>131</ele>
        <time>2012-09-14T13:20:49Z</time>
      </trkpt>
      <trkpt lat="46.65699" lon="-0.24033">
        <ele>131</ele>
        <time>2012-09-14T13:20:54Z</time>
      </trkpt>
      <trkpt lat="46.65697" lon="-0.2404">
        <ele>131</ele>
        <time>2012-09-14T13:20:59Z</time>
      </trkpt>
      <trkpt lat="46.65698" lon="-0.24048">
        <ele>131</ele>
        <time>2012-09-14T13:21:04Z</time>
      </trkpt>
      <trkpt lat="46.65699" lon="-0.24056">
        <ele>131</ele>
        <time>2012-09-14T13:21:09Z</time>
      </trkpt>
      <trkpt lat="46.657" lon="-0.24065">
        <ele>131</ele>
        <time>2012-09-14T13:21:14Z</time>
      </trkpt>
      <trkpt lat="46.65701" lon="-0.24073">
        <ele>131</ele>
        <time>2012-09-14T13:21:19Z</time>
      </trkpt>
      <trkpt lat="46.65701" lon="-0.24081">
        <ele>131</ele>
        <time>2012-09-14T13:21:24Z</time>
      </trkpt>
      <trkpt lat="46.65702" lon="-0.2409">
        <ele>131</ele>
        <time>2012-09-14T13:21:29Z</time>
      </trkpt>
      <trkpt lat="46.65702" lon="-0.24098">
        <ele>131</ele>
        <time>2012-09-14T13:21:34Z</time>
      </trkpt>
      <trkpt lat="46.65703" lon="-0.24107">
        <ele>131</ele>
        <time>2012-09-14T13:21:39Z</time>
      </trkpt>
      <trkpt lat="46.65703" lon="-0.24116">
        <ele>132</ele>
        <time>2012-09-14T13:21:44Z</time>
      </trkpt>
      <trkpt lat="46.65703" lon="-0.24125">
        <ele>132</ele>
        <time>2012-09-14T13:21:49Z</time>
      </trkpt>
      <trkpt lat="46.65703" lon="-0.24134">
        <ele>132</ele>
        <time>2012-09-14T13:21:54Z</time>
      </trkpt>
      <trkpt lat="46.65703" lon="-0.24144">
        <ele>132</ele>
        <time>2012-09-14T13:21:59Z</time>
      </trkpt>
      <trkpt lat="46.65704" lon="-0.24153">
        <ele>132</ele>
        <time>2012-09-14T13:22:04Z</time>
      </trkpt>
      <trkpt lat="46.65704" lon="-0.24163">
        <ele>132</ele>
        <time>2012-09-14T13:22:09Z</time>
      </trkpt>
      <trkpt lat="46.65705" lon="-0.24172">
        <ele>133</ele>
        <time>2012-09-14T13:22:14Z</time>
      </trkpt>
      <trkpt lat="46.65706" lon="-0.24181">
        <ele>133</ele>
        <time>2012-09-14T13:22:19Z</time>
      </trkpt>
      <trkpt lat="46.65706" lon="-0.24192">
        <ele>133</ele>
        <time>2012-09-14T13:22:24Z</time>
      </trkpt>
      <trkpt lat="46.65705" lon="-0.24203">
        <ele>133</ele>
        <time>2012-09-14T13:22:29Z</time>
      </trkpt>
      <trkpt lat="46.65705" lon="-0.24214">
        <ele>134</ele>
        <time>2012-09-14T13:22:34Z</time>
      </trkpt>
      <trkpt lat="46.65703" lon="-0.24224">
        <ele>134</ele>
        <time>2012-09-14T13:22:39Z</time>
      </trkpt>
      <trkpt lat="46.65702" lon="-0.24234">
        <ele>134</ele>
        <time>2012-09-14T13:22:44Z</time>
      </trkpt>
      <trkpt lat="46.65701" lon="-0.24244">
        <ele>134</ele>
        <time>2012-09-14T13:22:49Z</time>
      </trkpt>
      <trkpt lat="46.65699" lon="-0.24253">
        <ele>135</ele>
        <time>2012-09-14T13:22:54Z</time>
      </trkpt>
      <trkpt lat="46.65699" lon="-0.24262">
        <ele>135</ele>
        <time>2012-09-14T13:22:59Z</time>
      </trkpt>
      <trkpt lat="46.65698" lon="-0.24271">
        <ele>135</ele>
        <time>2012-09-14T13:23:04Z</time>
      </trkpt>
      <trkpt lat="46.65696" lon="-0.24281">
        <ele>135</ele>
        <time>2012-09-14T13:23:09Z</time>
      </trkpt>
      <trkpt lat="46.65695" lon="-0.24289">
        <ele>135</ele>
        <time>2012-09-14T13:23:14Z</time>
      </trkpt>
      <trkpt lat="46.65693" lon="-0.24299">
        <ele>135</ele>
        <time>2012-09-14T13:23:19Z</time>
      </trkpt>
      <trkpt lat="46.65691" lon="-0.24307">
        <ele>135</ele>
        <time>2012-09-14T13:23:24Z</time>
      </trkpt>
      <trkpt lat="46.65689" lon="-0.24316">
        <ele>134</ele>
        <time>2012-09-14T13:23:29Z</time>
      </trkpt>
      <trkpt lat="46.65685" lon="-0.24324">
        <ele>134</ele>
        <time>2012-09-14T13:23:34Z</time>
      </trkpt>
      <trkpt lat="46.65683" lon="-0.2433">
        <ele>134</ele>
        <time>2012-09-14T13:23:39Z</time>
      </trkpt>
      <trkpt lat="46.65678" lon="-0.24338">
        <ele>134</ele>
        <time>2012-09-14T13:23:44Z</time>
      </trkpt>
      <trkpt lat="46.65674" lon="-0.24345">
        <ele>134</ele>
        <time>2012-09-14T13:23:49Z</time>
      </trkpt>
      <trkpt lat="46.65669" lon="-0.24352">
        <ele>134</ele>
        <time>2012-09-14T13:23:54Z</time>
      </trkpt>
      <trkpt lat="46.65664" lon="-0.24357">
        <ele>135</ele>
        <time>2012-09-14T13:23:59Z</time>
      </trkpt>
      <trkpt lat="46.65659" lon="-0.24363">
        <ele>135</ele>
        <time>2012-09-14T13:24:04Z</time>
      </trkpt>
      <trkpt lat="46.65654" lon="-0.2437">
        <ele>135</ele>
        <time>2012-09-14T13:24:10Z</time>
      </trkpt>
      <trkpt lat="46.65648" lon="-0.24376">
        <ele>135</ele>
        <time>2012-09-14T13:24:16Z</time>
      </trkpt>
      <trkpt lat="46.65643" lon="-0.24384">
        <ele>135</ele>
        <time>2012-09-14T13:24:22Z</time>
      </trkpt>
      <trkpt lat="46.65638" lon="-0.24391">
        <ele>135</ele>
        <time>2012-09-14T13:24:28Z</time>
      </trkpt>
      <trkpt lat="46.65634" lon="-0.244">
        <ele>135</ele>
        <time>2012-09-14T13:24:33Z</time>
      </trkpt>
      <trkpt lat="46.6563" lon="-0.24408">
        <ele>136</ele>
        <time>2012-09-14T13:24:38Z</time>
      </trkpt>
      <trkpt lat="46.65627" lon="-0.24416">
        <ele>136</ele>
        <time>2012-09-14T13:24:43Z</time>
      </trkpt>
      <trkpt lat="46.65623" lon="-0.24423">
        <ele>135</ele>
        <time>2012-09-14T13:24:48Z</time>
      </trkpt>
      <trkpt lat="46.65619" lon="-0.24432">
        <ele>135</ele>
        <time>2012-09-14T13:24:53Z</time>
      </trkpt>
      <trkpt lat="46.65615" lon="-0.2444">
        <ele>135</ele>
        <time>2012-09-14T13:24:58Z</time>
      </trkpt>
      <trkpt lat="46.65611" lon="-0.24448">
        <ele>135</ele>
        <time>2012-09-14T13:25:03Z</time>
      </trkpt>
      <trkpt lat="46.65607" lon="-0.24455">
        <ele>135</ele>
        <time>2012-09-14T13:25:08Z</time>
      </trkpt>
      <trkpt lat="46.65603" lon="-0.24462">
        <ele>135</ele>
        <time>2012-09-14T13:25:13Z</time>
      </trkpt>
      <trkpt lat="46.65598" lon="-0.24471">
        <ele>135</ele>
        <time>2012-09-14T13:25:19Z</time>
      </trkpt>
      <trkpt lat="46.65593" lon="-0.24478">
        <ele>135</ele>
        <time>2012-09-14T13:25:24Z</time>
      </trkpt>
      <trkpt lat="46.65589" lon="-0.24485">
        <ele>134</ele>
        <time>2012-09-14T13:25:29Z</time>
      </trkpt>
      <trkpt lat="46.65585" lon="-0.24492">
        <ele>134</ele>
        <time>2012-09-14T13:25:34Z</time>
      </trkpt>
      <trkpt lat="46.65581" lon="-0.24499">
        <ele>134</ele>
        <time>2012-09-14T13:25:39Z</time>
      </trkpt>
      <trkpt lat="46.65577" lon="-0.24508">
        <ele>135</ele>
        <time>2012-09-14T13:25:44Z</time>
      </trkpt>
      <trkpt lat="46.65573" lon="-0.24514">
        <ele>136</ele>
        <time>2012-09-14T13:25:49Z</time>
      </trkpt>
      <trkpt lat="46.65569" lon="-0.2452">
        <ele>137</ele>
        <time>2012-09-14T13:25:54Z</time>
      </trkpt>
      <trkpt lat="46.65564" lon="-0.24525">
        <ele>138</ele>
        <time>2012-09-14T13:26:00Z</time>
      </trkpt>
      <trkpt lat="46.65561" lon="-0.24532">
        <ele>138</ele>
        <time>2012-09-14T13:26:05Z</time>
      </trkpt>
      <trkpt lat="46.65557" lon="-0.2454">
        <ele>138</ele>
        <time>2012-09-14T13:26:10Z</time>
      </trkpt>
      <trkpt lat="46.65553" lon="-0.24548">
        <ele>138</ele>
        <time>2012-09-14T13:26:15Z</time>
      </trkpt>
      <trkpt lat="46.65549" lon="-0.24555">
        <ele>138</ele>
        <time>2012-09-14T13:26:21Z</time>
      </trkpt>
      <trkpt lat="46.65546" lon="-0.24562">
        <ele>138</ele>
        <time>2012-09-14T13:26:26Z</time>
      </trkpt>
      <trkpt lat="46.65543" lon="-0.24566">
        <ele>139</ele>
        <time>2012-09-14T13:26:31Z</time>
      </trkpt>
      <trkpt lat="46.6554" lon="-0.24566">
        <ele>139</ele>
        <time>2012-09-14T13:26:36Z</time>
      </trkpt>
      <trkpt lat="46.65536" lon="-0.24567">
        <ele>139</ele>
        <time>2012-09-14T13:26:42Z</time>
      </trkpt>
      <trkpt lat="46.65529" lon="-0.24572">
        <ele>139</ele>
        <time>2012-09-14T13:26:48Z</time>
      </trkpt>
      <trkpt lat="46.65521" lon="-0.24578">
        <ele>139</ele>
        <time>2012-09-14T13:26:53Z</time>
      </trkpt>
      <trkpt lat="46.65513" lon="-0.24584">
        <ele>138</ele>
        <time>2012-09-14T13:26:58Z</time>
      </trkpt>
      <trkpt lat="46.65505" lon="-0.24591">
        <ele>139</ele>
        <time>2012-09-14T13:27:04Z</time>
      </trkpt>
      <trkpt lat="46.65499" lon="-0.24596">
        <ele>139</ele>
        <time>2012-09-14T13:27:09Z</time>
      </trkpt>
      <trkpt lat="46.65493" lon="-0.24603">
        <ele>138</ele>
        <time>2012-09-14T13:27:15Z</time>
      </trkpt>
      <trkpt lat="46.65487" lon="-0.24609">
        <ele>138</ele>
        <time>2012-09-14T13:27:20Z</time>
      </trkpt>
      <trkpt lat="46.6548" lon="-0.24615">
        <ele>138</ele>
        <time>2012-09-14T13:27:25Z</time>
      </trkpt>
      <trkpt lat="46.65473" lon="-0.24622">
        <ele>138</ele>
        <time>2012-09-14T13:27:31Z</time>
      </trkpt>
      <trkpt lat="46.65467" lon="-0.24628">
        <ele>138</ele>
        <time>2012-09-14T13:27:37Z</time>
      </trkpt>
      <trkpt lat="46.65462" lon="-0.24632">
        <ele>138</ele>
        <time>2012-09-14T13:27:42Z</time>
      </trkpt>
      <trkpt lat="46.65456" lon="-0.24635">
        <ele>137</ele>
        <time>2012-09-14T13:27:47Z</time>
      </trkpt>
      <trkpt lat="46.6545" lon="-0.24637">
        <ele>137</ele>
        <time>2012-09-14T13:27:52Z</time>
      </trkpt>
      <trkpt lat="46.65445" lon="-0.24638">
        <ele>137</ele>
        <time>2012-09-14T13:27:57Z</time>
      </trkpt>
      <trkpt lat="46.65438" lon="-0.24641">
        <ele>137</ele>
        <time>2012-09-14T13:28:03Z</time>
      </trkpt>
      <trkpt lat="46.65433" lon="-0.24642">
        <ele>137</ele>
        <time>2012-09-14T13:28:08Z</time>
      </trkpt>
      <trkpt lat="46.65426" lon="-0.24642">
        <ele>137</ele>
        <time>2012-09-14T13:28:13Z</time>
      </trkpt>
      <trkpt lat="46.6542" lon="-0.24644">
        <ele>137</ele>
        <time>2012-09-14T13:28:18Z</time>
      </trkpt>
      <trkpt lat="46.65412" lon="-0.24644">
        <ele>138</ele>
        <time>2012-09-14T13:28:24Z</time>
      </trkpt>
      <trkpt lat="46.65408" lon="-0.24646">
        <ele>138</ele>
        <time>2012-09-14T13:28:29Z</time>
      </trkpt>
      <trkpt lat="46.65401" lon="-0.24647">
        <ele>138</ele>
        <time>2012-09-14T13:28:34Z</time>
      </trkpt>
      <trkpt lat="46.65395" lon="-0.24648">
        <ele>138</ele>
        <time>2012-09-14T13:28:39Z</time>
      </trkpt>
      <trkpt lat="46.65388" lon="-0.24651">
        <ele>138</ele>
        <time>2012-09-14T13:28:44Z</time>
      </trkpt>
      <trkpt lat="46.65384" lon="-0.24652">
        <ele>139</ele>
        <time>2012-09-14T13:28:49Z</time>
      </trkpt>
      <trkpt lat="46.65384" lon="-0.24649">
        <ele>139</ele>
        <time>2012-09-14T13:28:54Z</time>
      </trkpt>
      <trkpt lat="46.6538" lon="-0.24648">
        <ele>139</ele>
        <time>2012-09-14T13:29:00Z</time>
      </trkpt>
      <trkpt lat="46.65384" lon="-0.24642">
        <ele>139</ele>
        <time>2012-09-14T13:29:06Z</time>
      </trkpt>
      <trkpt lat="46.65382" lon="-0.24643">
        <ele>139</ele>
        <time>2012-09-14T13:29:13Z</time>
      </trkpt>
      <trkpt lat="46.6538" lon="-0.24643">
        <ele>139</ele>
        <time>2012-09-14T13:29:18Z</time>
      </trkpt>
      <trkpt lat="46.65383" lon="-0.24643">
        <ele>139</ele>
        <time>2012-09-14T13:29:23Z</time>
      </trkpt>
      <trkpt lat="46.65388" lon="-0.2464">
        <ele>139</ele>
        <time>2012-09-14T13:29:28Z</time>
      </trkpt>
      <trkpt lat="46.65389" lon="-0.24646">
        <ele>139</ele>
        <time>2012-09-14T13:29:38Z</time>
      </trkpt>
      <trkpt lat="46.65393" lon="-0.24632">
        <ele>140</ele>
        <time>2012-09-14T13:29:44Z</time>
      </trkpt>
      <trkpt lat="46.65389" lon="-0.24644">
        <ele>139</ele>
        <time>2012-09-14T13:29:51Z</time>
      </trkpt>
      <trkpt lat="46.65385" lon="-0.24642">
        <ele>139</ele>
        <time>2012-09-14T13:30:00Z</time>
      </trkpt>
      <trkpt lat="46.65383" lon="-0.24644">
        <ele>139</ele>
        <time>2012-09-14T13:30:06Z</time>
      </trkpt>
      <trkpt lat="46.65384" lon="-0.24641">
        <ele>139</ele>
        <time>2012-09-14T13:30:11Z</time>
      </trkpt>
      <trkpt lat="46.65386" lon="-0.24641">
        <ele>139</ele>
        <time>2012-09-14T13:30:18Z</time>
      </trkpt>
      <trkpt lat="46.65381" lon="-0.24649">
        <ele>139</ele>
        <time>2012-09-14T13:30:23Z</time>
      </trkpt>
      <trkpt lat="46.65393" lon="-0.2464">
        <ele>139</ele>
        <time>2012-09-14T13:30:33Z</time>
      </trkpt>
      <trkpt lat="46.65397" lon="-0.24636">
        <ele>139</ele>
        <time>2012-09-14T13:30:38Z</time>
      </trkpt>
      <trkpt lat="46.65401" lon="-0.24634">
        <ele>139</ele>
        <time>2012-09-14T13:30:43Z</time>
      </trkpt>
      <trkpt lat="46.65397" lon="-0.24628">
        <ele>140</ele>
        <time>2012-09-14T13:30:49Z</time>
      </trkpt>
      <trkpt lat="46.65398" lon="-0.24625">
        <ele>140</ele>
        <time>2012-09-14T13:30:56Z</time>
      </trkpt>
      <trkpt lat="46.65403" lon="-0.24626">
        <ele>140</ele>
        <time>2012-09-14T13:31:01Z</time>
      </trkpt>
      <trkpt lat="46.65409" lon="-0.24628">
        <ele>140</ele>
        <time>2012-09-14T13:31:07Z</time>
      </trkpt>
      <trkpt lat="46.65413" lon="-0.24624">
        <ele>140</ele>
        <time>2012-09-14T13:31:13Z</time>
      </trkpt>
      <trkpt lat="46.65413" lon="-0.24619">
        <ele>141</ele>
        <time>2012-09-14T13:31:18Z</time>
      </trkpt>
      <trkpt lat="46.65414" lon="-0.24612">
        <ele>142</ele>
        <time>2012-09-14T13:31:24Z</time>
      </trkpt>
      <trkpt lat="46.65416" lon="-0.24606">
        <ele>142</ele>
        <time>2012-09-14T13:31:30Z</time>
      </trkpt>
      <trkpt lat="46.65415" lon="-0.24602">
        <ele>143</ele>
        <time>2012-09-14T13:31:35Z</time>
      </trkpt>
      <trkpt lat="46.65414" lon="-0.24596">
        <ele>144</ele>
        <time>2012-09-14T13:31:41Z</time>
      </trkpt>
      <trkpt lat="46.65413" lon="-0.24591">
        <ele>145</ele>
        <time>2012-09-14T13:31:47Z</time>
      </trkpt>
      <trkpt lat="46.65412" lon="-0.24586">
        <ele>145</ele>
        <time>2012-09-14T13:31:54Z</time>
      </trkpt>
      <trkpt lat="46.6541" lon="-0.24583">
        <ele>147</ele>
        <time>2012-09-14T13:32:00Z</time>
      </trkpt>
      <trkpt lat="46.6541" lon="-0.24581">
        <ele>147</ele>
        <time>2012-09-14T13:32:05Z</time>
      </trkpt>
      <trkpt lat="46.65406" lon="-0.24573">
        <ele>148</ele>
        <time>2012-09-14T13:32:15Z</time>
      </trkpt>
      <trkpt lat="46.65399" lon="-0.24574">
        <ele>149</ele>
        <time>2012-09-14T13:32:28Z</time>
      </trkpt>
      <trkpt lat="46.65395" lon="-0.24576">
        <ele>149</ele>
        <time>2012-09-14T13:32:34Z</time>
      </trkpt>
      <trkpt lat="46.6539" lon="-0.2458">
        <ele>149</ele>
        <time>2012-09-14T13:32:39Z</time>
      </trkpt>
      <trkpt lat="46.65383" lon="-0.24584">
        <ele>143</ele>
        <time>2012-09-14T13:32:44Z</time>
      </trkpt>
      <trkpt lat="46.65377" lon="-0.24586">
        <ele>143</ele>
        <time>2012-09-14T13:32:49Z</time>
      </trkpt>
      <trkpt lat="46.6537" lon="-0.24591">
        <ele>143</ele>
        <time>2012-09-14T13:32:55Z</time>
      </trkpt>
      <trkpt lat="46.65365" lon="-0.24595">
        <ele>143</ele>
        <time>2012-09-14T13:33:00Z</time>
      </trkpt>
      <trkpt lat="46.6536" lon="-0.24599">
        <ele>143</ele>
        <time>2012-09-14T13:33:06Z</time>
      </trkpt>
      <trkpt lat="46.65354" lon="-0.24606">
        <ele>143</ele>
        <time>2012-09-14T13:33:12Z</time>
      </trkpt>
      <trkpt lat="46.65348" lon="-0.2461">
        <ele>143</ele>
        <time>2012-09-14T13:33:18Z</time>
      </trkpt>
      <trkpt lat="46.65342" lon="-0.24614">
        <ele>143</ele>
        <time>2012-09-14T13:33:24Z</time>
      </trkpt>
      <trkpt lat="46.65337" lon="-0.24616">
        <ele>142</ele>
        <time>2012-09-14T13:33:29Z</time>
      </trkpt>
      <trkpt lat="46.65331" lon="-0.24621">
        <ele>144</ele>
        <time>2012-09-14T13:33:35Z</time>
      </trkpt>
      <trkpt lat="46.65326" lon="-0.24624">
        <ele>144</ele>
        <time>2012-09-14T13:33:40Z</time>
      </trkpt>
      <trkpt lat="46.6532" lon="-0.24627">
        <ele>144</ele>
        <time>2012-09-14T13:33:46Z</time>
      </trkpt>
      <trkpt lat="46.65314" lon="-0.24629">
        <ele>143</ele>
        <time>2012-09-14T13:33:51Z</time>
      </trkpt>
      <trkpt lat="46.65308" lon="-0.24631">
        <ele>143</ele>
        <time>2012-09-14T13:33:56Z</time>
      </trkpt>
      <trkpt lat="46.65303" lon="-0.24634">
        <ele>143</ele>
        <time>2012-09-14T13:34:01Z</time>
      </trkpt>
      <trkpt lat="46.65297" lon="-0.24636">
        <ele>144</ele>
        <time>2012-09-14T13:34:06Z</time>
      </trkpt>
      <trkpt lat="46.65291" lon="-0.24637">
        <ele>144</ele>
        <time>2012-09-14T13:34:11Z</time>
      </trkpt>
      <trkpt lat="46.65286" lon="-0.24639">
        <ele>144</ele>
        <time>2012-09-14T13:34:16Z</time>
      </trkpt>
      <trkpt lat="46.65279" lon="-0.24641">
        <ele>144</ele>
        <time>2012-09-14T13:34:21Z</time>
      </trkpt>
      <trkpt lat="46.65274" lon="-0.24644">
        <ele>144</ele>
        <time>2012-09-14T13:34:26Z</time>
      </trkpt>
      <trkpt lat="46.65269" lon="-0.2465">
        <ele>143</ele>
        <time>2012-09-14T13:34:31Z</time>
      </trkpt>
      <trkpt lat="46.65264" lon="-0.24658">
        <ele>143</ele>
        <time>2012-09-14T13:34:37Z</time>
      </trkpt>
      <trkpt lat="46.65261" lon="-0.24665">
        <ele>143</ele>
        <time>2012-09-14T13:34:42Z</time>
      </trkpt>
      <trkpt lat="46.65256" lon="-0.24671">
        <ele>140</ele>
        <time>2012-09-14T13:34:48Z</time>
      </trkpt>
      <trkpt lat="46.65253" lon="-0.24673">
        <ele>140</ele>
        <time>2012-09-14T13:34:53Z</time>
      </trkpt>
      <trkpt lat="46.65245" lon="-0.24675">
        <ele>141</ele>
        <time>2012-09-14T13:34:59Z</time>
      </trkpt>
      <trkpt lat="46.65239" lon="-0.24676">
        <ele>141</ele>
        <time>2012-09-14T13:35:04Z</time>
      </trkpt>
      <trkpt lat="46.65232" lon="-0.24676">
        <ele>141</ele>
        <time>2012-09-14T13:35:09Z</time>
      </trkpt>
      <trkpt lat="46.65226" lon="-0.24674">
        <ele>141</ele>
        <time>2012-09-14T13:35:14Z</time>
      </trkpt>
      <trkpt lat="46.6522" lon="-0.24672">
        <ele>141</ele>
        <time>2012-09-14T13:35:19Z</time>
      </trkpt>
      <trkpt lat="46.65215" lon="-0.2467">
        <ele>142</ele>
        <time>2012-09-14T13:35:24Z</time>
      </trkpt>
      <trkpt lat="46.65204" lon="-0.24678">
        <ele>142</ele>
        <time>2012-09-14T13:35:37Z</time>
      </trkpt>
      <trkpt lat="46.65199" lon="-0.24676">
        <ele>142</ele>
        <time>2012-09-14T13:35:42Z</time>
      </trkpt>
      <trkpt lat="46.65192" lon="-0.24674">
        <ele>143</ele>
        <time>2012-09-14T13:35:48Z</time>
      </trkpt>
      <trkpt lat="46.65187" lon="-0.24673">
        <ele>143</ele>
        <time>2012-09-14T13:35:53Z</time>
      </trkpt>
      <trkpt lat="46.65182" lon="-0.24672">
        <ele>143</ele>
        <time>2012-09-14T13:35:58Z</time>
      </trkpt>
      <trkpt lat="46.65176" lon="-0.24671">
        <ele>144</ele>
        <time>2012-09-14T13:36:03Z</time>
      </trkpt>
      <trkpt lat="46.65169" lon="-0.24672">
        <ele>145</ele>
        <time>2012-09-14T13:36:09Z</time>
      </trkpt>
      <trkpt lat="46.65162" lon="-0.24674">
        <ele>146</ele>
        <time>2012-09-14T13:36:14Z</time>
      </trkpt>
      <trkpt lat="46.65156" lon="-0.24675">
        <ele>147</ele>
        <time>2012-09-14T13:36:19Z</time>
      </trkpt>
      <trkpt lat="46.65149" lon="-0.24673">
        <ele>147</ele>
        <time>2012-09-14T13:36:24Z</time>
      </trkpt>
      <trkpt lat="46.65143" lon="-0.24672">
        <ele>147</ele>
        <time>2012-09-14T13:36:29Z</time>
      </trkpt>
      <trkpt lat="46.65136" lon="-0.2467">
        <ele>148</ele>
        <time>2012-09-14T13:36:35Z</time>
      </trkpt>
      <trkpt lat="46.65129" lon="-0.2467">
        <ele>148</ele>
        <time>2012-09-14T13:36:41Z</time>
      </trkpt>
      <trkpt lat="46.65122" lon="-0.24669">
        <ele>148</ele>
        <time>2012-09-14T13:36:46Z</time>
      </trkpt>
      <trkpt lat="46.65116" lon="-0.2467">
        <ele>149</ele>
        <time>2012-09-14T13:36:51Z</time>
      </trkpt>
      <trkpt lat="46.6511" lon="-0.2467">
        <ele>149</ele>
        <time>2012-09-14T13:36:56Z</time>
      </trkpt>
      <trkpt lat="46.65103" lon="-0.24669">
        <ele>150</ele>
        <time>2012-09-14T13:37:01Z</time>
      </trkpt>
      <trkpt lat="46.65097" lon="-0.24667">
        <ele>150</ele>
        <time>2012-09-14T13:37:06Z</time>
      </trkpt>
      <trkpt lat="46.65091" lon="-0.24666">
        <ele>152</ele>
        <time>2012-09-14T13:37:11Z</time>
      </trkpt>
      <trkpt lat="46.65084" lon="-0.24662">
        <ele>152</ele>
        <time>2012-09-14T13:37:16Z</time>
      </trkpt>
      <trkpt lat="46.65078" lon="-0.24664">
        <ele>153</ele>
        <time>2012-09-14T13:37:21Z</time>
      </trkpt>
      <trkpt lat="46.65073" lon="-0.24666">
        <ele>154</ele>
        <time>2012-09-14T13:37:26Z</time>
      </trkpt>
      <trkpt lat="46.65066" lon="-0.24667">
        <ele>153</ele>
        <time>2012-09-14T13:37:31Z</time>
      </trkpt>
      <trkpt lat="46.65059" lon="-0.24667">
        <ele>154</ele>
        <time>2012-09-14T13:37:36Z</time>
      </trkpt>
      <trkpt lat="46.65054" lon="-0.24668">
        <ele>154</ele>
        <time>2012-09-14T13:37:41Z</time>
      </trkpt>
      <trkpt lat="46.65046" lon="-0.2467">
        <ele>154</ele>
        <time>2012-09-14T13:37:47Z</time>
      </trkpt>
      <trkpt lat="46.6504" lon="-0.24671">
        <ele>155</ele>
        <time>2012-09-14T13:37:52Z</time>
      </trkpt>
      <trkpt lat="46.65033" lon="-0.24672">
        <ele>155</ele>
        <time>2012-09-14T13:37:57Z</time>
      </trkpt>
      <trkpt lat="46.65027" lon="-0.2467">
        <ele>155</ele>
        <time>2012-09-14T13:38:02Z</time>
      </trkpt>
      <trkpt lat="46.6502" lon="-0.24667">
        <ele>155</ele>
        <time>2012-09-14T13:38:07Z</time>
      </trkpt>
      <trkpt lat="46.65013" lon="-0.24668">
        <ele>156</ele>
        <time>2012-09-14T13:38:13Z</time>
      </trkpt>
      <trkpt lat="46.65011" lon="-0.24676">
        <ele>156</ele>
        <time>2012-09-14T13:38:18Z</time>
      </trkpt>
      <trkpt lat="46.65012" lon="-0.24687">
        <ele>156</ele>
        <time>2012-09-14T13:38:23Z</time>
      </trkpt>
      <trkpt lat="46.65015" lon="-0.24697">
        <ele>156</ele>
        <time>2012-09-14T13:38:29Z</time>
      </trkpt>
      <trkpt lat="46.65018" lon="-0.24704">
        <ele>156</ele>
        <time>2012-09-14T13:38:35Z</time>
      </trkpt>
      <trkpt lat="46.65017" lon="-0.24716">
        <ele>156</ele>
        <time>2012-09-14T13:38:41Z</time>
      </trkpt>
      <trkpt lat="46.65016" lon="-0.24724">
        <ele>156</ele>
        <time>2012-09-14T13:38:46Z</time>
      </trkpt>
      <trkpt lat="46.65015" lon="-0.24733">
        <ele>157</ele>
        <time>2012-09-14T13:38:51Z</time>
      </trkpt>
      <trkpt lat="46.65013" lon="-0.24741">
        <ele>157</ele>
        <time>2012-09-14T13:38:56Z</time>
      </trkpt>
      <trkpt lat="46.65008" lon="-0.24747">
        <ele>158</ele>
        <time>2012-09-14T13:39:01Z</time>
      </trkpt>
      <trkpt lat="46.65002" lon="-0.24745">
        <ele>158</ele>
        <time>2012-09-14T13:39:07Z</time>
      </trkpt>
      <trkpt lat="46.64997" lon="-0.24742">
        <ele>159</ele>
        <time>2012-09-14T13:39:13Z</time>
      </trkpt>
      <trkpt lat="46.64996" lon="-0.24739">
        <ele>159</ele>
        <time>2012-09-14T13:39:18Z</time>
      </trkpt>
      <trkpt lat="46.64996" lon="-0.24733">
        <ele>159</ele>
        <time>2012-09-14T13:39:25Z</time>
      </trkpt>
      <trkpt lat="46.64997" lon="-0.24728">
        <ele>159</ele>
        <time>2012-09-14T13:39:32Z</time>
      </trkpt>
      <trkpt lat="46.64992" lon="-0.24725">
        <ele>160</ele>
        <time>2012-09-14T13:39:39Z</time>
      </trkpt>
      <trkpt lat="46.64988" lon="-0.24724">
        <ele>160</ele>
        <time>2012-09-14T13:39:45Z</time>
      </trkpt>
      <trkpt lat="46.64983" lon="-0.24725">
        <ele>160</ele>
        <time>2012-09-14T13:39:51Z</time>
      </trkpt>
      <trkpt lat="46.64979" lon="-0.2473">
        <ele>160</ele>
        <time>2012-09-14T13:39:58Z</time>
      </trkpt>
      <trkpt lat="46.64972" lon="-0.24727">
        <ele>160</ele>
        <time>2012-09-14T13:40:04Z</time>
      </trkpt>
      <trkpt lat="46.64967" lon="-0.24728">
        <ele>160</ele>
        <time>2012-09-14T13:40:10Z</time>
      </trkpt>
      <trkpt lat="46.64994" lon="-0.24738">
        <ele>159</ele>
        <time>2012-09-14T13:40:18Z</time>
      </trkpt>
      <trkpt lat="46.64992" lon="-0.24743">
        <ele>159</ele>
        <time>2012-09-14T13:40:23Z</time>
      </trkpt>
      <trkpt lat="46.65" lon="-0.24746">
        <ele>159</ele>
        <time>2012-09-14T13:40:29Z</time>
      </trkpt>
      <trkpt lat="46.65005" lon="-0.24749">
        <ele>158</ele>
        <time>2012-09-14T13:40:34Z</time>
      </trkpt>
      <trkpt lat="46.65007" lon="-0.24756">
        <ele>158</ele>
        <time>2012-09-14T13:40:39Z</time>
      </trkpt>
      <trkpt lat="46.65007" lon="-0.24767">
        <ele>158</ele>
        <time>2012-09-14T13:40:44Z</time>
      </trkpt>
      <trkpt lat="46.65007" lon="-0.24775">
        <ele>158</ele>
        <time>2012-09-14T13:40:49Z</time>
      </trkpt>
      <trkpt lat="46.64927" lon="-0.24908">
        <ele>162</ele>
        <time>2012-09-14T13:40:56Z</time>
      </trkpt>
      <trkpt lat="46.64925" lon="-0.24911">
        <ele>162</ele>
        <time>2012-09-14T13:41:01Z</time>
      </trkpt>
      <trkpt lat="46.6492" lon="-0.24914">
        <ele>163</ele>
        <time>2012-09-14T13:41:07Z</time>
      </trkpt>
      <trkpt lat="46.64916" lon="-0.24914">
        <ele>163</ele>
        <time>2012-09-14T13:41:13Z</time>
      </trkpt>
      <trkpt lat="46.6491" lon="-0.24916">
        <ele>164</ele>
        <time>2012-09-14T13:41:19Z</time>
      </trkpt>
      <trkpt lat="46.64908" lon="-0.24918">
        <ele>163</ele>
        <time>2012-09-14T13:41:25Z</time>
      </trkpt>
      <trkpt lat="46.64903" lon="-0.24918">
        <ele>163</ele>
        <time>2012-09-14T13:41:30Z</time>
      </trkpt>
      <trkpt lat="46.64904" lon="-0.24921">
        <ele>163</ele>
        <time>2012-09-14T13:41:36Z</time>
      </trkpt>
      <trkpt lat="46.64906" lon="-0.24924">
        <ele>163</ele>
        <time>2012-09-14T13:41:46Z</time>
      </trkpt>
      <trkpt lat="46.64906" lon="-0.24926">
        <ele>163</ele>
        <time>2012-09-14T13:41:51Z</time>
      </trkpt>
      <trkpt lat="46.64904" lon="-0.24919">
        <ele>163</ele>
        <time>2012-09-14T13:41:57Z</time>
      </trkpt>
      <trkpt lat="46.64903" lon="-0.2492">
        <ele>163</ele>
        <time>2012-09-14T13:42:05Z</time>
      </trkpt>
      <trkpt lat="46.64895" lon="-0.24928">
        <ele>163</ele>
        <time>2012-09-14T13:42:10Z</time>
      </trkpt>
      <trkpt lat="46.6489" lon="-0.24932">
        <ele>163</ele>
        <time>2012-09-14T13:42:15Z</time>
      </trkpt>
      <trkpt lat="46.64883" lon="-0.24933">
        <ele>163</ele>
        <time>2012-09-14T13:42:20Z</time>
      </trkpt>
      <trkpt lat="46.64877" lon="-0.24941">
        <ele>163</ele>
        <time>2012-09-14T13:42:25Z</time>
      </trkpt>
      <trkpt lat="46.6487" lon="-0.24946">
        <ele>163</ele>
        <time>2012-09-14T13:42:30Z</time>
      </trkpt>
      <trkpt lat="46.64864" lon="-0.24951">
        <ele>163</ele>
        <time>2012-09-14T13:42:35Z</time>
      </trkpt>
      <trkpt lat="46.64858" lon="-0.24953">
        <ele>164</ele>
        <time>2012-09-14T13:42:40Z</time>
      </trkpt>
      <trkpt lat="46.64852" lon="-0.24955">
        <ele>164</ele>
        <time>2012-09-14T13:42:45Z</time>
      </trkpt>
      <trkpt lat="46.64846" lon="-0.24956">
        <ele>164</ele>
        <time>2012-09-14T13:42:50Z</time>
      </trkpt>
      <trkpt lat="46.64839" lon="-0.24958">
        <ele>164</ele>
        <time>2012-09-14T13:42:55Z</time>
      </trkpt>
      <trkpt lat="46.64833" lon="-0.24959">
        <ele>168</ele>
        <time>2012-09-14T13:43:00Z</time>
      </trkpt>
      <trkpt lat="46.64826" lon="-0.2496">
        <ele>168</ele>
        <time>2012-09-14T13:43:05Z</time>
      </trkpt>
      <trkpt lat="46.6482" lon="-0.24963">
        <ele>168</ele>
        <time>2012-09-14T13:43:10Z</time>
      </trkpt>
      <trkpt lat="46.64814" lon="-0.24967">
        <ele>168</ele>
        <time>2012-09-14T13:43:16Z</time>
      </trkpt>
      <trkpt lat="46.64807" lon="-0.24973">
        <ele>169</ele>
        <time>2012-09-14T13:43:21Z</time>
      </trkpt>
      <trkpt lat="46.64802" lon="-0.24979">
        <ele>169</ele>
        <time>2012-09-14T13:43:26Z</time>
      </trkpt>
      <trkpt lat="46.64798" lon="-0.24981">
        <ele>169</ele>
        <time>2012-09-14T13:43:31Z</time>
      </trkpt>
      <trkpt lat="46.64796" lon="-0.24979">
        <ele>169</ele>
        <time>2012-09-14T13:43:38Z</time>
      </trkpt>
      <trkpt lat="46.64794" lon="-0.24983">
        <ele>169</ele>
        <time>2012-09-14T13:43:48Z</time>
      </trkpt>
      <trkpt lat="46.64798" lon="-0.24964">
        <ele>169</ele>
        <time>2012-09-14T13:43:54Z</time>
      </trkpt>
      <trkpt lat="46.648" lon="-0.24958">
        <ele>169</ele>
        <time>2012-09-14T13:44:00Z</time>
      </trkpt>
      <trkpt lat="46.64802" lon="-0.24952">
        <ele>169</ele>
        <time>2012-09-14T13:44:06Z</time>
      </trkpt>
      <trkpt lat="46.64805" lon="-0.24948">
        <ele>169</ele>
        <time>2012-09-14T13:44:12Z</time>
      </trkpt>
      <trkpt lat="46.64805" lon="-0.24939">
        <ele>169</ele>
        <time>2012-09-14T13:44:18Z</time>
      </trkpt>
      <trkpt lat="46.64805" lon="-0.24933">
        <ele>169</ele>
        <time>2012-09-14T13:44:23Z</time>
      </trkpt>
      <trkpt lat="46.64806" lon="-0.24927">
        <ele>170</ele>
        <time>2012-09-14T13:44:28Z</time>
      </trkpt>
      <trkpt lat="46.6481" lon="-0.2492">
        <ele>169</ele>
        <time>2012-09-14T13:44:34Z</time>
      </trkpt>
      <trkpt lat="46.6481" lon="-0.24917">
        <ele>170</ele>
        <time>2012-09-14T13:44:40Z</time>
      </trkpt>
      <trkpt lat="46.6481" lon="-0.24911">
        <ele>170</ele>
        <time>2012-09-14T13:44:46Z</time>
      </trkpt>
      <trkpt lat="46.64809" lon="-0.24906">
        <ele>170</ele>
        <time>2012-09-14T13:44:51Z</time>
      </trkpt>
      <trkpt lat="46.64811" lon="-0.249">
        <ele>170</ele>
        <time>2012-09-14T13:44:57Z</time>
      </trkpt>
      <trkpt lat="46.64815" lon="-0.24894">
        <ele>170</ele>
        <time>2012-09-14T13:45:02Z</time>
      </trkpt>
      <trkpt lat="46.64816" lon="-0.24888">
        <ele>170</ele>
        <time>2012-09-14T13:45:07Z</time>
      </trkpt>
      <trkpt lat="46.64815" lon="-0.2488">
        <ele>170</ele>
        <time>2012-09-14T13:45:13Z</time>
      </trkpt>
      <trkpt lat="46.64816" lon="-0.24876">
        <ele>170</ele>
        <time>2012-09-14T13:45:18Z</time>
      </trkpt>
      <trkpt lat="46.64819" lon="-0.24872">
        <ele>170</ele>
        <time>2012-09-14T13:45:24Z</time>
      </trkpt>
      <trkpt lat="46.64818" lon="-0.24868">
        <ele>170</ele>
        <time>2012-09-14T13:45:30Z</time>
      </trkpt>
      <trkpt lat="46.64819" lon="-0.24863">
        <ele>170</ele>
        <time>2012-09-14T13:45:36Z</time>
      </trkpt>
      <trkpt lat="46.64819" lon="-0.2486">
        <ele>170</ele>
        <time>2012-09-14T13:45:41Z</time>
      </trkpt>
      <trkpt lat="46.6482" lon="-0.24856">
        <ele>170</ele>
        <time>2012-09-14T13:45:48Z</time>
      </trkpt>
      <trkpt lat="46.64818" lon="-0.24851">
        <ele>170</ele>
        <time>2012-09-14T13:45:53Z</time>
      </trkpt>
      <trkpt lat="46.64819" lon="-0.24844">
        <ele>170</ele>
        <time>2012-09-14T13:45:59Z</time>
      </trkpt>
      <trkpt lat="46.64821" lon="-0.24838">
        <ele>170</ele>
        <time>2012-09-14T13:46:05Z</time>
      </trkpt>
      <trkpt lat="46.64821" lon="-0.24829">
        <ele>169</ele>
        <time>2012-09-14T13:46:10Z</time>
      </trkpt>
      <trkpt lat="46.64822" lon="-0.24821">
        <ele>169</ele>
        <time>2012-09-14T13:46:15Z</time>
      </trkpt>
      <trkpt lat="46.64825" lon="-0.24812">
        <ele>169</ele>
        <time>2012-09-14T13:46:21Z</time>
      </trkpt>
      <trkpt lat="46.64827" lon="-0.24804">
        <ele>169</ele>
        <time>2012-09-14T13:46:26Z</time>
      </trkpt>
      <trkpt lat="46.64827" lon="-0.24797">
        <ele>169</ele>
        <time>2012-09-14T13:46:31Z</time>
      </trkpt>
      <trkpt lat="46.64831" lon="-0.24794">
        <ele>169</ele>
        <time>2012-09-14T13:46:36Z</time>
      </trkpt>
      <trkpt lat="46.64832" lon="-0.24795">
        <ele>169</ele>
        <time>2012-09-14T13:46:44Z</time>
      </trkpt>
      <trkpt lat="46.6483" lon="-0.24796">
        <ele>169</ele>
        <time>2012-09-14T13:46:50Z</time>
      </trkpt>
      <trkpt lat="46.64834" lon="-0.24777">
        <ele>167</ele>
        <time>2012-09-14T13:47:04Z</time>
      </trkpt>
      <trkpt lat="46.6483" lon="-0.24774">
        <ele>168</ele>
        <time>2012-09-14T13:47:09Z</time>
      </trkpt>
      <trkpt lat="46.64828" lon="-0.24768">
        <ele>168</ele>
        <time>2012-09-14T13:47:15Z</time>
      </trkpt>
      <trkpt lat="46.64829" lon="-0.24757">
        <ele>168</ele>
        <time>2012-09-14T13:47:21Z</time>
      </trkpt>
      <trkpt lat="46.64832" lon="-0.24754">
        <ele>167</ele>
        <time>2012-09-14T13:47:26Z</time>
      </trkpt>
      <trkpt lat="46.64836" lon="-0.2475">
        <ele>167</ele>
        <time>2012-09-14T13:47:32Z</time>
      </trkpt>
      <trkpt lat="46.64842" lon="-0.24748">
        <ele>166</ele>
        <time>2012-09-14T13:47:39Z</time>
      </trkpt>
      <trkpt lat="46.64849" lon="-0.24742">
        <ele>166</ele>
        <time>2012-09-14T13:47:49Z</time>
      </trkpt>
      <trkpt lat="46.64854" lon="-0.24742">
        <ele>166</ele>
        <time>2012-09-14T13:47:56Z</time>
      </trkpt>
      <trkpt lat="46.6486" lon="-0.24742">
        <ele>165</ele>
        <time>2012-09-14T13:48:02Z</time>
      </trkpt>
      <trkpt lat="46.64865" lon="-0.2474">
        <ele>165</ele>
        <time>2012-09-14T13:48:08Z</time>
      </trkpt>
      <trkpt lat="46.64868" lon="-0.24741">
        <ele>165</ele>
        <time>2012-09-14T13:48:13Z</time>
      </trkpt>
      <trkpt lat="46.64871" lon="-0.24743">
        <ele>165</ele>
        <time>2012-09-14T13:48:20Z</time>
      </trkpt>
      <trkpt lat="46.64875" lon="-0.24745">
        <ele>165</ele>
        <time>2012-09-14T13:48:26Z</time>
      </trkpt>
      <trkpt lat="46.64881" lon="-0.24741">
        <ele>165</ele>
        <time>2012-09-14T13:48:33Z</time>
      </trkpt>
      <trkpt lat="46.64886" lon="-0.2474">
        <ele>164</ele>
        <time>2012-09-14T13:48:39Z</time>
      </trkpt>
      <trkpt lat="46.64893" lon="-0.24737">
        <ele>164</ele>
        <time>2012-09-14T13:48:44Z</time>
      </trkpt>
      <trkpt lat="46.64897" lon="-0.24738">
        <ele>164</ele>
        <time>2012-09-14T13:48:49Z</time>
      </trkpt>
      <trkpt lat="46.64902" lon="-0.24734">
        <ele>164</ele>
        <time>2012-09-14T13:48:55Z</time>
      </trkpt>
      <trkpt lat="46.64906" lon="-0.24726">
        <ele>164</ele>
        <time>2012-09-14T13:49:00Z</time>
      </trkpt>
      <trkpt lat="46.64909" lon="-0.24719">
        <ele>164</ele>
        <time>2012-09-14T13:49:06Z</time>
      </trkpt>
      <trkpt lat="46.64918" lon="-0.24715">
        <ele>161</ele>
        <time>2012-09-14T13:49:11Z</time>
      </trkpt>
      <trkpt lat="46.64926" lon="-0.24714">
        <ele>161</ele>
        <time>2012-09-14T13:49:16Z</time>
      </trkpt>
      <trkpt lat="46.64931" lon="-0.24712">
        <ele>161</ele>
        <time>2012-09-14T13:49:21Z</time>
      </trkpt>
      <trkpt lat="46.64937" lon="-0.24708">
        <ele>161</ele>
        <time>2012-09-14T13:49:26Z</time>
      </trkpt>
      <trkpt lat="46.64944" lon="-0.24706">
        <ele>161</ele>
        <time>2012-09-14T13:49:31Z</time>
      </trkpt>
      <trkpt lat="46.6495" lon="-0.24706">
        <ele>160</ele>
        <time>2012-09-14T13:49:37Z</time>
      </trkpt>
      <trkpt lat="46.64955" lon="-0.24706">
        <ele>160</ele>
        <time>2012-09-14T13:49:42Z</time>
      </trkpt>
      <trkpt lat="46.64962" lon="-0.24711">
        <ele>160</ele>
        <time>2012-09-14T13:49:47Z</time>
      </trkpt>
      <trkpt lat="46.64972" lon="-0.24713">
        <ele>160</ele>
        <time>2012-09-14T13:49:53Z</time>
      </trkpt>
      <trkpt lat="46.64974" lon="-0.24718">
        <ele>160</ele>
        <time>2012-09-14T13:49:59Z</time>
      </trkpt>
      <trkpt lat="46.6498" lon="-0.24716">
        <ele>160</ele>
        <time>2012-09-14T13:50:04Z</time>
      </trkpt>
      <trkpt lat="46.64987" lon="-0.24714">
        <ele>160</ele>
        <time>2012-09-14T13:50:09Z</time>
      </trkpt>
      <trkpt lat="46.64991" lon="-0.2471">
        <ele>159</ele>
        <time>2012-09-14T13:50:14Z</time>
      </trkpt>
      <trkpt lat="46.64996" lon="-0.24705">
        <ele>159</ele>
        <time>2012-09-14T13:50:20Z</time>
      </trkpt>
      <trkpt lat="46.65004" lon="-0.24698">
        <ele>156</ele>
        <time>2012-09-14T13:50:26Z</time>
      </trkpt>
      <trkpt lat="46.6501" lon="-0.24698">
        <ele>156</ele>
        <time>2012-09-14T13:50:32Z</time>
      </trkpt>
      <trkpt lat="46.65016" lon="-0.24698">
        <ele>156</ele>
        <time>2012-09-14T13:50:37Z</time>
      </trkpt>
      <trkpt lat="46.65021" lon="-0.24697">
        <ele>155</ele>
        <time>2012-09-14T13:50:42Z</time>
      </trkpt>
      <trkpt lat="46.65026" lon="-0.24696">
        <ele>155</ele>
        <time>2012-09-14T13:50:48Z</time>
      </trkpt>
      <trkpt lat="46.65033" lon="-0.24694">
        <ele>155</ele>
        <time>2012-09-14T13:50:54Z</time>
      </trkpt>
      <trkpt lat="46.65039" lon="-0.24694">
        <ele>155</ele>
        <time>2012-09-14T13:51:00Z</time>
      </trkpt>
      <trkpt lat="46.65042" lon="-0.24697">
        <ele>155</ele>
        <time>2012-09-14T13:51:06Z</time>
      </trkpt>
      <trkpt lat="46.65048" lon="-0.247">
        <ele>155</ele>
        <time>2012-09-14T13:51:12Z</time>
      </trkpt>
      <trkpt lat="46.65051" lon="-0.24704">
        <ele>155</ele>
        <time>2012-09-14T13:51:18Z</time>
      </trkpt>
      <trkpt lat="46.65056" lon="-0.24707">
        <ele>155</ele>
        <time>2012-09-14T13:51:24Z</time>
      </trkpt>
      <trkpt lat="46.65061" lon="-0.24711">
        <ele>154</ele>
        <time>2012-09-14T13:51:29Z</time>
      </trkpt>
      <trkpt lat="46.65064" lon="-0.24717">
        <ele>154</ele>
        <time>2012-09-14T13:51:35Z</time>
      </trkpt>
      <trkpt lat="46.65068" lon="-0.24725">
        <ele>154</ele>
        <time>2012-09-14T13:51:41Z</time>
      </trkpt>
      <trkpt lat="46.65073" lon="-0.24731">
        <ele>154</ele>
        <time>2012-09-14T13:51:46Z</time>
      </trkpt>
      <trkpt lat="46.65078" lon="-0.2474">
        <ele>154</ele>
        <time>2012-09-14T13:51:53Z</time>
      </trkpt>
      <trkpt lat="46.65083" lon="-0.24745">
        <ele>153</ele>
        <time>2012-09-14T13:51:58Z</time>
      </trkpt>
      <trkpt lat="46.6509" lon="-0.24752">
        <ele>152</ele>
        <time>2012-09-14T13:52:04Z</time>
      </trkpt>
      <trkpt lat="46.65094" lon="-0.24756">
        <ele>151</ele>
        <time>2012-09-14T13:52:10Z</time>
      </trkpt>
      <trkpt lat="46.65102" lon="-0.24758">
        <ele>149</ele>
        <time>2012-09-14T13:52:16Z</time>
      </trkpt>
      <trkpt lat="46.65109" lon="-0.24758">
        <ele>149</ele>
        <time>2012-09-14T13:52:22Z</time>
      </trkpt>
      <trkpt lat="46.65116" lon="-0.24755">
        <ele>148</ele>
        <time>2012-09-14T13:52:28Z</time>
      </trkpt>
      <trkpt lat="46.65122" lon="-0.24753">
        <ele>147</ele>
        <time>2012-09-14T13:52:34Z</time>
      </trkpt>
      <trkpt lat="46.65128" lon="-0.24752">
        <ele>146</ele>
        <time>2012-09-14T13:52:40Z</time>
      </trkpt>
      <trkpt lat="46.65134" lon="-0.24752">
        <ele>146</ele>
        <time>2012-09-14T13:52:45Z</time>
      </trkpt>
      <trkpt lat="46.65141" lon="-0.24752">
        <ele>145</ele>
        <time>2012-09-14T13:52:50Z</time>
      </trkpt>
      <trkpt lat="46.65145" lon="-0.2475">
        <ele>145</ele>
        <time>2012-09-14T13:52:55Z</time>
      </trkpt>
      <trkpt lat="46.65151" lon="-0.24748">
        <ele>144</ele>
        <time>2012-09-14T13:53:00Z</time>
      </trkpt>
      <trkpt lat="46.65156" lon="-0.24747">
        <ele>143</ele>
        <time>2012-09-14T13:53:05Z</time>
      </trkpt>
      <trkpt lat="46.65162" lon="-0.24745">
        <ele>142</ele>
        <time>2012-09-14T13:53:11Z</time>
      </trkpt>
      <trkpt lat="46.65168" lon="-0.24744">
        <ele>140</ele>
        <time>2012-09-14T13:53:16Z</time>
      </trkpt>
      <trkpt lat="46.65174" lon="-0.24742">
        <ele>140</ele>
        <time>2012-09-14T13:53:21Z</time>
      </trkpt>
      <trkpt lat="46.65183" lon="-0.24741">
        <ele>140</ele>
        <time>2012-09-14T13:53:28Z</time>
      </trkpt>
      <trkpt lat="46.65189" lon="-0.24743">
        <ele>140</ele>
        <time>2012-09-14T13:53:34Z</time>
      </trkpt>
      <trkpt lat="46.65197" lon="-0.24747">
        <ele>140</ele>
        <time>2012-09-14T13:53:40Z</time>
      </trkpt>
      <trkpt lat="46.65203" lon="-0.24749">
        <ele>139</ele>
        <time>2012-09-14T13:53:45Z</time>
      </trkpt>
      <trkpt lat="46.65209" lon="-0.24753">
        <ele>137</ele>
        <time>2012-09-14T13:53:51Z</time>
      </trkpt>
      <trkpt lat="46.65214" lon="-0.24758">
        <ele>136</ele>
        <time>2012-09-14T13:53:56Z</time>
      </trkpt>
      <trkpt lat="46.65218" lon="-0.24764">
        <ele>136</ele>
        <time>2012-09-14T13:54:02Z</time>
      </trkpt>
      <trkpt lat="46.6522" lon="-0.24773">
        <ele>136</ele>
        <time>2012-09-14T13:54:08Z</time>
      </trkpt>
      <trkpt lat="46.6522" lon="-0.24782">
        <ele>136</ele>
        <time>2012-09-14T13:54:13Z</time>
      </trkpt>
      <trkpt lat="46.6522" lon="-0.24791">
        <ele>136</ele>
        <time>2012-09-14T13:54:19Z</time>
      </trkpt>
      <trkpt lat="46.65218" lon="-0.248">
        <ele>136</ele>
        <time>2012-09-14T13:54:24Z</time>
      </trkpt>
      <trkpt lat="46.65217" lon="-0.24809">
        <ele>136</ele>
        <time>2012-09-14T13:54:29Z</time>
      </trkpt>
      <trkpt lat="46.65215" lon="-0.24816">
        <ele>136</ele>
        <time>2012-09-14T13:54:35Z</time>
      </trkpt>
      <trkpt lat="46.65213" lon="-0.24824">
        <ele>136</ele>
        <time>2012-09-14T13:54:40Z</time>
      </trkpt>
      <trkpt lat="46.65212" lon="-0.24832">
        <ele>136</ele>
        <time>2012-09-14T13:54:45Z</time>
      </trkpt>
      <trkpt lat="46.65212" lon="-0.24839">
        <ele>135</ele>
        <time>2012-09-14T13:54:50Z</time>
      </trkpt>
      <trkpt lat="46.65208" lon="-0.24848">
        <ele>135</ele>
        <time>2012-09-14T13:54:55Z</time>
      </trkpt>
      <trkpt lat="46.65208" lon="-0.24856">
        <ele>135</ele>
        <time>2012-09-14T13:55:00Z</time>
      </trkpt>
      <trkpt lat="46.6521" lon="-0.24866">
        <ele>135</ele>
        <time>2012-09-14T13:55:06Z</time>
      </trkpt>
      <trkpt lat="46.6521" lon="-0.24874">
        <ele>135</ele>
        <time>2012-09-14T13:55:11Z</time>
      </trkpt>
      <trkpt lat="46.65211" lon="-0.24882">
        <ele>135</ele>
        <time>2012-09-14T13:55:16Z</time>
      </trkpt>
      <trkpt lat="46.65212" lon="-0.2489">
        <ele>134</ele>
        <time>2012-09-14T13:55:21Z</time>
      </trkpt>
      <trkpt lat="46.65214" lon="-0.24898">
        <ele>134</ele>
        <time>2012-09-14T13:55:26Z</time>
      </trkpt>
      <trkpt lat="46.65216" lon="-0.24907">
        <ele>134</ele>
        <time>2012-09-14T13:55:32Z</time>
      </trkpt>
      <trkpt lat="46.65217" lon="-0.24916">
        <ele>134</ele>
        <time>2012-09-14T13:55:37Z</time>
      </trkpt>
      <trkpt lat="46.65215" lon="-0.24917">
        <ele>133</ele>
        <time>2012-09-14T13:55:45Z</time>
      </trkpt>
      <trkpt lat="46.65212" lon="-0.24915">
        <ele>134</ele>
        <time>2012-09-14T13:55:50Z</time>
      </trkpt>
      <trkpt lat="46.65208" lon="-0.2492">
        <ele>134</ele>
        <time>2012-09-14T13:55:55Z</time>
      </trkpt>
      <trkpt lat="46.65209" lon="-0.24927">
        <ele>134</ele>
        <time>2012-09-14T13:56:00Z</time>
      </trkpt>
      <trkpt lat="46.6521" lon="-0.24934">
        <ele>134</ele>
        <time>2012-09-14T13:56:05Z</time>
      </trkpt>
      <trkpt lat="46.65211" lon="-0.24936">
        <ele>134</ele>
        <time>2012-09-14T13:56:10Z</time>
      </trkpt>
      <trkpt lat="46.65211" lon="-0.2494">
        <ele>134</ele>
        <time>2012-09-14T13:56:15Z</time>
      </trkpt>
      <trkpt lat="46.65199" lon="-0.24948">
        <ele>134</ele>
        <time>2012-09-14T13:56:21Z</time>
      </trkpt>
      <trkpt lat="46.65195" lon="-0.24952">
        <ele>134</ele>
        <time>2012-09-14T13:56:26Z</time>
      </trkpt>
      <trkpt lat="46.65194" lon="-0.24955">
        <ele>134</ele>
        <time>2012-09-14T13:56:31Z</time>
      </trkpt>
      <trkpt lat="46.65196" lon="-0.24961">
        <ele>134</ele>
        <time>2012-09-14T13:56:36Z</time>
      </trkpt>
      <trkpt lat="46.65198" lon="-0.24968">
        <ele>134</ele>
        <time>2012-09-14T13:56:41Z</time>
      </trkpt>
      <trkpt lat="46.65201" lon="-0.24976">
        <ele>134</ele>
        <time>2012-09-14T13:56:47Z</time>
      </trkpt>
      <trkpt lat="46.65202" lon="-0.24984">
        <ele>134</ele>
        <time>2012-09-14T13:56:52Z</time>
      </trkpt>
      <trkpt lat="46.65205" lon="-0.24991">
        <ele>133</ele>
        <time>2012-09-14T13:56:58Z</time>
      </trkpt>
      <trkpt lat="46.65208" lon="-0.24993">
        <ele>133</ele>
        <time>2012-09-14T13:57:03Z</time>
      </trkpt>
      <trkpt lat="46.6521" lon="-0.24997">
        <ele>133</ele>
        <time>2012-09-14T13:57:08Z</time>
      </trkpt>
      <trkpt lat="46.65216" lon="-0.25003">
        <ele>134</ele>
        <time>2012-09-14T13:57:13Z</time>
      </trkpt>
      <trkpt lat="46.6522" lon="-0.25013">
        <ele>134</ele>
        <time>2012-09-14T13:57:19Z</time>
      </trkpt>
      <trkpt lat="46.65222" lon="-0.25019">
        <ele>134</ele>
        <time>2012-09-14T13:57:24Z</time>
      </trkpt>
      <trkpt lat="46.65226" lon="-0.25026">
        <ele>134</ele>
        <time>2012-09-14T13:57:30Z</time>
      </trkpt>
      <trkpt lat="46.6523" lon="-0.25032">
        <ele>134</ele>
        <time>2012-09-14T13:57:35Z</time>
      </trkpt>
      <trkpt lat="46.65233" lon="-0.2504">
        <ele>134</ele>
        <time>2012-09-14T13:57:40Z</time>
      </trkpt>
      <trkpt lat="46.65238" lon="-0.2505">
        <ele>134</ele>
        <time>2012-09-14T13:57:46Z</time>
      </trkpt>
      <trkpt lat="46.65241" lon="-0.25056">
        <ele>134</ele>
        <time>2012-09-14T13:57:51Z</time>
      </trkpt>
      <trkpt lat="46.65245" lon="-0.25063">
        <ele>134</ele>
        <time>2012-09-14T13:57:56Z</time>
      </trkpt>
      <trkpt lat="46.65249" lon="-0.25072">
        <ele>134</ele>
        <time>2012-09-14T13:58:02Z</time>
      </trkpt>
      <trkpt lat="46.65253" lon="-0.2508">
        <ele>133</ele>
        <time>2012-09-14T13:58:07Z</time>
      </trkpt>
      <trkpt lat="46.65256" lon="-0.25087">
        <ele>134</ele>
        <time>2012-09-14T13:58:13Z</time>
      </trkpt>
      <trkpt lat="46.65258" lon="-0.25096">
        <ele>134</ele>
        <time>2012-09-14T13:58:19Z</time>
      </trkpt>
      <trkpt lat="46.65253" lon="-0.25104">
        <ele>135</ele>
        <time>2012-09-14T13:58:25Z</time>
      </trkpt>
      <trkpt lat="46.65247" lon="-0.2511">
        <ele>137</ele>
        <time>2012-09-14T13:58:30Z</time>
      </trkpt>
      <trkpt lat="46.65243" lon="-0.25115">
        <ele>137</ele>
        <time>2012-09-14T13:58:36Z</time>
      </trkpt>
      <trkpt lat="46.65241" lon="-0.25116">
        <ele>137</ele>
        <time>2012-09-14T13:58:41Z</time>
      </trkpt>
      <trkpt lat="46.65235" lon="-0.25122">
        <ele>138</ele>
        <time>2012-09-14T13:58:47Z</time>
      </trkpt>
      <trkpt lat="46.6523" lon="-0.25127">
        <ele>138</ele>
        <time>2012-09-14T13:58:52Z</time>
      </trkpt>
      <trkpt lat="46.65224" lon="-0.2513">
        <ele>139</ele>
        <time>2012-09-14T13:58:58Z</time>
      </trkpt>
      <trkpt lat="46.65219" lon="-0.2513">
        <ele>139</ele>
        <time>2012-09-14T13:59:04Z</time>
      </trkpt>
      <trkpt lat="46.65214" lon="-0.25127">
        <ele>139</ele>
        <time>2012-09-14T13:59:10Z</time>
      </trkpt>
      <trkpt lat="46.65207" lon="-0.25125">
        <ele>139</ele>
        <time>2012-09-14T13:59:16Z</time>
      </trkpt>
      <trkpt lat="46.65202" lon="-0.25123">
        <ele>140</ele>
        <time>2012-09-14T13:59:21Z</time>
      </trkpt>
      <trkpt lat="46.65196" lon="-0.25122">
        <ele>140</ele>
        <time>2012-09-14T13:59:26Z</time>
      </trkpt>
      <trkpt lat="46.65191" lon="-0.2512">
        <ele>140</ele>
        <time>2012-09-14T13:59:32Z</time>
      </trkpt>
      <trkpt lat="46.65186" lon="-0.2512">
        <ele>140</ele>
        <time>2012-09-14T13:59:37Z</time>
      </trkpt>
      <trkpt lat="46.65181" lon="-0.25122">
        <ele>140</ele>
        <time>2012-09-14T13:59:43Z</time>
      </trkpt>
      <trkpt lat="46.65175" lon="-0.25123">
        <ele>141</ele>
        <time>2012-09-14T13:59:48Z</time>
      </trkpt>
      <trkpt lat="46.6517" lon="-0.25127">
        <ele>141</ele>
        <time>2012-09-14T13:59:54Z</time>
      </trkpt>
      <trkpt lat="46.65166" lon="-0.25132">
        <ele>147</ele>
        <time>2012-09-14T14:00:00Z</time>
      </trkpt>
      <trkpt lat="46.65163" lon="-0.25136">
        <ele>147</ele>
        <time>2012-09-14T14:00:05Z</time>
      </trkpt>
      <trkpt lat="46.65159" lon="-0.25141">
        <ele>148</ele>
        <time>2012-09-14T14:00:11Z</time>
      </trkpt>
      <trkpt lat="46.65156" lon="-0.25149">
        <ele>148</ele>
        <time>2012-09-14T14:00:16Z</time>
      </trkpt>
      <trkpt lat="46.65157" lon="-0.25152">
        <ele>148</ele>
        <time>2012-09-14T14:00:21Z</time>
      </trkpt>
      <trkpt lat="46.65159" lon="-0.25146">
        <ele>148</ele>
        <time>2012-09-14T14:00:27Z</time>
      </trkpt>
      <trkpt lat="46.65164" lon="-0.25148">
        <ele>148</ele>
        <time>2012-09-14T14:00:33Z</time>
      </trkpt>
      <trkpt lat="46.65168" lon="-0.25155">
        <ele>144</ele>
        <time>2012-09-14T14:00:39Z</time>
      </trkpt>
      <trkpt lat="46.65173" lon="-0.2516">
        <ele>145</ele>
        <time>2012-09-14T14:00:44Z</time>
      </trkpt>
      <trkpt lat="46.65178" lon="-0.25165">
        <ele>144</ele>
        <time>2012-09-14T14:00:49Z</time>
      </trkpt>
      <trkpt lat="46.65183" lon="-0.25166">
        <ele>143</ele>
        <time>2012-09-14T14:00:54Z</time>
      </trkpt>
      <trkpt lat="46.65188" lon="-0.25167">
        <ele>144</ele>
        <time>2012-09-14T14:00:59Z</time>
      </trkpt>
      <trkpt lat="46.65193" lon="-0.25169">
        <ele>143</ele>
        <time>2012-09-14T14:01:05Z</time>
      </trkpt>
      <trkpt lat="46.65198" lon="-0.25174">
        <ele>143</ele>
        <time>2012-09-14T14:01:12Z</time>
      </trkpt>
      <trkpt lat="46.65198" lon="-0.25175">
        <ele>143</ele>
        <time>2012-09-14T14:01:17Z</time>
      </trkpt>
      <trkpt lat="46.65197" lon="-0.25183">
        <ele>143</ele>
        <time>2012-09-14T14:01:22Z</time>
      </trkpt>
      <trkpt lat="46.65194" lon="-0.25189">
        <ele>143</ele>
        <time>2012-09-14T14:01:27Z</time>
      </trkpt>
      <trkpt lat="46.65192" lon="-0.25197">
        <ele>143</ele>
        <time>2012-09-14T14:01:32Z</time>
      </trkpt>
      <trkpt lat="46.65191" lon="-0.25204">
        <ele>143</ele>
        <time>2012-09-14T14:01:37Z</time>
      </trkpt>
      <trkpt lat="46.6519" lon="-0.2521">
        <ele>143</ele>
        <time>2012-09-14T14:01:43Z</time>
      </trkpt>
      <trkpt lat="46.65191" lon="-0.25221">
        <ele>142</ele>
        <time>2012-09-14T14:01:49Z</time>
      </trkpt>
      <trkpt lat="46.65191" lon="-0.2523">
        <ele>142</ele>
        <time>2012-09-14T14:01:54Z</time>
      </trkpt>
      <trkpt lat="46.65191" lon="-0.25239">
        <ele>142</ele>
        <time>2012-09-14T14:01:59Z</time>
      </trkpt>
      <trkpt lat="46.65192" lon="-0.25247">
        <ele>142</ele>
        <time>2012-09-14T14:02:05Z</time>
      </trkpt>
      <trkpt lat="46.65183" lon="-0.25271">
        <ele>140</ele>
        <time>2012-09-14T14:02:11Z</time>
      </trkpt>
      <trkpt lat="46.6519" lon="-0.2528">
        <ele>139</ele>
        <time>2012-09-14T14:02:16Z</time>
      </trkpt>
      <trkpt lat="46.65194" lon="-0.25286">
        <ele>139</ele>
        <time>2012-09-14T14:02:21Z</time>
      </trkpt>
      <trkpt lat="46.65202" lon="-0.25286">
        <ele>139</ele>
        <time>2012-09-14T14:02:27Z</time>
      </trkpt>
      <trkpt lat="46.65209" lon="-0.25282">
        <ele>139</ele>
        <time>2012-09-14T14:02:32Z</time>
      </trkpt>
      <trkpt lat="46.65216" lon="-0.2528">
        <ele>139</ele>
        <time>2012-09-14T14:02:37Z</time>
      </trkpt>
      <trkpt lat="46.65222" lon="-0.2528">
        <ele>139</ele>
        <time>2012-09-14T14:02:42Z</time>
      </trkpt>
      <trkpt lat="46.65229" lon="-0.25279">
        <ele>139</ele>
        <time>2012-09-14T14:02:47Z</time>
      </trkpt>
      <trkpt lat="46.65235" lon="-0.25279">
        <ele>138</ele>
        <time>2012-09-14T14:02:52Z</time>
      </trkpt>
      <trkpt lat="46.65241" lon="-0.25278">
        <ele>138</ele>
        <time>2012-09-14T14:02:57Z</time>
      </trkpt>
      <trkpt lat="46.65247" lon="-0.25278">
        <ele>138</ele>
        <time>2012-09-14T14:03:02Z</time>
      </trkpt>
      <trkpt lat="46.65253" lon="-0.25278">
        <ele>137</ele>
        <time>2012-09-14T14:03:07Z</time>
      </trkpt>
      <trkpt lat="46.65259" lon="-0.25277">
        <ele>137</ele>
        <time>2012-09-14T14:03:12Z</time>
      </trkpt>
      <trkpt lat="46.65266" lon="-0.25275">
        <ele>137</ele>
        <time>2012-09-14T14:03:17Z</time>
      </trkpt>
      <trkpt lat="46.65272" lon="-0.25273">
        <ele>137</ele>
        <time>2012-09-14T14:03:22Z</time>
      </trkpt>
      <trkpt lat="46.65278" lon="-0.25271">
        <ele>137</ele>
        <time>2012-09-14T14:03:27Z</time>
      </trkpt>
      <trkpt lat="46.65285" lon="-0.25268">
        <ele>137</ele>
        <time>2012-09-14T14:03:33Z</time>
      </trkpt>
      <trkpt lat="46.65291" lon="-0.25266">
        <ele>137</ele>
        <time>2012-09-14T14:03:38Z</time>
      </trkpt>
      <trkpt lat="46.65297" lon="-0.25267">
        <ele>137</ele>
        <time>2012-09-14T14:03:44Z</time>
      </trkpt>
      <trkpt lat="46.65303" lon="-0.2527">
        <ele>137</ele>
        <time>2012-09-14T14:03:49Z</time>
      </trkpt>
      <trkpt lat="46.65309" lon="-0.2527">
        <ele>137</ele>
        <time>2012-09-14T14:03:54Z</time>
      </trkpt>
      <trkpt lat="46.65316" lon="-0.25264">
        <ele>137</ele>
        <time>2012-09-14T14:04:00Z</time>
      </trkpt>
      <trkpt lat="46.6532" lon="-0.25256">
        <ele>137</ele>
        <time>2012-09-14T14:04:05Z</time>
      </trkpt>
      <trkpt lat="46.65324" lon="-0.25251">
        <ele>137</ele>
        <time>2012-09-14T14:04:10Z</time>
      </trkpt>
      <trkpt lat="46.65328" lon="-0.25244">
        <ele>137</ele>
        <time>2012-09-14T14:04:15Z</time>
      </trkpt>
      <trkpt lat="46.65333" lon="-0.25236">
        <ele>137</ele>
        <time>2012-09-14T14:04:21Z</time>
      </trkpt>
      <trkpt lat="46.65336" lon="-0.25229">
        <ele>137</ele>
        <time>2012-09-14T14:04:27Z</time>
      </trkpt>
      <trkpt lat="46.6534" lon="-0.25223">
        <ele>138</ele>
        <time>2012-09-14T14:04:33Z</time>
      </trkpt>
      <trkpt lat="46.65342" lon="-0.25215">
        <ele>138</ele>
        <time>2012-09-14T14:04:39Z</time>
      </trkpt>
      <trkpt lat="46.65347" lon="-0.25209">
        <ele>138</ele>
        <time>2012-09-14T14:04:45Z</time>
      </trkpt>
      <trkpt lat="46.6535" lon="-0.25207">
        <ele>138</ele>
        <time>2012-09-14T14:04:51Z</time>
      </trkpt>
      <trkpt lat="46.65349" lon="-0.25203">
        <ele>138</ele>
        <time>2012-09-14T14:04:58Z</time>
      </trkpt>
      <trkpt lat="46.65347" lon="-0.25194">
        <ele>137</ele>
        <time>2012-09-14T14:05:04Z</time>
      </trkpt>
      <trkpt lat="46.65344" lon="-0.25186">
        <ele>137</ele>
        <time>2012-09-14T14:05:09Z</time>
      </trkpt>
      <trkpt lat="46.65343" lon="-0.25177">
        <ele>137</ele>
        <time>2012-09-14T14:05:14Z</time>
      </trkpt>
      <trkpt lat="46.65339" lon="-0.25168">
        <ele>136</ele>
        <time>2012-09-14T14:05:20Z</time>
      </trkpt>
      <trkpt lat="46.65336" lon="-0.25162">
        <ele>136</ele>
        <time>2012-09-14T14:05:25Z</time>
      </trkpt>
      <trkpt lat="46.65332" lon="-0.25156">
        <ele>135</ele>
        <time>2012-09-14T14:05:31Z</time>
      </trkpt>
      <trkpt lat="46.65327" lon="-0.25149">
        <ele>135</ele>
        <time>2012-09-14T14:05:37Z</time>
      </trkpt>
      <trkpt lat="46.65324" lon="-0.25143">
        <ele>135</ele>
        <time>2012-09-14T14:05:42Z</time>
      </trkpt>
      <trkpt lat="46.65321" lon="-0.25138">
        <ele>136</ele>
        <time>2012-09-14T14:05:48Z</time>
      </trkpt>
      <trkpt lat="46.65317" lon="-0.25134">
        <ele>136</ele>
        <time>2012-09-14T14:05:55Z</time>
      </trkpt>
      <trkpt lat="46.65314" lon="-0.25125">
        <ele>136</ele>
        <time>2012-09-14T14:06:00Z</time>
      </trkpt>
      <trkpt lat="46.65316" lon="-0.25117">
        <ele>136</ele>
        <time>2012-09-14T14:06:06Z</time>
      </trkpt>
      <trkpt lat="46.65317" lon="-0.2511">
        <ele>136</ele>
        <time>2012-09-14T14:06:12Z</time>
      </trkpt>
      <trkpt lat="46.65319" lon="-0.25107">
        <ele>136</ele>
        <time>2012-09-14T14:06:20Z</time>
      </trkpt>
      <trkpt lat="46.65321" lon="-0.25104">
        <ele>136</ele>
        <time>2012-09-14T14:06:26Z</time>
      </trkpt>
      <trkpt lat="46.65324" lon="-0.251">
        <ele>136</ele>
        <time>2012-09-14T14:06:32Z</time>
      </trkpt>
      <trkpt lat="46.65325" lon="-0.25096">
        <ele>136</ele>
        <time>2012-09-14T14:06:38Z</time>
      </trkpt>
      <trkpt lat="46.65328" lon="-0.25092">
        <ele>136</ele>
        <time>2012-09-14T14:06:43Z</time>
      </trkpt>
      <trkpt lat="46.65331" lon="-0.25087">
        <ele>137</ele>
        <time>2012-09-14T14:06:49Z</time>
      </trkpt>
      <trkpt lat="46.65334" lon="-0.25082">
        <ele>138</ele>
        <time>2012-09-14T14:06:56Z</time>
      </trkpt>
      <trkpt lat="46.65331" lon="-0.25076">
        <ele>137</ele>
        <time>2012-09-14T14:07:02Z</time>
      </trkpt>
      <trkpt lat="46.65327" lon="-0.25071">
        <ele>136</ele>
        <time>2012-09-14T14:07:08Z</time>
      </trkpt>
      <trkpt lat="46.65322" lon="-0.25067">
        <ele>136</ele>
        <time>2012-09-14T14:07:14Z</time>
      </trkpt>
      <trkpt lat="46.65317" lon="-0.25061">
        <ele>136</ele>
        <time>2012-09-14T14:07:19Z</time>
      </trkpt>
      <trkpt lat="46.65315" lon="-0.25056">
        <ele>136</ele>
        <time>2012-09-14T14:07:24Z</time>
      </trkpt>
      <trkpt lat="46.65312" lon="-0.25049">
        <ele>136</ele>
        <time>2012-09-14T14:07:34Z</time>
      </trkpt>
      <trkpt lat="46.65309" lon="-0.25046">
        <ele>136</ele>
        <time>2012-09-14T14:07:39Z</time>
      </trkpt>
      <trkpt lat="46.65307" lon="-0.2504">
        <ele>136</ele>
        <time>2012-09-14T14:07:45Z</time>
      </trkpt>
      <trkpt lat="46.65306" lon="-0.25035">
        <ele>136</ele>
        <time>2012-09-14T14:07:51Z</time>
      </trkpt>
      <trkpt lat="46.65308" lon="-0.25033">
        <ele>136</ele>
        <time>2012-09-14T14:08:01Z</time>
      </trkpt>
      <trkpt lat="46.65311" lon="-0.25037">
        <ele>136</ele>
        <time>2012-09-14T14:08:06Z</time>
      </trkpt>
      <trkpt lat="46.65314" lon="-0.25041">
        <ele>136</ele>
        <time>2012-09-14T14:08:12Z</time>
      </trkpt>
      <trkpt lat="46.65319" lon="-0.25045">
        <ele>136</ele>
        <time>2012-09-14T14:08:18Z</time>
      </trkpt>
      <trkpt lat="46.65324" lon="-0.25047">
        <ele>136</ele>
        <time>2012-09-14T14:08:24Z</time>
      </trkpt>
      <trkpt lat="46.65328" lon="-0.25051">
        <ele>136</ele>
        <time>2012-09-14T14:08:30Z</time>
      </trkpt>
      <trkpt lat="46.6533" lon="-0.25054">
        <ele>136</ele>
        <time>2012-09-14T14:08:35Z</time>
      </trkpt>
      <trkpt lat="46.65333" lon="-0.25059">
        <ele>136</ele>
        <time>2012-09-14T14:08:40Z</time>
      </trkpt>
      <trkpt lat="46.65336" lon="-0.25063">
        <ele>141</ele>
        <time>2012-09-14T14:08:47Z</time>
      </trkpt>
      <trkpt lat="46.65339" lon="-0.25067">
        <ele>140</ele>
        <time>2012-09-14T14:08:53Z</time>
      </trkpt>
      <trkpt lat="46.65341" lon="-0.25069">
        <ele>140</ele>
        <time>2012-09-14T14:08:59Z</time>
      </trkpt>
      <trkpt lat="46.65347" lon="-0.25066">
        <ele>141</ele>
        <time>2012-09-14T14:09:07Z</time>
      </trkpt>
      <trkpt lat="46.65358" lon="-0.25078">
        <ele>142</ele>
        <time>2012-09-14T14:09:12Z</time>
      </trkpt>
      <trkpt lat="46.6536" lon="-0.25081">
        <ele>142</ele>
        <time>2012-09-14T14:09:17Z</time>
      </trkpt>
      <trkpt lat="46.65363" lon="-0.25089">
        <ele>141</ele>
        <time>2012-09-14T14:09:23Z</time>
      </trkpt>
      <trkpt lat="46.65366" lon="-0.25096">
        <ele>141</ele>
        <time>2012-09-14T14:09:29Z</time>
      </trkpt>
      <trkpt lat="46.6537" lon="-0.25102">
        <ele>142</ele>
        <time>2012-09-14T14:09:35Z</time>
      </trkpt>
      <trkpt lat="46.65375" lon="-0.25107">
        <ele>142</ele>
        <time>2012-09-14T14:09:41Z</time>
      </trkpt>
      <trkpt lat="46.6538" lon="-0.25109">
        <ele>143</ele>
        <time>2012-09-14T14:09:47Z</time>
      </trkpt>
      <trkpt lat="46.65385" lon="-0.25111">
        <ele>143</ele>
        <time>2012-09-14T14:09:52Z</time>
      </trkpt>
      <trkpt lat="46.65389" lon="-0.25115">
        <ele>143</ele>
        <time>2012-09-14T14:09:57Z</time>
      </trkpt>
      <trkpt lat="46.65395" lon="-0.2512">
        <ele>143</ele>
        <time>2012-09-14T14:10:03Z</time>
      </trkpt>
      <trkpt lat="46.65398" lon="-0.25127">
        <ele>143</ele>
        <time>2012-09-14T14:10:08Z</time>
      </trkpt>
      <trkpt lat="46.65401" lon="-0.25136">
        <ele>143</ele>
        <time>2012-09-14T14:10:14Z</time>
      </trkpt>
      <trkpt lat="46.65403" lon="-0.25144">
        <ele>143</ele>
        <time>2012-09-14T14:10:19Z</time>
      </trkpt>
      <trkpt lat="46.65405" lon="-0.25151">
        <ele>143</ele>
        <time>2012-09-14T14:10:24Z</time>
      </trkpt>
      <trkpt lat="46.65409" lon="-0.25158">
        <ele>143</ele>
        <time>2012-09-14T14:10:29Z</time>
      </trkpt>
      <trkpt lat="46.65411" lon="-0.25165">
        <ele>144</ele>
        <time>2012-09-14T14:10:34Z</time>
      </trkpt>
      <trkpt lat="46.65414" lon="-0.25171">
        <ele>143</ele>
        <time>2012-09-14T14:10:39Z</time>
      </trkpt>
      <trkpt lat="46.65417" lon="-0.2518">
        <ele>144</ele>
        <time>2012-09-14T14:10:45Z</time>
      </trkpt>
      <trkpt lat="46.6542" lon="-0.25187">
        <ele>144</ele>
        <time>2012-09-14T14:10:51Z</time>
      </trkpt>
      <trkpt lat="46.65422" lon="-0.25194">
        <ele>144</ele>
        <time>2012-09-14T14:10:56Z</time>
      </trkpt>
      <trkpt lat="46.65426" lon="-0.25201">
        <ele>144</ele>
        <time>2012-09-14T14:11:02Z</time>
      </trkpt>
      <trkpt lat="46.65428" lon="-0.25207">
        <ele>144</ele>
        <time>2012-09-14T14:11:08Z</time>
      </trkpt>
      <trkpt lat="46.65432" lon="-0.25216">
        <ele>143</ele>
        <time>2012-09-14T14:11:14Z</time>
      </trkpt>
      <trkpt lat="46.65436" lon="-0.25223">
        <ele>143</ele>
        <time>2012-09-14T14:11:19Z</time>
      </trkpt>
      <trkpt lat="46.6544" lon="-0.25231">
        <ele>143</ele>
        <time>2012-09-14T14:11:24Z</time>
      </trkpt>
      <trkpt lat="46.65444" lon="-0.2524">
        <ele>143</ele>
        <time>2012-09-14T14:11:29Z</time>
      </trkpt>
      <trkpt lat="46.65447" lon="-0.25246">
        <ele>143</ele>
        <time>2012-09-14T14:11:34Z</time>
      </trkpt>
      <trkpt lat="46.6545" lon="-0.25256">
        <ele>140</ele>
        <time>2012-09-14T14:11:39Z</time>
      </trkpt>
      <trkpt lat="46.65452" lon="-0.25263">
        <ele>140</ele>
        <time>2012-09-14T14:11:44Z</time>
      </trkpt>
      <trkpt lat="46.65454" lon="-0.25271">
        <ele>140</ele>
        <time>2012-09-14T14:11:49Z</time>
      </trkpt>
      <trkpt lat="46.65455" lon="-0.25282">
        <ele>140</ele>
        <time>2012-09-14T14:11:54Z</time>
      </trkpt>
      <trkpt lat="46.65456" lon="-0.25292">
        <ele>140</ele>
        <time>2012-09-14T14:11:59Z</time>
      </trkpt>
      <trkpt lat="46.65455" lon="-0.25302">
        <ele>139</ele>
        <time>2012-09-14T14:12:04Z</time>
      </trkpt>
      <trkpt lat="46.65456" lon="-0.2531">
        <ele>139</ele>
        <time>2012-09-14T14:12:09Z</time>
      </trkpt>
      <trkpt lat="46.65456" lon="-0.2532">
        <ele>139</ele>
        <time>2012-09-14T14:12:14Z</time>
      </trkpt>
      <trkpt lat="46.65456" lon="-0.25329">
        <ele>139</ele>
        <time>2012-09-14T14:12:19Z</time>
      </trkpt>
      <trkpt lat="46.65454" lon="-0.25337">
        <ele>140</ele>
        <time>2012-09-14T14:12:24Z</time>
      </trkpt>
      <trkpt lat="46.6545" lon="-0.25346">
        <ele>140</ele>
        <time>2012-09-14T14:12:30Z</time>
      </trkpt>
      <trkpt lat="46.65446" lon="-0.25352">
        <ele>140</ele>
        <time>2012-09-14T14:12:36Z</time>
      </trkpt>
      <trkpt lat="46.6544" lon="-0.25354">
        <ele>139</ele>
        <time>2012-09-14T14:12:42Z</time>
      </trkpt>
      <trkpt lat="46.65435" lon="-0.25361">
        <ele>140</ele>
        <time>2012-09-14T14:12:48Z</time>
      </trkpt>
      <trkpt lat="46.65431" lon="-0.25368">
        <ele>140</ele>
        <time>2012-09-14T14:12:54Z</time>
      </trkpt>
      <trkpt lat="46.65428" lon="-0.25374">
        <ele>140</ele>
        <time>2012-09-14T14:13:00Z</time>
      </trkpt>
      <trkpt lat="46.65426" lon="-0.2538">
        <ele>140</ele>
        <time>2012-09-14T14:13:05Z</time>
      </trkpt>
      <trkpt lat="46.65423" lon="-0.2539">
        <ele>140</ele>
        <time>2012-09-14T14:13:10Z</time>
      </trkpt>
      <trkpt lat="46.65418" lon="-0.25401">
        <ele>141</ele>
        <time>2012-09-14T14:13:15Z</time>
      </trkpt>
      <trkpt lat="46.65412" lon="-0.25411">
        <ele>140</ele>
        <time>2012-09-14T14:13:21Z</time>
      </trkpt>
      <trkpt lat="46.65407" lon="-0.25419">
        <ele>141</ele>
        <time>2012-09-14T14:13:26Z</time>
      </trkpt>
      <trkpt lat="46.65405" lon="-0.25423">
        <ele>141</ele>
        <time>2012-09-14T14:13:31Z</time>
      </trkpt>
      <trkpt lat="46.654" lon="-0.2543">
        <ele>141</ele>
        <time>2012-09-14T14:13:37Z</time>
      </trkpt>
      <trkpt lat="46.65395" lon="-0.25437">
        <ele>140</ele>
        <time>2012-09-14T14:13:42Z</time>
      </trkpt>
      <trkpt lat="46.65389" lon="-0.25446">
        <ele>140</ele>
        <time>2012-09-14T14:13:48Z</time>
      </trkpt>
      <trkpt lat="46.65383" lon="-0.25453">
        <ele>140</ele>
        <time>2012-09-14T14:13:53Z</time>
      </trkpt>
      <trkpt lat="46.65377" lon="-0.25459">
        <ele>140</ele>
        <time>2012-09-14T14:13:59Z</time>
      </trkpt>
      <trkpt lat="46.65371" lon="-0.25465">
        <ele>140</ele>
        <time>2012-09-14T14:14:05Z</time>
      </trkpt>
      <trkpt lat="46.65366" lon="-0.25469">
        <ele>140</ele>
        <time>2012-09-14T14:14:10Z</time>
      </trkpt>
      <trkpt lat="46.65361" lon="-0.25473">
        <ele>140</ele>
        <time>2012-09-14T14:14:15Z</time>
      </trkpt>
      <trkpt lat="46.65355" lon="-0.25478">
        <ele>140</ele>
        <time>2012-09-14T14:14:21Z</time>
      </trkpt>
      <trkpt lat="46.6535" lon="-0.25483">
        <ele>140</ele>
        <time>2012-09-14T14:14:27Z</time>
      </trkpt>
      <trkpt lat="46.65345" lon="-0.25487">
        <ele>140</ele>
        <time>2012-09-14T14:14:33Z</time>
      </trkpt>
      <trkpt lat="46.65339" lon="-0.25491">
        <ele>140</ele>
        <time>2012-09-14T14:14:38Z</time>
      </trkpt>
      <trkpt lat="46.65334" lon="-0.25496">
        <ele>140</ele>
        <time>2012-09-14T14:14:43Z</time>
      </trkpt>
      <trkpt lat="46.65328" lon="-0.25501">
        <ele>140</ele>
        <time>2012-09-14T14:14:49Z</time>
      </trkpt>
      <trkpt lat="46.65322" lon="-0.25505">
        <ele>140</ele>
        <time>2012-09-14T14:14:55Z</time>
      </trkpt>
      <trkpt lat="46.65316" lon="-0.25511">
        <ele>140</ele>
        <time>2012-09-14T14:15:00Z</time>
      </trkpt>
      <trkpt lat="46.65311" lon="-0.25518">
        <ele>140</ele>
        <time>2012-09-14T14:15:05Z</time>
      </trkpt>
      <trkpt lat="46.65307" lon="-0.25525">
        <ele>140</ele>
        <time>2012-09-14T14:15:10Z</time>
      </trkpt>
      <trkpt lat="46.65303" lon="-0.25534">
        <ele>140</ele>
        <time>2012-09-14T14:15:15Z</time>
      </trkpt>
      <trkpt lat="46.653" lon="-0.25542">
        <ele>140</ele>
        <time>2012-09-14T14:15:20Z</time>
      </trkpt>
      <trkpt lat="46.65297" lon="-0.2555">
        <ele>140</ele>
        <time>2012-09-14T14:15:25Z</time>
      </trkpt>
      <trkpt lat="46.65293" lon="-0.25556">
        <ele>140</ele>
        <time>2012-09-14T14:15:30Z</time>
      </trkpt>
      <trkpt lat="46.65288" lon="-0.25561">
        <ele>140</ele>
        <time>2012-09-14T14:15:35Z</time>
      </trkpt>
      <trkpt lat="46.65283" lon="-0.25566">
        <ele>140</ele>
        <time>2012-09-14T14:15:40Z</time>
      </trkpt>
      <trkpt lat="46.65278" lon="-0.25572">
        <ele>140</ele>
        <time>2012-09-14T14:15:46Z</time>
      </trkpt>
      <trkpt lat="46.65275" lon="-0.25578">
        <ele>140</ele>
        <time>2012-09-14T14:15:53Z</time>
      </trkpt>
      <trkpt lat="46.65271" lon="-0.25584">
        <ele>142</ele>
        <time>2012-09-14T14:15:59Z</time>
      </trkpt>
      <trkpt lat="46.65268" lon="-0.25592">
        <ele>142</ele>
        <time>2012-09-14T14:16:04Z</time>
      </trkpt>
      <trkpt lat="46.65266" lon="-0.256">
        <ele>142</ele>
        <time>2012-09-14T14:16:09Z</time>
      </trkpt>
      <trkpt lat="46.65264" lon="-0.25606">
        <ele>142</ele>
        <time>2012-09-14T14:16:15Z</time>
      </trkpt>
      <trkpt lat="46.65261" lon="-0.25611">
        <ele>142</ele>
        <time>2012-09-14T14:16:20Z</time>
      </trkpt>
      <trkpt lat="46.65256" lon="-0.25614">
        <ele>142</ele>
        <time>2012-09-14T14:16:26Z</time>
      </trkpt>
      <trkpt lat="46.65251" lon="-0.25616">
        <ele>142</ele>
        <time>2012-09-14T14:16:31Z</time>
      </trkpt>
      <trkpt lat="46.65245" lon="-0.25616">
        <ele>141</ele>
        <time>2012-09-14T14:16:36Z</time>
      </trkpt>
      <trkpt lat="46.65239" lon="-0.25615">
        <ele>141</ele>
        <time>2012-09-14T14:16:41Z</time>
      </trkpt>
      <trkpt lat="46.65234" lon="-0.25614">
        <ele>141</ele>
        <time>2012-09-14T14:16:46Z</time>
      </trkpt>
      <trkpt lat="46.65229" lon="-0.2561">
        <ele>141</ele>
        <time>2012-09-14T14:16:51Z</time>
      </trkpt>
      <trkpt lat="46.65224" lon="-0.25605">
        <ele>141</ele>
        <time>2012-09-14T14:16:57Z</time>
      </trkpt>
      <trkpt lat="46.65218" lon="-0.25604">
        <ele>141</ele>
        <time>2012-09-14T14:17:02Z</time>
      </trkpt>
      <trkpt lat="46.65211" lon="-0.25604">
        <ele>141</ele>
        <time>2012-09-14T14:17:07Z</time>
      </trkpt>
      <trkpt lat="46.65205" lon="-0.25606">
        <ele>141</ele>
        <time>2012-09-14T14:17:12Z</time>
      </trkpt>
      <trkpt lat="46.652" lon="-0.25607">
        <ele>142</ele>
        <time>2012-09-14T14:17:17Z</time>
      </trkpt>
      <trkpt lat="46.65195" lon="-0.25609">
        <ele>142</ele>
        <time>2012-09-14T14:17:22Z</time>
      </trkpt>
      <trkpt lat="46.65188" lon="-0.2561">
        <ele>142</ele>
        <time>2012-09-14T14:17:28Z</time>
      </trkpt>
      <trkpt lat="46.65183" lon="-0.25612">
        <ele>142</ele>
        <time>2012-09-14T14:17:33Z</time>
      </trkpt>
      <trkpt lat="46.65177" lon="-0.25612">
        <ele>142</ele>
        <time>2012-09-14T14:17:39Z</time>
      </trkpt>
      <trkpt lat="46.6517" lon="-0.25612">
        <ele>142</ele>
        <time>2012-09-14T14:17:45Z</time>
      </trkpt>
      <trkpt lat="46.65164" lon="-0.2561">
        <ele>142</ele>
        <time>2012-09-14T14:17:50Z</time>
      </trkpt>
      <trkpt lat="46.65159" lon="-0.25612">
        <ele>143</ele>
        <time>2012-09-14T14:17:56Z</time>
      </trkpt>
      <trkpt lat="46.65153" lon="-0.25612">
        <ele>143</ele>
        <time>2012-09-14T14:18:01Z</time>
      </trkpt>
      <trkpt lat="46.65147" lon="-0.25613">
        <ele>143</ele>
        <time>2012-09-14T14:18:06Z</time>
      </trkpt>
      <trkpt lat="46.65142" lon="-0.25613">
        <ele>143</ele>
        <time>2012-09-14T14:18:11Z</time>
      </trkpt>
      <trkpt lat="46.65134" lon="-0.2561">
        <ele>143</ele>
        <time>2012-09-14T14:18:17Z</time>
      </trkpt>
      <trkpt lat="46.65128" lon="-0.25608">
        <ele>143</ele>
        <time>2012-09-14T14:18:22Z</time>
      </trkpt>
      <trkpt lat="46.65122" lon="-0.25607">
        <ele>143</ele>
        <time>2012-09-14T14:18:27Z</time>
      </trkpt>
      <trkpt lat="46.65116" lon="-0.25606">
        <ele>143</ele>
        <time>2012-09-14T14:18:32Z</time>
      </trkpt>
      <trkpt lat="46.6511" lon="-0.25603">
        <ele>143</ele>
        <time>2012-09-14T14:18:37Z</time>
      </trkpt>
      <trkpt lat="46.65103" lon="-0.256">
        <ele>143</ele>
        <time>2012-09-14T14:18:42Z</time>
      </trkpt>
      <trkpt lat="46.65097" lon="-0.25601">
        <ele>143</ele>
        <time>2012-09-14T14:18:47Z</time>
      </trkpt>
      <trkpt lat="46.6509" lon="-0.25602">
        <ele>143</ele>
        <time>2012-09-14T14:18:53Z</time>
      </trkpt>
      <trkpt lat="46.65084" lon="-0.25601">
        <ele>143</ele>
        <time>2012-09-14T14:18:58Z</time>
      </trkpt>
      <trkpt lat="46.65078" lon="-0.25601">
        <ele>144</ele>
        <time>2012-09-14T14:19:03Z</time>
      </trkpt>
      <trkpt lat="46.65071" lon="-0.25603">
        <ele>144</ele>
        <time>2012-09-14T14:19:08Z</time>
      </trkpt>
      <trkpt lat="46.65066" lon="-0.25606">
        <ele>145</ele>
        <time>2012-09-14T14:19:13Z</time>
      </trkpt>
      <trkpt lat="46.65059" lon="-0.25611">
        <ele>145</ele>
        <time>2012-09-14T14:19:19Z</time>
      </trkpt>
      <trkpt lat="46.65053" lon="-0.25615">
        <ele>145</ele>
        <time>2012-09-14T14:19:24Z</time>
      </trkpt>
      <trkpt lat="46.65047" lon="-0.25617">
        <ele>145</ele>
        <time>2012-09-14T14:19:29Z</time>
      </trkpt>
      <trkpt lat="46.65041" lon="-0.25618">
        <ele>145</ele>
        <time>2012-09-14T14:19:34Z</time>
      </trkpt>
      <trkpt lat="46.65035" lon="-0.25621">
        <ele>145</ele>
        <time>2012-09-14T14:19:40Z</time>
      </trkpt>
      <trkpt lat="46.65029" lon="-0.25623">
        <ele>145</ele>
        <time>2012-09-14T14:19:45Z</time>
      </trkpt>
      <trkpt lat="46.65023" lon="-0.25624">
        <ele>145</ele>
        <time>2012-09-14T14:19:50Z</time>
      </trkpt>
      <trkpt lat="46.65019" lon="-0.25627">
        <ele>145</ele>
        <time>2012-09-14T14:19:56Z</time>
      </trkpt>
      <trkpt lat="46.65017" lon="-0.25628">
        <ele>145</ele>
        <time>2012-09-14T14:20:01Z</time>
      </trkpt>
      <trkpt lat="46.65011" lon="-0.25629">
        <ele>146</ele>
        <time>2012-09-14T14:20:07Z</time>
      </trkpt>
      <trkpt lat="46.65006" lon="-0.25631">
        <ele>146</ele>
        <time>2012-09-14T14:20:13Z</time>
      </trkpt>
      <trkpt lat="46.65001" lon="-0.25634">
        <ele>146</ele>
        <time>2012-09-14T14:20:18Z</time>
      </trkpt>
      <trkpt lat="46.64995" lon="-0.25638">
        <ele>146</ele>
        <time>2012-09-14T14:20:24Z</time>
      </trkpt>
      <trkpt lat="46.6499" lon="-0.25642">
        <ele>146</ele>
        <time>2012-09-14T14:20:30Z</time>
      </trkpt>
      <trkpt lat="46.64979" lon="-0.25638">
        <ele>146</ele>
        <time>2012-09-14T14:20:38Z</time>
      </trkpt>
      <trkpt lat="46.64975" lon="-0.25635">
        <ele>146</ele>
        <time>2012-09-14T14:20:45Z</time>
      </trkpt>
      <trkpt lat="46.64972" lon="-0.25631">
        <ele>146</ele>
        <time>2012-09-14T14:20:51Z</time>
      </trkpt>
      <trkpt lat="46.64967" lon="-0.25627">
        <ele>146</ele>
        <time>2012-09-14T14:20:57Z</time>
      </trkpt>
      <trkpt lat="46.64962" lon="-0.25622">
        <ele>145</ele>
        <time>2012-09-14T14:21:03Z</time>
      </trkpt>
      <trkpt lat="46.64957" lon="-0.25621">
        <ele>145</ele>
        <time>2012-09-14T14:21:08Z</time>
      </trkpt>
      <trkpt lat="46.64953" lon="-0.25617">
        <ele>145</ele>
        <time>2012-09-14T14:21:14Z</time>
      </trkpt>
      <trkpt lat="46.64948" lon="-0.25613">
        <ele>145</ele>
        <time>2012-09-14T14:21:20Z</time>
      </trkpt>
      <trkpt lat="46.64943" lon="-0.25608">
        <ele>145</ele>
        <time>2012-09-14T14:21:26Z</time>
      </trkpt>
      <trkpt lat="46.64938" lon="-0.25605">
        <ele>145</ele>
        <time>2012-09-14T14:21:32Z</time>
      </trkpt>
      <trkpt lat="46.64933" lon="-0.25602">
        <ele>145</ele>
        <time>2012-09-14T14:21:38Z</time>
      </trkpt>
      <trkpt lat="46.64928" lon="-0.25598">
        <ele>145</ele>
        <time>2012-09-14T14:21:44Z</time>
      </trkpt>
      <trkpt lat="46.64922" lon="-0.25593">
        <ele>145</ele>
        <time>2012-09-14T14:21:50Z</time>
      </trkpt>
      <trkpt lat="46.64918" lon="-0.25587">
        <ele>144</ele>
        <time>2012-09-14T14:21:56Z</time>
      </trkpt>
      <trkpt lat="46.64913" lon="-0.25582">
        <ele>144</ele>
        <time>2012-09-14T14:22:02Z</time>
      </trkpt>
      <trkpt lat="46.64908" lon="-0.25577">
        <ele>143</ele>
        <time>2012-09-14T14:22:08Z</time>
      </trkpt>
      <trkpt lat="46.64902" lon="-0.25572">
        <ele>142</ele>
        <time>2012-09-14T14:22:14Z</time>
      </trkpt>
      <trkpt lat="46.64897" lon="-0.25568">
        <ele>142</ele>
        <time>2012-09-14T14:22:20Z</time>
      </trkpt>
      <trkpt lat="46.64891" lon="-0.25562">
        <ele>142</ele>
        <time>2012-09-14T14:22:26Z</time>
      </trkpt>
      <trkpt lat="46.64885" lon="-0.25558">
        <ele>142</ele>
        <time>2012-09-14T14:22:32Z</time>
      </trkpt>
      <trkpt lat="46.6488" lon="-0.25556">
        <ele>141</ele>
        <time>2012-09-14T14:22:37Z</time>
      </trkpt>
      <trkpt lat="46.64874" lon="-0.25552">
        <ele>141</ele>
        <time>2012-09-14T14:22:43Z</time>
      </trkpt>
      <trkpt lat="46.64868" lon="-0.25548">
        <ele>141</ele>
        <time>2012-09-14T14:22:49Z</time>
      </trkpt>
      <trkpt lat="46.64863" lon="-0.25543">
        <ele>141</ele>
        <time>2012-09-14T14:22:54Z</time>
      </trkpt>
      <trkpt lat="46.64858" lon="-0.25537">
        <ele>141</ele>
        <time>2012-09-14T14:23:00Z</time>
      </trkpt>
      <trkpt lat="46.64855" lon="-0.25529">
        <ele>140</ele>
        <time>2012-09-14T14:23:06Z</time>
      </trkpt>
      <trkpt lat="46.64852" lon="-0.25522">
        <ele>140</ele>
        <time>2012-09-14T14:23:11Z</time>
      </trkpt>
      <trkpt lat="46.64849" lon="-0.25514">
        <ele>140</ele>
        <time>2012-09-14T14:23:17Z</time>
      </trkpt>
      <trkpt lat="46.64845" lon="-0.25509">
        <ele>139</ele>
        <time>2012-09-14T14:23:23Z</time>
      </trkpt>
      <trkpt lat="46.64843" lon="-0.25503">
        <ele>139</ele>
        <time>2012-09-14T14:23:29Z</time>
      </trkpt>
      <trkpt lat="46.64841" lon="-0.25501">
        <ele>139</ele>
        <time>2012-09-14T14:23:34Z</time>
      </trkpt>
      <trkpt lat="46.64836" lon="-0.25502">
        <ele>138</ele>
        <time>2012-09-14T14:23:40Z</time>
      </trkpt>
      <trkpt lat="46.64841" lon="-0.25498">
        <ele>138</ele>
        <time>2012-09-14T14:23:47Z</time>
      </trkpt>
      <trkpt lat="46.64845" lon="-0.25494">
        <ele>138</ele>
        <time>2012-09-14T14:23:52Z</time>
      </trkpt>
      <trkpt lat="46.64844" lon="-0.25486">
        <ele>138</ele>
        <time>2012-09-14T14:23:57Z</time>
      </trkpt>
      <trkpt lat="46.64842" lon="-0.25476">
        <ele>138</ele>
        <time>2012-09-14T14:24:03Z</time>
      </trkpt>
      <trkpt lat="46.6484" lon="-0.25468">
        <ele>138</ele>
        <time>2012-09-14T14:24:08Z</time>
      </trkpt>
      <trkpt lat="46.64839" lon="-0.25459">
        <ele>138</ele>
        <time>2012-09-14T14:24:13Z</time>
      </trkpt>
      <trkpt lat="46.6484" lon="-0.25449">
        <ele>137</ele>
        <time>2012-09-14T14:24:18Z</time>
      </trkpt>
      <trkpt lat="46.6484" lon="-0.25441">
        <ele>137</ele>
        <time>2012-09-14T14:24:23Z</time>
      </trkpt>
      <trkpt lat="46.64838" lon="-0.25433">
        <ele>137</ele>
        <time>2012-09-14T14:24:28Z</time>
      </trkpt>
      <trkpt lat="46.64835" lon="-0.25425">
        <ele>136</ele>
        <time>2012-09-14T14:24:33Z</time>
      </trkpt>
      <trkpt lat="46.64829" lon="-0.25418">
        <ele>136</ele>
        <time>2012-09-14T14:24:38Z</time>
      </trkpt>
      <trkpt lat="46.64823" lon="-0.25411">
        <ele>137</ele>
        <time>2012-09-14T14:24:44Z</time>
      </trkpt>
      <trkpt lat="46.64818" lon="-0.25405">
        <ele>137</ele>
        <time>2012-09-14T14:24:49Z</time>
      </trkpt>
      <trkpt lat="46.64809" lon="-0.25404">
        <ele>137</ele>
        <time>2012-09-14T14:24:55Z</time>
      </trkpt>
      <trkpt lat="46.64804" lon="-0.25401">
        <ele>137</ele>
        <time>2012-09-14T14:25:00Z</time>
      </trkpt>
      <trkpt lat="46.64798" lon="-0.25397">
        <ele>137</ele>
        <time>2012-09-14T14:25:05Z</time>
      </trkpt>
      <trkpt lat="46.64793" lon="-0.25392">
        <ele>137</ele>
        <time>2012-09-14T14:25:10Z</time>
      </trkpt>
      <trkpt lat="46.64788" lon="-0.25387">
        <ele>137</ele>
        <time>2012-09-14T14:25:16Z</time>
      </trkpt>
      <trkpt lat="46.64784" lon="-0.25382">
        <ele>138</ele>
        <time>2012-09-14T14:25:21Z</time>
      </trkpt>
      <trkpt lat="46.64778" lon="-0.25377">
        <ele>138</ele>
        <time>2012-09-14T14:25:27Z</time>
      </trkpt>
      <trkpt lat="46.64771" lon="-0.25372">
        <ele>138</ele>
        <time>2012-09-14T14:25:32Z</time>
      </trkpt>
      <trkpt lat="46.64765" lon="-0.25367">
        <ele>138</ele>
        <time>2012-09-14T14:25:37Z</time>
      </trkpt>
      <trkpt lat="46.64761" lon="-0.25365">
        <ele>139</ele>
        <time>2012-09-14T14:25:42Z</time>
      </trkpt>
      <trkpt lat="46.64755" lon="-0.25364">
        <ele>139</ele>
        <time>2012-09-14T14:25:47Z</time>
      </trkpt>
      <trkpt lat="46.6475" lon="-0.25363">
        <ele>144</ele>
        <time>2012-09-14T14:25:52Z</time>
      </trkpt>
      <trkpt lat="46.64743" lon="-0.25363">
        <ele>144</ele>
        <time>2012-09-14T14:25:58Z</time>
      </trkpt>
      <trkpt lat="46.64737" lon="-0.25366">
        <ele>145</ele>
        <time>2012-09-14T14:26:03Z</time>
      </trkpt>
      <trkpt lat="46.64731" lon="-0.25368">
        <ele>145</ele>
        <time>2012-09-14T14:26:08Z</time>
      </trkpt>
      <trkpt lat="46.64726" lon="-0.25371">
        <ele>145</ele>
        <time>2012-09-14T14:26:13Z</time>
      </trkpt>
      <trkpt lat="46.6472" lon="-0.25375">
        <ele>146</ele>
        <time>2012-09-14T14:26:18Z</time>
      </trkpt>
      <trkpt lat="46.64714" lon="-0.2538">
        <ele>146</ele>
        <time>2012-09-14T14:26:24Z</time>
      </trkpt>
      <trkpt lat="46.64709" lon="-0.25386">
        <ele>147</ele>
        <time>2012-09-14T14:26:29Z</time>
      </trkpt>
      <trkpt lat="46.64705" lon="-0.25393">
        <ele>147</ele>
        <time>2012-09-14T14:26:34Z</time>
      </trkpt>
      <trkpt lat="46.64701" lon="-0.254">
        <ele>147</ele>
        <time>2012-09-14T14:26:39Z</time>
      </trkpt>
      <trkpt lat="46.64697" lon="-0.25407">
        <ele>148</ele>
        <time>2012-09-14T14:26:44Z</time>
      </trkpt>
      <trkpt lat="46.64693" lon="-0.25415">
        <ele>148</ele>
        <time>2012-09-14T14:26:49Z</time>
      </trkpt>
      <trkpt lat="46.6469" lon="-0.25423">
        <ele>145</ele>
        <time>2012-09-14T14:26:54Z</time>
      </trkpt>
      <trkpt lat="46.64686" lon="-0.2543">
        <ele>145</ele>
        <time>2012-09-14T14:26:59Z</time>
      </trkpt>
      <trkpt lat="46.64682" lon="-0.25437">
        <ele>145</ele>
        <time>2012-09-14T14:27:04Z</time>
      </trkpt>
      <trkpt lat="46.64679" lon="-0.25446">
        <ele>144</ele>
        <time>2012-09-14T14:27:10Z</time>
      </trkpt>
      <trkpt lat="46.64675" lon="-0.25453">
        <ele>143</ele>
        <time>2012-09-14T14:27:15Z</time>
      </trkpt>
      <trkpt lat="46.64672" lon="-0.25461">
        <ele>143</ele>
        <time>2012-09-14T14:27:20Z</time>
      </trkpt>
      <trkpt lat="46.64668" lon="-0.25469">
        <ele>142</ele>
        <time>2012-09-14T14:27:25Z</time>
      </trkpt>
      <trkpt lat="46.64664" lon="-0.25476">
        <ele>149</ele>
        <time>2012-09-14T14:27:30Z</time>
      </trkpt>
      <trkpt lat="46.6466" lon="-0.25483">
        <ele>148</ele>
        <time>2012-09-14T14:27:35Z</time>
      </trkpt>
      <trkpt lat="46.64657" lon="-0.2549">
        <ele>147</ele>
        <time>2012-09-14T14:27:40Z</time>
      </trkpt>
      <trkpt lat="46.64653" lon="-0.25498">
        <ele>147</ele>
        <time>2012-09-14T14:27:45Z</time>
      </trkpt>
      <trkpt lat="46.64648" lon="-0.25507">
        <ele>144</ele>
        <time>2012-09-14T14:27:51Z</time>
      </trkpt>
      <trkpt lat="46.64643" lon="-0.25513">
        <ele>145</ele>
        <time>2012-09-14T14:27:57Z</time>
      </trkpt>
      <trkpt lat="46.6464" lon="-0.25519">
        <ele>145</ele>
        <time>2012-09-14T14:28:02Z</time>
      </trkpt>
      <trkpt lat="46.64635" lon="-0.25525">
        <ele>145</ele>
        <time>2012-09-14T14:28:08Z</time>
      </trkpt>
      <trkpt lat="46.64632" lon="-0.25534">
        <ele>145</ele>
        <time>2012-09-14T14:28:13Z</time>
      </trkpt>
      <trkpt lat="46.64629" lon="-0.25543">
        <ele>145</ele>
        <time>2012-09-14T14:28:18Z</time>
      </trkpt>
      <trkpt lat="46.64626" lon="-0.25551">
        <ele>145</ele>
        <time>2012-09-14T14:28:24Z</time>
      </trkpt>
      <trkpt lat="46.64622" lon="-0.25559">
        <ele>145</ele>
        <time>2012-09-14T14:28:29Z</time>
      </trkpt>
      <trkpt lat="46.6462" lon="-0.25568">
        <ele>145</ele>
        <time>2012-09-14T14:28:34Z</time>
      </trkpt>
      <trkpt lat="46.64617" lon="-0.25577">
        <ele>145</ele>
        <time>2012-09-14T14:28:39Z</time>
      </trkpt>
      <trkpt lat="46.64613" lon="-0.25587">
        <ele>142</ele>
        <time>2012-09-14T14:28:44Z</time>
      </trkpt>
      <trkpt lat="46.64611" lon="-0.25597">
        <ele>142</ele>
        <time>2012-09-14T14:28:49Z</time>
      </trkpt>
      <trkpt lat="46.6461" lon="-0.25606">
        <ele>141</ele>
        <time>2012-09-14T14:28:54Z</time>
      </trkpt>
      <trkpt lat="46.64608" lon="-0.25615">
        <ele>141</ele>
        <time>2012-09-14T14:28:59Z</time>
      </trkpt>
      <trkpt lat="46.64606" lon="-0.25624">
        <ele>141</ele>
        <time>2012-09-14T14:29:04Z</time>
      </trkpt>
      <trkpt lat="46.64602" lon="-0.25632">
        <ele>141</ele>
        <time>2012-09-14T14:29:09Z</time>
      </trkpt>
      <trkpt lat="46.64601" lon="-0.25641">
        <ele>141</ele>
        <time>2012-09-14T14:29:14Z</time>
      </trkpt>
      <trkpt lat="46.64599" lon="-0.25651">
        <ele>141</ele>
        <time>2012-09-14T14:29:19Z</time>
      </trkpt>
      <trkpt lat="46.64598" lon="-0.25659">
        <ele>142</ele>
        <time>2012-09-14T14:29:24Z</time>
      </trkpt>
      <trkpt lat="46.64596" lon="-0.25668">
        <ele>141</ele>
        <time>2012-09-14T14:29:29Z</time>
      </trkpt>
      <trkpt lat="46.64596" lon="-0.25677">
        <ele>141</ele>
        <time>2012-09-14T14:29:34Z</time>
      </trkpt>
      <trkpt lat="46.64594" lon="-0.25685">
        <ele>140</ele>
        <time>2012-09-14T14:29:39Z</time>
      </trkpt>
      <trkpt lat="46.64593" lon="-0.25695">
        <ele>139</ele>
        <time>2012-09-14T14:29:44Z</time>
      </trkpt>
      <trkpt lat="46.64592" lon="-0.25704">
        <ele>139</ele>
        <time>2012-09-14T14:29:49Z</time>
      </trkpt>
      <trkpt lat="46.64591" lon="-0.25712">
        <ele>139</ele>
        <time>2012-09-14T14:29:54Z</time>
      </trkpt>
      <trkpt lat="46.64589" lon="-0.25721">
        <ele>139</ele>
        <time>2012-09-14T14:29:59Z</time>
      </trkpt>
      <trkpt lat="46.64588" lon="-0.25731">
        <ele>139</ele>
        <time>2012-09-14T14:30:04Z</time>
      </trkpt>
      <trkpt lat="46.64587" lon="-0.25742">
        <ele>140</ele>
        <time>2012-09-14T14:30:09Z</time>
      </trkpt>
      <trkpt lat="46.64586" lon="-0.25752">
        <ele>141</ele>
        <time>2012-09-14T14:30:14Z</time>
      </trkpt>
      <trkpt lat="46.64585" lon="-0.25762">
        <ele>140</ele>
        <time>2012-09-14T14:30:19Z</time>
      </trkpt>
      <trkpt lat="46.64584" lon="-0.25773">
        <ele>139</ele>
        <time>2012-09-14T14:30:24Z</time>
      </trkpt>
      <trkpt lat="46.64581" lon="-0.25783">
        <ele>145</ele>
        <time>2012-09-14T14:30:29Z</time>
      </trkpt>
      <trkpt lat="46.64579" lon="-0.25793">
        <ele>145</ele>
        <time>2012-09-14T14:30:34Z</time>
      </trkpt>
      <trkpt lat="46.64578" lon="-0.25805">
        <ele>145</ele>
        <time>2012-09-14T14:30:39Z</time>
      </trkpt>
      <trkpt lat="46.64575" lon="-0.25816">
        <ele>145</ele>
        <time>2012-09-14T14:30:44Z</time>
      </trkpt>
      <trkpt lat="46.64572" lon="-0.25827">
        <ele>145</ele>
        <time>2012-09-14T14:30:49Z</time>
      </trkpt>
      <trkpt lat="46.64569" lon="-0.25838">
        <ele>145</ele>
        <time>2012-09-14T14:30:54Z</time>
      </trkpt>
      <trkpt lat="46.64568" lon="-0.25848">
        <ele>145</ele>
        <time>2012-09-14T14:30:59Z</time>
      </trkpt>
      <trkpt lat="46.64565" lon="-0.2586">
        <ele>145</ele>
        <time>2012-09-14T14:31:04Z</time>
      </trkpt>
      <trkpt lat="46.64563" lon="-0.2587">
        <ele>145</ele>
        <time>2012-09-14T14:31:09Z</time>
      </trkpt>
      <trkpt lat="46.64561" lon="-0.25881">
        <ele>145</ele>
        <time>2012-09-14T14:31:14Z</time>
      </trkpt>
      <trkpt lat="46.64558" lon="-0.25891">
        <ele>145</ele>
        <time>2012-09-14T14:31:19Z</time>
      </trkpt>
      <trkpt lat="46.64556" lon="-0.25902">
        <ele>145</ele>
        <time>2012-09-14T14:31:24Z</time>
      </trkpt>
      <trkpt lat="46.64555" lon="-0.25911">
        <ele>145</ele>
        <time>2012-09-14T14:31:29Z</time>
      </trkpt>
      <trkpt lat="46.64554" lon="-0.25923">
        <ele>144</ele>
        <time>2012-09-14T14:31:34Z</time>
      </trkpt>
      <trkpt lat="46.64555" lon="-0.25933">
        <ele>144</ele>
        <time>2012-09-14T14:31:39Z</time>
      </trkpt>
      <trkpt lat="46.64557" lon="-0.25941">
        <ele>144</ele>
        <time>2012-09-14T14:31:44Z</time>
      </trkpt>
      <trkpt lat="46.64559" lon="-0.25949">
        <ele>144</ele>
        <time>2012-09-14T14:31:49Z</time>
      </trkpt>
      <trkpt lat="46.6456" lon="-0.25957">
        <ele>144</ele>
        <time>2012-09-14T14:31:54Z</time>
      </trkpt>
      <trkpt lat="46.64561" lon="-0.25967">
        <ele>144</ele>
        <time>2012-09-14T14:31:59Z</time>
      </trkpt>
      <trkpt lat="46.64563" lon="-0.25976">
        <ele>143</ele>
        <time>2012-09-14T14:32:04Z</time>
      </trkpt>
      <trkpt lat="46.64564" lon="-0.25985">
        <ele>143</ele>
        <time>2012-09-14T14:32:09Z</time>
      </trkpt>
      <trkpt lat="46.64565" lon="-0.25994">
        <ele>143</ele>
        <time>2012-09-14T14:32:14Z</time>
      </trkpt>
      <trkpt lat="46.64566" lon="-0.26003">
        <ele>142</ele>
        <time>2012-09-14T14:32:19Z</time>
      </trkpt>
      <trkpt lat="46.64565" lon="-0.26013">
        <ele>142</ele>
        <time>2012-09-14T14:32:24Z</time>
      </trkpt>
      <trkpt lat="46.64563" lon="-0.26023">
        <ele>143</ele>
        <time>2012-09-14T14:32:29Z</time>
      </trkpt>
      <trkpt lat="46.64561" lon="-0.26033">
        <ele>143</ele>
        <time>2012-09-14T14:32:34Z</time>
      </trkpt>
      <trkpt lat="46.64558" lon="-0.26044">
        <ele>143</ele>
        <time>2012-09-14T14:32:39Z</time>
      </trkpt>
      <trkpt lat="46.64554" lon="-0.26055">
        <ele>143</ele>
        <time>2012-09-14T14:32:44Z</time>
      </trkpt>
      <trkpt lat="46.64553" lon="-0.26064">
        <ele>143</ele>
        <time>2012-09-14T14:32:49Z</time>
      </trkpt>
      <trkpt lat="46.64551" lon="-0.26072">
        <ele>143</ele>
        <time>2012-09-14T14:32:54Z</time>
      </trkpt>
      <trkpt lat="46.64551" lon="-0.26083">
        <ele>143</ele>
        <time>2012-09-14T14:32:59Z</time>
      </trkpt>
      <trkpt lat="46.6455" lon="-0.26091">
        <ele>142</ele>
        <time>2012-09-14T14:33:04Z</time>
      </trkpt>
      <trkpt lat="46.64549" lon="-0.26098">
        <ele>142</ele>
        <time>2012-09-14T14:33:09Z</time>
      </trkpt>
      <trkpt lat="46.64546" lon="-0.2611">
        <ele>142</ele>
        <time>2012-09-14T14:33:14Z</time>
      </trkpt>
      <trkpt lat="46.64544" lon="-0.26119">
        <ele>142</ele>
        <time>2012-09-14T14:33:19Z</time>
      </trkpt>
      <trkpt lat="46.64542" lon="-0.26129">
        <ele>142</ele>
        <time>2012-09-14T14:33:24Z</time>
      </trkpt>
      <trkpt lat="46.64543" lon="-0.26136">
        <ele>142</ele>
        <time>2012-09-14T14:33:29Z</time>
      </trkpt>
      <trkpt lat="46.64543" lon="-0.26145">
        <ele>142</ele>
        <time>2012-09-14T14:33:35Z</time>
      </trkpt>
      <trkpt lat="46.64541" lon="-0.26152">
        <ele>142</ele>
        <time>2012-09-14T14:33:40Z</time>
      </trkpt>
      <trkpt lat="46.64538" lon="-0.26168">
        <ele>141</ele>
        <time>2012-09-14T14:33:45Z</time>
      </trkpt>
      <trkpt lat="46.64537" lon="-0.2618">
        <ele>141</ele>
        <time>2012-09-14T14:33:50Z</time>
      </trkpt>
      <trkpt lat="46.64536" lon="-0.2619">
        <ele>140</ele>
        <time>2012-09-14T14:33:55Z</time>
      </trkpt>
      <trkpt lat="46.64536" lon="-0.26199">
        <ele>140</ele>
        <time>2012-09-14T14:34:00Z</time>
      </trkpt>
      <trkpt lat="46.64537" lon="-0.26209">
        <ele>140</ele>
        <time>2012-09-14T14:34:05Z</time>
      </trkpt>
      <trkpt lat="46.64537" lon="-0.2622">
        <ele>140</ele>
        <time>2012-09-14T14:34:10Z</time>
      </trkpt>
      <trkpt lat="46.64539" lon="-0.2623">
        <ele>140</ele>
        <time>2012-09-14T14:34:15Z</time>
      </trkpt>
      <trkpt lat="46.64538" lon="-0.26239">
        <ele>140</ele>
        <time>2012-09-14T14:34:20Z</time>
      </trkpt>
      <trkpt lat="46.64538" lon="-0.26248">
        <ele>140</ele>
        <time>2012-09-14T14:34:25Z</time>
      </trkpt>
      <trkpt lat="46.64537" lon="-0.26259">
        <ele>138</ele>
        <time>2012-09-14T14:34:30Z</time>
      </trkpt>
      <trkpt lat="46.64534" lon="-0.26269">
        <ele>138</ele>
        <time>2012-09-14T14:34:35Z</time>
      </trkpt>
      <trkpt lat="46.64531" lon="-0.2628">
        <ele>138</ele>
        <time>2012-09-14T14:34:40Z</time>
      </trkpt>
      <trkpt lat="46.64528" lon="-0.26289">
        <ele>138</ele>
        <time>2012-09-14T14:34:45Z</time>
      </trkpt>
      <trkpt lat="46.64525" lon="-0.26297">
        <ele>138</ele>
        <time>2012-09-14T14:34:50Z</time>
      </trkpt>
      <trkpt lat="46.64523" lon="-0.26307">
        <ele>137</ele>
        <time>2012-09-14T14:34:55Z</time>
      </trkpt>
      <trkpt lat="46.64522" lon="-0.26317">
        <ele>137</ele>
        <time>2012-09-14T14:35:00Z</time>
      </trkpt>
      <trkpt lat="46.64522" lon="-0.26328">
        <ele>137</ele>
        <time>2012-09-14T14:35:05Z</time>
      </trkpt>
      <trkpt lat="46.64521" lon="-0.26337">
        <ele>137</ele>
        <time>2012-09-14T14:35:11Z</time>
      </trkpt>
      <trkpt lat="46.64517" lon="-0.26345">
        <ele>137</ele>
        <time>2012-09-14T14:35:16Z</time>
      </trkpt>
      <trkpt lat="46.64512" lon="-0.26351">
        <ele>137</ele>
        <time>2012-09-14T14:35:21Z</time>
      </trkpt>
      <trkpt lat="46.64506" lon="-0.26359">
        <ele>137</ele>
        <time>2012-09-14T14:35:27Z</time>
      </trkpt>
      <trkpt lat="46.645" lon="-0.26366">
        <ele>137</ele>
        <time>2012-09-14T14:35:33Z</time>
      </trkpt>
      <trkpt lat="46.64496" lon="-0.26371">
        <ele>136</ele>
        <time>2012-09-14T14:35:38Z</time>
      </trkpt>
      <trkpt lat="46.6449" lon="-0.26377">
        <ele>136</ele>
        <time>2012-09-14T14:35:44Z</time>
      </trkpt>
      <trkpt lat="46.64484" lon="-0.26379">
        <ele>136</ele>
        <time>2012-09-14T14:35:49Z</time>
      </trkpt>
      <trkpt lat="46.64477" lon="-0.2638">
        <ele>136</ele>
        <time>2012-09-14T14:35:54Z</time>
      </trkpt>
      <trkpt lat="46.6447" lon="-0.26383">
        <ele>136</ele>
        <time>2012-09-14T14:36:00Z</time>
      </trkpt>
      <trkpt lat="46.64463" lon="-0.26385">
        <ele>136</ele>
        <time>2012-09-14T14:36:05Z</time>
      </trkpt>
      <trkpt lat="46.64456" lon="-0.26387">
        <ele>135</ele>
        <time>2012-09-14T14:36:11Z</time>
      </trkpt>
      <trkpt lat="46.64449" lon="-0.26391">
        <ele>135</ele>
        <time>2012-09-14T14:36:16Z</time>
      </trkpt>
      <trkpt lat="46.64441" lon="-0.26394">
        <ele>135</ele>
        <time>2012-09-14T14:36:21Z</time>
      </trkpt>
      <trkpt lat="46.64435" lon="-0.26396">
        <ele>135</ele>
        <time>2012-09-14T14:36:26Z</time>
      </trkpt>
      <trkpt lat="46.64428" lon="-0.26396">
        <ele>135</ele>
        <time>2012-09-14T14:36:31Z</time>
      </trkpt>
      <trkpt lat="46.64422" lon="-0.26397">
        <ele>135</ele>
        <time>2012-09-14T14:36:37Z</time>
      </trkpt>
      <trkpt lat="46.64415" lon="-0.26395">
        <ele>134</ele>
        <time>2012-09-14T14:36:43Z</time>
      </trkpt>
      <trkpt lat="46.64409" lon="-0.26391">
        <ele>134</ele>
        <time>2012-09-14T14:36:48Z</time>
      </trkpt>
      <trkpt lat="46.64403" lon="-0.26388">
        <ele>134</ele>
        <time>2012-09-14T14:36:53Z</time>
      </trkpt>
      <trkpt lat="46.64396" lon="-0.26384">
        <ele>134</ele>
        <time>2012-09-14T14:36:58Z</time>
      </trkpt>
      <trkpt lat="46.64389" lon="-0.26381">
        <ele>134</ele>
        <time>2012-09-14T14:37:04Z</time>
      </trkpt>
      <trkpt lat="46.64381" lon="-0.26377">
        <ele>134</ele>
        <time>2012-09-14T14:37:10Z</time>
      </trkpt>
      <trkpt lat="46.64374" lon="-0.26372">
        <ele>134</ele>
        <time>2012-09-14T14:37:16Z</time>
      </trkpt>
      <trkpt lat="46.64369" lon="-0.26369">
        <ele>134</ele>
        <time>2012-09-14T14:37:21Z</time>
      </trkpt>
      <trkpt lat="46.64361" lon="-0.26368">
        <ele>134</ele>
        <time>2012-09-14T14:37:27Z</time>
      </trkpt>
      <trkpt lat="46.64354" lon="-0.26367">
        <ele>134</ele>
        <time>2012-09-14T14:37:32Z</time>
      </trkpt>
      <trkpt lat="46.64347" lon="-0.26367">
        <ele>134</ele>
        <time>2012-09-14T14:37:37Z</time>
      </trkpt>
      <trkpt lat="46.64339" lon="-0.26365">
        <ele>134</ele>
        <time>2012-09-14T14:37:42Z</time>
      </trkpt>
      <trkpt lat="46.6433" lon="-0.26367">
        <ele>134</ele>
        <time>2012-09-14T14:37:48Z</time>
      </trkpt>
      <trkpt lat="46.64324" lon="-0.26368">
        <ele>134</ele>
        <time>2012-09-14T14:37:53Z</time>
      </trkpt>
      <trkpt lat="46.64316" lon="-0.2637">
        <ele>134</ele>
        <time>2012-09-14T14:37:58Z</time>
      </trkpt>
      <trkpt lat="46.6431" lon="-0.26368">
        <ele>134</ele>
        <time>2012-09-14T14:38:03Z</time>
      </trkpt>
      <trkpt lat="46.64303" lon="-0.26367">
        <ele>133</ele>
        <time>2012-09-14T14:38:08Z</time>
      </trkpt>
      <trkpt lat="46.64297" lon="-0.26367">
        <ele>133</ele>
        <time>2012-09-14T14:38:13Z</time>
      </trkpt>
      <trkpt lat="46.6429" lon="-0.26366">
        <ele>133</ele>
        <time>2012-09-14T14:38:19Z</time>
      </trkpt>
      <trkpt lat="46.64284" lon="-0.26366">
        <ele>133</ele>
        <time>2012-09-14T14:38:24Z</time>
      </trkpt>
      <trkpt lat="46.64277" lon="-0.26365">
        <ele>133</ele>
        <time>2012-09-14T14:38:29Z</time>
      </trkpt>
      <trkpt lat="46.6427" lon="-0.26364">
        <ele>133</ele>
        <time>2012-09-14T14:38:34Z</time>
      </trkpt>
      <trkpt lat="46.64262" lon="-0.26363">
        <ele>133</ele>
        <time>2012-09-14T14:38:40Z</time>
      </trkpt>
      <trkpt lat="46.64256" lon="-0.2636">
        <ele>133</ele>
        <time>2012-09-14T14:38:45Z</time>
      </trkpt>
      <trkpt lat="46.64248" lon="-0.2636">
        <ele>133</ele>
        <time>2012-09-14T14:38:50Z</time>
      </trkpt>
      <trkpt lat="46.64242" lon="-0.2636">
        <ele>133</ele>
        <time>2012-09-14T14:38:55Z</time>
      </trkpt>
      <trkpt lat="46.64233" lon="-0.26359">
        <ele>133</ele>
        <time>2012-09-14T14:39:00Z</time>
      </trkpt>
      <trkpt lat="46.64226" lon="-0.2636">
        <ele>133</ele>
        <time>2012-09-14T14:39:05Z</time>
      </trkpt>
      <trkpt lat="46.6422" lon="-0.26361">
        <ele>132</ele>
        <time>2012-09-14T14:39:10Z</time>
      </trkpt>
      <trkpt lat="46.64214" lon="-0.26363">
        <ele>132</ele>
        <time>2012-09-14T14:39:15Z</time>
      </trkpt>
      <trkpt lat="46.64206" lon="-0.26365">
        <ele>132</ele>
        <time>2012-09-14T14:39:21Z</time>
      </trkpt>
      <trkpt lat="46.642" lon="-0.26366">
        <ele>132</ele>
        <time>2012-09-14T14:39:26Z</time>
      </trkpt>
      <trkpt lat="46.64193" lon="-0.26369">
        <ele>132</ele>
        <time>2012-09-14T14:39:31Z</time>
      </trkpt>
      <trkpt lat="46.64186" lon="-0.26372">
        <ele>132</ele>
        <time>2012-09-14T14:39:36Z</time>
      </trkpt>
      <trkpt lat="46.64181" lon="-0.26378">
        <ele>132</ele>
        <time>2012-09-14T14:39:41Z</time>
      </trkpt>
      <trkpt lat="46.64176" lon="-0.26382">
        <ele>132</ele>
        <time>2012-09-14T14:39:46Z</time>
      </trkpt>
      <trkpt lat="46.6417" lon="-0.26386">
        <ele>132</ele>
        <time>2012-09-14T14:39:51Z</time>
      </trkpt>
      <trkpt lat="46.64164" lon="-0.26395">
        <ele>132</ele>
        <time>2012-09-14T14:39:57Z</time>
      </trkpt>
      <trkpt lat="46.64159" lon="-0.26404">
        <ele>132</ele>
        <time>2012-09-14T14:40:03Z</time>
      </trkpt>
      <trkpt lat="46.64153" lon="-0.26413">
        <ele>132</ele>
        <time>2012-09-14T14:40:09Z</time>
      </trkpt>
      <trkpt lat="46.64148" lon="-0.26419">
        <ele>132</ele>
        <time>2012-09-14T14:40:14Z</time>
      </trkpt>
      <trkpt lat="46.64142" lon="-0.26426">
        <ele>132</ele>
        <time>2012-09-14T14:40:20Z</time>
      </trkpt>
      <trkpt lat="46.64135" lon="-0.26432">
        <ele>132</ele>
        <time>2012-09-14T14:40:25Z</time>
      </trkpt>
      <trkpt lat="46.64129" lon="-0.26438">
        <ele>131</ele>
        <time>2012-09-14T14:40:30Z</time>
      </trkpt>
      <trkpt lat="46.64123" lon="-0.26443">
        <ele>131</ele>
        <time>2012-09-14T14:40:35Z</time>
      </trkpt>
      <trkpt lat="46.64117" lon="-0.26447">
        <ele>131</ele>
        <time>2012-09-14T14:40:40Z</time>
      </trkpt>
      <trkpt lat="46.6411" lon="-0.26451">
        <ele>131</ele>
        <time>2012-09-14T14:40:45Z</time>
      </trkpt>
      <trkpt lat="46.64105" lon="-0.26455">
        <ele>131</ele>
        <time>2012-09-14T14:40:50Z</time>
      </trkpt>
      <trkpt lat="46.64099" lon="-0.26459">
        <ele>131</ele>
        <time>2012-09-14T14:40:55Z</time>
      </trkpt>
      <trkpt lat="46.64093" lon="-0.26464">
        <ele>131</ele>
        <time>2012-09-14T14:41:00Z</time>
      </trkpt>
      <trkpt lat="46.64086" lon="-0.26471">
        <ele>131</ele>
        <time>2012-09-14T14:41:05Z</time>
      </trkpt>
      <trkpt lat="46.6408" lon="-0.26475">
        <ele>131</ele>
        <time>2012-09-14T14:41:10Z</time>
      </trkpt>
      <trkpt lat="46.64073" lon="-0.26481">
        <ele>131</ele>
        <time>2012-09-14T14:41:16Z</time>
      </trkpt>
      <trkpt lat="46.64067" lon="-0.26484">
        <ele>131</ele>
        <time>2012-09-14T14:41:21Z</time>
      </trkpt>
      <trkpt lat="46.64061" lon="-0.26486">
        <ele>131</ele>
        <time>2012-09-14T14:41:26Z</time>
      </trkpt>
      <trkpt lat="46.64054" lon="-0.26487">
        <ele>131</ele>
        <time>2012-09-14T14:41:31Z</time>
      </trkpt>
      <trkpt lat="46.64047" lon="-0.26486">
        <ele>131</ele>
        <time>2012-09-14T14:41:36Z</time>
      </trkpt>
      <trkpt lat="46.64039" lon="-0.26486">
        <ele>131</ele>
        <time>2012-09-14T14:41:41Z</time>
      </trkpt>
      <trkpt lat="46.64032" lon="-0.26486">
        <ele>131</ele>
        <time>2012-09-14T14:41:46Z</time>
      </trkpt>
      <trkpt lat="46.64025" lon="-0.26487">
        <ele>131</ele>
        <time>2012-09-14T14:41:51Z</time>
      </trkpt>
      <trkpt lat="46.6402" lon="-0.26485">
        <ele>131</ele>
        <time>2012-09-14T14:41:56Z</time>
      </trkpt>
      <trkpt lat="46.64013" lon="-0.26482">
        <ele>131</ele>
        <time>2012-09-14T14:42:01Z</time>
      </trkpt>
      <trkpt lat="46.64006" lon="-0.26479">
        <ele>131</ele>
        <time>2012-09-14T14:42:07Z</time>
      </trkpt>
      <trkpt lat="46.64" lon="-0.26475">
        <ele>132</ele>
        <time>2012-09-14T14:42:13Z</time>
      </trkpt>
      <trkpt lat="46.63995" lon="-0.26476">
        <ele>132</ele>
        <time>2012-09-14T14:42:19Z</time>
      </trkpt>
      <trkpt lat="46.63991" lon="-0.2648">
        <ele>132</ele>
        <time>2012-09-14T14:42:25Z</time>
      </trkpt>
      <trkpt lat="46.6399" lon="-0.26486">
        <ele>132</ele>
        <time>2012-09-14T14:42:30Z</time>
      </trkpt>
      <trkpt lat="46.63989" lon="-0.26494">
        <ele>132</ele>
        <time>2012-09-14T14:42:35Z</time>
      </trkpt>
      <trkpt lat="46.63987" lon="-0.26503">
        <ele>132</ele>
        <time>2012-09-14T14:42:40Z</time>
      </trkpt>
      <trkpt lat="46.63986" lon="-0.26511">
        <ele>132</ele>
        <time>2012-09-14T14:42:45Z</time>
      </trkpt>
      <trkpt lat="46.63985" lon="-0.26518">
        <ele>133</ele>
        <time>2012-09-14T14:42:50Z</time>
      </trkpt>
      <trkpt lat="46.63984" lon="-0.26524">
        <ele>133</ele>
        <time>2012-09-14T14:42:55Z</time>
      </trkpt>
      <trkpt lat="46.63985" lon="-0.26528">
        <ele>133</ele>
        <time>2012-09-14T14:43:02Z</time>
      </trkpt>
      <trkpt lat="46.63988" lon="-0.26527">
        <ele>133</ele>
        <time>2012-09-14T14:43:07Z</time>
      </trkpt>
      <trkpt lat="46.63987" lon="-0.26525">
        <ele>133</ele>
        <time>2012-09-14T14:43:12Z</time>
      </trkpt>
      <trkpt lat="46.63985" lon="-0.26537">
        <ele>133</ele>
        <time>2012-09-14T14:43:17Z</time>
      </trkpt>
      <trkpt lat="46.63986" lon="-0.26548">
        <ele>134</ele>
        <time>2012-09-14T14:43:22Z</time>
      </trkpt>
      <trkpt lat="46.63991" lon="-0.26555">
        <ele>134</ele>
        <time>2012-09-14T14:43:27Z</time>
      </trkpt>
      <trkpt lat="46.63997" lon="-0.2656">
        <ele>134</ele>
        <time>2012-09-14T14:43:32Z</time>
      </trkpt>
      <trkpt lat="46.64003" lon="-0.26565">
        <ele>134</ele>
        <time>2012-09-14T14:43:37Z</time>
      </trkpt>
      <trkpt lat="46.6401" lon="-0.26571">
        <ele>134</ele>
        <time>2012-09-14T14:43:43Z</time>
      </trkpt>
      <trkpt lat="46.64015" lon="-0.26577">
        <ele>134</ele>
        <time>2012-09-14T14:43:49Z</time>
      </trkpt>
      <trkpt lat="46.64021" lon="-0.26582">
        <ele>134</ele>
        <time>2012-09-14T14:43:55Z</time>
      </trkpt>
      <trkpt lat="46.64027" lon="-0.26585">
        <ele>136</ele>
        <time>2012-09-14T14:44:01Z</time>
      </trkpt>
      <trkpt lat="46.64031" lon="-0.2659">
        <ele>136</ele>
        <time>2012-09-14T14:44:07Z</time>
      </trkpt>
      <trkpt lat="46.64038" lon="-0.26597">
        <ele>136</ele>
        <time>2012-09-14T14:44:13Z</time>
      </trkpt>
      <trkpt lat="46.64045" lon="-0.26604">
        <ele>136</ele>
        <time>2012-09-14T14:44:19Z</time>
      </trkpt>
      <trkpt lat="46.64049" lon="-0.26611">
        <ele>136</ele>
        <time>2012-09-14T14:44:25Z</time>
      </trkpt>
      <trkpt lat="46.64054" lon="-0.26615">
        <ele>136</ele>
        <time>2012-09-14T14:44:30Z</time>
      </trkpt>
      <trkpt lat="46.6406" lon="-0.2662">
        <ele>136</ele>
        <time>2012-09-14T14:44:36Z</time>
      </trkpt>
      <trkpt lat="46.64065" lon="-0.26628">
        <ele>137</ele>
        <time>2012-09-14T14:44:42Z</time>
      </trkpt>
      <trkpt lat="46.64071" lon="-0.26634">
        <ele>137</ele>
        <time>2012-09-14T14:44:47Z</time>
      </trkpt>
      <trkpt lat="46.64076" lon="-0.26642">
        <ele>137</ele>
        <time>2012-09-14T14:44:53Z</time>
      </trkpt>
      <trkpt lat="46.64081" lon="-0.26648">
        <ele>137</ele>
        <time>2012-09-14T14:44:58Z</time>
      </trkpt>
      <trkpt lat="46.64087" lon="-0.26654">
        <ele>137</ele>
        <time>2012-09-14T14:45:04Z</time>
      </trkpt>
      <trkpt lat="46.64087" lon="-0.2666">
        <ele>138</ele>
        <time>2012-09-14T14:45:11Z</time>
      </trkpt>
      <trkpt lat="46.64086" lon="-0.26667">
        <ele>138</ele>
        <time>2012-09-14T14:45:17Z</time>
      </trkpt>
    </trkseg>
  </trk>
</gpx>